[[{"header":{"parameterUnit":"m.s-1","parameterCategory":1,"la1":31.0,"la2":29.5877,"lo1":-88.7671,"lo2":-86.6584,"dy":0.0162,"dx":0.0185,"nx":115,"ny":88,"refTime":"2025-05-14T12:00:00:Z","depth":0,"parameterNumber":2,"parameterNumberName":"U-component_of_WINDS"},"data":[0.0,0.0,0.0,0.0,0.0,0.0,0.0,0.0,0.0,0.0,0.0,0.0,0.0,0.0,0.0,0.0,0.0,0.0,0.0,0.0,0.0,0.0,0.0,0.0,0.0,0.0,0.0,0.0,0.0,0.0,0.0,0.0,0.0,0.0,0.0,0.0,0.0,0.0,0.0,0.0,0.0,0.0,0.0,0.0,0.0,0.0,0.0,0.0,0.0,0.0,0.0,0.0,0.0,0.0,0.0,0.0,0.0,0.0,0.0,0.0,0.0,0.0,0.0,0.0,0.0,0.0,0.0,0.0,0.0,0.0,0.0,0.0,0.0,0.0,0.0,0.0,0.0,0.0,0.0,0.0,0.0,0.0,0.0,0.0,0.0,0.0,0.0,0.0,0.0,0.0,0.0,0.0,0.0,0.0,0.0,0.0,0.0,0.0,0.0,0.0,0.0,0.0,0.0,0.0,0.0,0.0,0.0,0.0,0.0,0.0,0.0,0.0,0.0,0.0,0.0,0.0,0.0,0.0,0.0,0.0,0.0,0.0,0.0,0.0,0.0,0.0,0.0,0.0,0.0,0.0,0.0,0.0,0.0,0.0,0.0,0.0,0.0,0.0,0.0,0.0,0.0,0.0,0.0,0.0,0.0,0.0,0.0,0.0,0.0,0.0,0.0,0.0,0.0,0.0,0.0,0.0,0.0,0.0,0.0,0.0,0.0,0.0,0.0,0.0,0.0,0.0,0.0,0.0,0.0,0.0,0.0,0.0,0.0,0.0,0.0,0.0,0.0,0.0,0.0,0.0,0.0,0.0,0.0,0.0,0.0,0.0,0.0,0.0,0.0,0.0,0.0,0.0,0.0,0.0,0.0,0.0,0.0,0.0,0.0,0.0,0.0,0.0,0.0,0.0,0.0,0.0,0.0,0.0,0.0,0.0,0.0,0.0,0.0,0.0,0.0,0.0,0.0,0.0,0.0,0.0,0.0,0.0,0.0,0.0,0.0,0.0,0.0,0.0,0.0,0.0,0.0,0.0,0.0,0.0,0.0,0.0,0.0,0.0,0.0,0.0,0.0,0.0,0.0,0.0,0.0,0.0,0.0,0.0,0.0,0.0,0.0,0.0,0.0,0.0,0.0,0.0,0.0,0.0,0.0,0.0,0.0,0.0,0.0,0.0,0.0,0.0,0.0,0.0,0.0,0.0,0.0,0.0,0.0,0.0,0.0,0.0,0.0,0.0,0.0,0.0,0.0,0.0,0.0,0.0,0.0,0.0,0.0,0.0,0.0,0.0,0.0,0.0,0.0,0.0,0.0,0.0,0.0,0.0,0.0,0.0,0.0,0.0,0.0,0.0,0.0,0.0,0.0,0.0,0.0,0.0,0.0,0.0,0.0,0.0,0.0,0.0,0.0,0.0,0.0,0.0,0.0,0.0,0.0,0.0,0.0,0.0,0.0,0.0,0.0,0.0,0.0,0.0,0.0,0.0,0.0,0.0,0.0,0.0,0.0,0.0,0.0,0.0,0.0,0.0,0.0,0.0,0.0,0.0,0.0,0.0,0.0,0.0,0.0,0.0,0.0,0.0,0.0,0.0,0.0,0.0,0.0,0.0,0.0,0.0,0.0,0.0,0.0,0.0,0.0,0.0,0.0,0.0,0.0,0.0,0.0,0.0,0.0,0.0,0.0,0.0,0.0,0.0,0.0,0.0,0.0,0.0,0.0,0.0,0.0,0.0,0.0,0.0,0.0,0.0,0.0,0.0,0.0,0.0,0.0,0.0,0.0,0.0,0.0,0.0,0.0,0.0,0.0,0.0,0.0,0.0,0.0,0.0,0.0,0.0,0.0,0.0,0.0,0.0,0.0,0.0,0.0,0.0,0.0,0.0,0.0,0.0,0.0,0.0,0.0,0.0,0.0,0.0,0.0,0.0,0.0,0.0,0.0,0.0,0.0,0.0,0.0,0.0,0.0,0.0,0.0,0.0,0.0,0.0,0.0,0.0,0.0,0.0,0.0,0.0,0.0,0.0,0.0,0.0,0.0,0.0,0.0,0.0,0.0,0.0,0.0,0.0,0.0,0.0,0.0,0.0,0.0,0.0,0.0,0.0,0.0,0.0,0.0,0.0,0.0,0.0,0.0,0.0,0.0,0.0,0.0,0.0,0.0,0.0,0.0,0.0,0.0,0.0,0.0,0.0,0.0,0.0,0.0,0.0,0.0,0.0,0.0,0.0,0.0,0.0,0.0,0.0,0.0,0.0,0.0,0.0,0.0,0.0,0.0,0.0,0.0,0.0,0.0,0.0,0.0,0.0,0.0,0.0,0.0,0.0,0.0,0.0,0.0,0.0,0.0,0.0,0.0,0.0,0.0,0.0,0.0,0.0,0.0,0.0,0.0,0.0,0.0,0.0,0.0,0.0,0.0,0.0,0.0,0.0,0.0,0.0,0.0,0.0,0.0,0.0,0.0,0.0,0.0,0.0,0.0,0.0,0.0,0.0,0.0,0.0,0.0,0.0,0.0,0.0,0.0,0.0,0.0,0.0,0.0,0.0,0.0,0.0,0.0,0.0,0.0,0.0,0.0,0.0,0.0,0.0,0.0,0.0,0.0,0.0,0.0,0.0,0.0,0.0,0.0,0.0,0.0,0.0,0.0,0.0,0.0,0.0,0.0,0.0,0.0,0.0,0.0,0.0,0.0,0.0,0.0,0.0,0.0,0.0,0.0,0.0,0.0,0.0,0.0,0.0,0.0,0.0,0.0,0.0,0.0,0.0,0.0,0.0,0.0,0.0,0.0,0.0,0.0,0.0,0.0,0.0,0.0,0.0,0.0,0.0,0.0,0.0,0.0,0.0,0.0,0.0,0.0,0.0,0.0,0.0,0.0,0.0,0.0,0.0,0.0,0.0,0.0,0.0,0.0,0.0,0.0,0.0,0.0,0.0,0.0,0.0,0.0,0.0,0.0,0.0,0.0,0.0,0.0,0.0,0.0,0.0,0.0,0.0,0.0,0.0,0.0,0.0,0.0,0.0,0.0,0.0,0.0,0.0,0.0,0.0,0.0,0.0,0.0,0.0,0.0,0.0,0.0,0.0,0.0,0.0,0.0,0.0,0.0,0.0,0.0,0.0,0.0,0.0,0.0,0.0,0.0,0.0,0.0,0.0,0.0,0.0,0.0,0.0,0.0,0.0,0.0,0.0,0.0,0.0,0.0,0.0,0.0,0.0,0.0,0.0,0.0,0.0,0.0,0.0,0.0,0.0,0.0,0.0,0.0,0.0,0.0,0.0,0.0,0.0,0.0,0.0,0.0,0.0,0.0,0.0,0.0,0.0,0.0,0.0,0.0,0.0,0.0,0.0,0.0,0.0,0.0,0.0,0.0,0.0,0.0,0.0,0.0,0.0,0.0,0.0,0.0,0.0,0.0,0.0,0.0,0.0,0.0,0.0,0.0,0.0,0.0,0.0,0.0,0.0,0.0,0.0,0.0,0.0,0.0,0.0,0.0,0.0,0.0,0.0,0.0,0.0,0.0,0.0,0.0,0.0,0.0,0.0,0.0,0.0,0.0,0.0,0.0,0.0,0.0,0.0,0.0,0.0,0.0,0.0,0.0,0.0,0.0,0.0,0.0,0.0,0.0,0.0,0.0,0.0,0.0,0.0,0.0,0.0,0.0,0.0,0.0,0.0,0.0,0.0,0.0,0.0,0.0,0.0,0.0,0.0,0.0,0.0,0.0,0.0,0.0,0.0,0.0,0.0,0.0,0.0,0.0,0.0,0.0,0.0,0.0,0.0,0.0,0.0,0.0,0.0,0.0,0.0,0.0,0.0,0.0,0.0,0.0,0.0,0.0,0.0,0.0,0.0,0.0,0.0,0.0,0.0,0.0,0.0,0.0,0.0,0.0,0.0,0.0,0.0,0.0,0.0,0.0,0.0,0.0,0.0,0.0,0.0,0.0,0.0,0.0,0.0,0.0,0.0,0.0,0.0,0.0,0.0,0.0,0.0,0.0,0.0,0.0,0.0,0.0,0.0,0.0,0.0,0.0,0.0,0.0,0.0,0.0,0.0,0.0,0.0,0.0,0.0,0.0,0.0,0.0,0.0,0.0,0.0,0.0,0.0,0.0,0.0,0.0,0.0,0.0,0.0,0.0,0.0,0.0,0.0,0.0,0.0,0.0,0.0,0.0,0.0,0.0,0.0,0.0,0.0,0.0,0.0,0.0,0.0,0.0,0.0,0.0,0.0,0.0,0.0,0.0,0.0,0.0,0.0,0.0,0.0,0.0,0.0,-4.951,0.0,0.0,0.0,0.0,0.0,0.0,0.0,0.0,0.0,0.0,0.0,0.0,0.0,0.0,0.0,0.0,0.0,0.0,0.0,0.0,0.0,0.0,0.0,0.0,0.0,0.0,0.0,0.0,0.0,0.0,0.0,0.0,0.0,0.0,0.0,0.0,0.0,0.0,0.0,0.0,0.0,0.0,0.0,0.0,0.0,0.0,0.0,0.0,0.0,0.0,0.0,0.0,0.0,0.0,0.0,0.0,0.0,0.0,0.0,0.0,0.0,0.0,0.0,0.0,0.0,0.0,0.0,0.0,0.0,0.0,0.0,0.0,0.0,0.0,0.0,0.0,0.0,0.0,0.0,0.0,0.0,0.0,0.0,0.0,0.0,0.0,0.0,0.0,0.0,0.0,0.0,0.0,0.0,0.0,0.0,0.0,0.0,0.0,0.0,0.0,0.0,0.0,0.0,0.0,0.0,0.0,0.0,0.0,0.0,0.0,-5.3203,-5.3203,-5.3203,-5.2202,-5.0164,0.0,0.0,0.0,0.0,0.0,0.0,0.0,0.0,0.0,0.0,0.0,0.0,0.0,0.0,0.0,0.0,0.0,0.0,0.0,0.0,0.0,0.0,0.0,0.0,0.0,0.0,0.0,0.0,0.0,0.0,0.0,0.0,0.0,0.0,0.0,0.0,0.0,0.0,0.0,0.0,0.0,0.0,0.0,0.0,0.0,0.0,0.0,0.0,0.0,0.0,0.0,0.0,0.0,0.0,0.0,0.0,0.0,0.0,0.0,0.0,0.0,0.0,0.0,0.0,0.0,0.0,0.0,0.0,0.0,0.0,0.0,0.0,0.0,0.0,0.0,0.0,0.0,0.0,0.0,0.0,0.0,0.0,0.0,0.0,0.0,0.0,0.0,0.0,0.0,0.0,0.0,0.0,0.0,0.0,0.0,0.0,0.0,0.0,0.0,0.0,0.0,0.0,0.0,0.0,0.0,0.0,0.0,0.0,0.0,0.0,0.0,0.0,-5.428,-5.3087,-5.101,0.0,0.0,0.0,0.0,0.0,0.0,0.0,0.0,0.0,0.0,0.0,0.0,0.0,0.0,0.0,0.0,0.0,0.0,0.0,0.0,0.0,0.0,0.0,0.0,0.0,0.0,0.0,0.0,0.0,0.0,0.0,0.0,0.0,0.0,0.0,0.0,0.0,0.0,0.0,0.0,0.0,0.0,0.0,0.0,0.0,0.0,0.0,0.0,0.0,0.0,0.0,0.0,0.0,0.0,0.0,0.0,0.0,0.0,0.0,0.0,0.0,0.0,0.0,0.0,0.0,0.0,0.0,0.0,0.0,0.0,0.0,0.0,0.0,0.0,0.0,0.0,0.0,0.0,0.0,0.0,0.0,0.0,0.0,0.0,0.0,0.0,0.0,0.0,0.0,0.0,0.0,0.0,0.0,0.0,0.0,0.0,0.0,0.0,0.0,0.0,0.0,0.0,0.0,0.0,0.0,0.0,0.0,0.0,0.0,0.0,-5.5011,-5.8781,-5.7396,0.0,-5.201,0.0,0.0,0.0,0.0,0.0,0.0,0.0,0.0,0.0,0.0,0.0,0.0,0.0,0.0,0.0,0.0,0.0,0.0,0.0,0.0,0.0,0.0,0.0,0.0,0.0,0.0,0.0,0.0,0.0,0.0,0.0,0.0,0.0,0.0,0.0,0.0,0.0,0.0,0.0,0.0,0.0,0.0,0.0,0.0,0.0,0.0,0.0,0.0,0.0,0.0,0.0,0.0,0.0,0.0,0.0,0.0,0.0,0.0,0.0,0.0,0.0,0.0,0.0,0.0,0.0,0.0,0.0,0.0,0.0,0.0,0.0,0.0,0.0,0.0,0.0,0.0,0.0,0.0,0.0,0.0,0.0,0.0,0.0,0.0,0.0,0.0,0.0,0.0,0.0,0.0,0.0,0.0,0.0,0.0,0.0,0.0,0.0,0.0,0.0,0.0,0.0,0.0,0.0,0.0,0.0,0.0,0.0,0.0,0.0,0.0,-5.5511,-5.7203,-5.5626,-5.3857,0.0,0.0,0.0,0.0,0.0,0.0,0.0,0.0,0.0,0.0,0.0,0.0,0.0,0.0,0.0,0.0,0.0,0.0,0.0,0.0,0.0,0.0,0.0,0.0,0.0,0.0,0.0,0.0,0.0,0.0,0.0,0.0,0.0,0.0,0.0,0.0,0.0,0.0,0.0,0.0,0.0,0.0,0.0,0.0,0.0,0.0,0.0,0.0,0.0,0.0,0.0,0.0,0.0,0.0,0.0,0.0,0.0,0.0,0.0,0.0,0.0,0.0,0.0,0.0,0.0,0.0,0.0,0.0,0.0,0.0,0.0,0.0,0.0,0.0,0.0,0.0,0.0,0.0,0.0,0.0,0.0,0.0,0.0,0.0,0.0,0.0,0.0,0.0,0.0,0.0,0.0,0.0,0.0,0.0,0.0,0.0,0.0,0.0,0.0,0.0,0.0,0.0,0.0,0.0,0.0,0.0,0.0,0.0,0.0,0.0,-5.4829,-5.5934,-5.6357,-5.5472,-5.3895,-5.1664,0.0,0.0,0.0,0.0,0.0,0.0,0.0,0.0,0.0,0.0,0.0,0.0,0.0,0.0,0.0,0.0,0.0,0.0,0.0,0.0,0.0,0.0,0.0,0.0,0.0,0.0,0.0,0.0,0.0,0.0,0.0,0.0,0.0,0.0,0.0,0.0,0.0,0.0,0.0,0.0,0.0,0.0,0.0,0.0,0.0,0.0,0.0,0.0,0.0,0.0,0.0,0.0,0.0,0.0,0.0,0.0,0.0,0.0,0.0,0.0,0.0,0.0,0.0,0.0,0.0,0.0,0.0,0.0,0.0,0.0,0.0,0.0,0.0,0.0,0.0,0.0,0.0,0.0,0.0,0.0,0.0,0.0,0.0,0.0,0.0,0.0,0.0,0.0,0.0,0.0,0.0,0.0,0.0,0.0,0.0,0.0,0.0,0.0,0.0,0.0,0.0,0.0,0.0,0.0,0.0,0.0,0.0,0.0,0.0,-5.6819,-5.6511,-5.8165,-5.8819,-5.6549,0.0,0.0,0.0,0.0,0.0,0.0,0.0,0.0,0.0,0.0,0.0,0.0,0.0,0.0,0.0,0.0,0.0,0.0,0.0,0.0,0.0,0.0,0.0,0.0,0.0,0.0,0.0,0.0,0.0,0.0,0.0,0.0,0.0,0.0,0.0,0.0,0.0,0.0,0.0,0.0,0.0,0.0,0.0,0.0,0.0,0.0,0.0,0.0,0.0,0.0,0.0,0.0,0.0,0.0,0.0,0.0,0.0,0.0,0.0,0.0,0.0,0.0,0.0,0.0,0.0,0.0,0.0,0.0,0.0,0.0,0.0,0.0,0.0,0.0,0.0,0.0,0.0,0.0,0.0,0.0,0.0,0.0,0.0,0.0,0.0,0.0,0.0,0.0,0.0,0.0,0.0,0.0,0.0,0.0,0.0,0.0,0.0,0.0,0.0,0.0,0.0,0.0,0.0,0.0,0.0,0.0,0.0,0.0,0.0,-5.2933,-5.4241,-5.7049,-6.1127,-5.7088,-5.4164,0.0,0.0,0.0,0.0,0.0,0.0,0.0,0.0,0.0,0.0,0.0,0.0,0.0,0.0,0.0,0.0,0.0,0.0,0.0,0.0,0.0,0.0,0.0,0.0,0.0,0.0,0.0,0.0,0.0,0.0,0.0,0.0,0.0,0.0,0.0,0.0,0.0,0.0,0.0,0.0,0.0,0.0,0.0,0.0,0.0,0.0,0.0,0.0,0.0,0.0,0.0,0.0,0.0,0.0,0.0,0.0,0.0,0.0,0.0,0.0,0.0,0.0,0.0,0.0,0.0,0.0,0.0,0.0,0.0,0.0,0.0,0.0,0.0,0.0,0.0,0.0,0.0,0.0,0.0,0.0,0.0,0.0,0.0,0.0,0.0,0.0,0.0,0.0,0.0,0.0,0.0,0.0,0.0,0.0,0.0,0.0,0.0,0.0,0.0,0.0,0.0,0.0,0.0,0.0,0.0,0.0,0.0,0.0,0.0,-5.1856,0.0,-5.8396,-6.0885,-5.628,-5.3087,0.0,0.0,0.0,0.0,0.0,0.0,0.0,0.0,0.0,0.0,0.0,0.0,0.0,0.0,0.0,0.0,0.0,0.0,0.0,0.0,0.0,0.0,0.0,0.0,0.0,0.0,0.0,0.0,0.0,0.0,0.0,0.0,0.0,0.0,0.0,0.0,0.0,0.0,0.0,0.0,0.0,0.0,0.0,0.0,0.0,0.0,0.0,0.0,0.0,0.0,0.0,0.0,0.0,0.0,0.0,0.0,0.0,0.0,0.0,0.0,0.0,0.0,0.0,0.0,0.0,0.0,0.0,0.0,0.0,0.0,0.0,0.0,0.0,0.0,0.0,0.0,0.0,0.0,0.0,0.0,0.0,0.0,0.0,0.0,0.0,0.0,0.0,0.0,0.0,0.0,0.0,0.0,0.0,0.0,0.0,0.0,0.0,0.0,0.0,0.0,0.0,0.0,0.0,0.0,0.0,0.0,0.0,0.0,-5.1038,-5.6692,-6.0089,-6.0358,-5.7308,-5.6934,-5.3741,0.0,0.0,0.0,0.0,0.0,0.0,0.0,0.0,0.0,0.0,0.0,0.0,0.0,0.0,0.0,0.0,0.0,0.0,0.0,0.0,0.0,0.0,0.0,0.0,0.0,0.0,0.0,0.0,0.0,0.0,0.0,0.0,0.0,0.0,0.0,0.0,0.0,0.0,0.0,0.0,0.0,0.0,0.0,0.0,0.0,0.0,0.0,0.0,0.0,0.0,0.0,0.0,0.0,0.0,0.0,0.0,0.0,0.0,0.0,0.0,0.0,0.0,0.0,0.0,0.0,0.0,0.0,0.0,0.0,0.0,0.0,0.0,0.0,0.0,0.0,0.0,0.0,0.0,0.0,0.0,0.0,0.0,0.0,0.0,0.0,0.0,0.0,0.0,0.0,0.0,0.0,0.0,0.0,0.0,0.0,0.0,0.0,0.0,0.0,0.0,0.0,0.0,0.0,0.0,0.0,0.0,0.0,0.0,0.0,-5.528,-5.805,-6.0666,-6.2781,-5.6857,-5.3626,0.0,0.0,0.0,0.0,0.0,0.0,0.0,0.0,0.0,0.0,0.0,0.0,0.0,0.0,0.0,0.0,0.0,0.0,0.0,0.0,0.0,0.0,0.0,0.0,0.0,0.0,0.0,0.0,0.0,0.0,0.0,0.0,0.0,0.0,0.0,0.0,0.0,0.0,0.0,0.0,0.0,0.0,0.0,0.0,0.0,0.0,0.0,0.0,0.0,0.0,0.0,0.0,0.0,0.0,0.0,0.0,0.0,0.0,0.0,0.0,0.0,0.0,0.0,0.0,0.0,0.0,0.0,0.0,0.0,0.0,0.0,0.0,0.0,0.0,0.0,0.0,0.0,0.0,0.0,0.0,0.0,0.0,0.0,0.0,0.0,0.0,0.0,0.0,0.0,0.0,0.0,0.0,0.0,0.0,0.0,0.0,0.0,0.0,0.0,0.0,0.0,0.0,0.0,0.0,0.0,0.0,0.0,0.0,0.0,-5.7819,-6.0281,-6.2627,-6.4859,-5.8011,-5.4395,-5.4483,0.0,0.0,0.0,0.0,0.0,0.0,0.0,0.0,0.0,0.0,0.0,0.0,0.0,0.0,0.0,0.0,0.0,0.0,0.0,0.0,0.0,0.0,0.0,0.0,0.0,0.0,0.0,0.0,0.0,0.0,0.0,0.0,0.0,0.0,0.0,0.0,0.0,0.0,0.0,0.0,0.0,0.0,0.0,0.0,0.0,0.0,0.0,0.0,0.0,0.0,0.0,0.0,0.0,0.0,0.0,0.0,0.0,0.0,0.0,0.0,0.0,0.0,0.0,0.0,0.0,0.0,0.0,0.0,0.0,0.0,0.0,0.0,0.0,0.0,0.0,0.0,0.0,0.0,0.0,0.0,0.0,0.0,0.0,0.0,0.0,0.0,0.0,0.0,0.0,0.0,0.0,0.0,0.0,0.0,0.0,0.0,0.0,0.0,0.0,0.0,0.0,0.0,0.0,0.0,0.0,0.0,0.0,0.0,-6.3474,-6.6051,-6.6205,-6.3897,-6.0319,-5.6126,0.0,0.0,0.0,0.0,0.0,0.0,0.0,0.0,0.0,0.0,0.0,0.0,0.0,0.0,0.0,0.0,0.0,0.0,0.0,0.0,0.0,0.0,0.0,0.0,0.0,0.0,0.0,0.0,0.0,0.0,0.0,0.0,0.0,0.0,0.0,0.0,0.0,0.0,0.0,0.0,0.0,0.0,0.0,0.0,0.0,0.0,0.0,0.0,0.0,0.0,0.0,0.0,0.0,0.0,0.0,0.0,0.0,0.0,0.0,0.0,0.0,0.0,0.0,0.0,0.0,0.0,0.0,0.0,0.0,0.0,0.0,0.0,0.0,0.0,0.0,0.0,0.0,0.0,0.0,0.0,0.0,0.0,0.0,0.0,0.0,0.0,0.0,0.0,0.0,0.0,0.0,0.0,0.0,0.0,0.0,0.0,0.0,0.0,0.0,0.0,0.0,0.0,0.0,0.0,0.0,0.0,0.0,0.0,0.0,-6.5974,-6.9206,-7.0244,-6.8821,-6.3205,-5.8934,0.0,0.0,0.0,0.0,0.0,0.0,0.0,0.0,0.0,0.0,0.0,0.0,0.0,0.0,0.0,0.0,0.0,0.0,0.0,0.0,0.0,0.0,0.0,0.0,0.0,0.0,0.0,0.0,0.0,0.0,0.0,0.0,0.0,0.0,0.0,0.0,0.0,0.0,0.0,0.0,0.0,0.0,0.0,0.0,0.0,0.0,0.0,0.0,0.0,0.0,0.0,0.0,0.0,0.0,0.0,0.0,0.0,0.0,0.0,0.0,0.0,0.0,0.0,0.0,0.0,0.0,0.0,0.0,0.0,0.0,0.0,0.0,0.0,0.0,0.0,0.0,0.0,0.0,0.0,0.0,0.0,0.0,0.0,0.0,0.0,0.0,0.0,0.0,0.0,0.0,0.0,0.0,0.0,0.0,0.0,0.0,0.0,0.0,0.0,0.0,0.0,0.0,0.0,0.0,0.0,0.0,0.0,0.0,-6.3397,-6.8129,-7.1514,-7.286,-7.2014,-6.6821,-6.2012,0.0,0.0,0.0,0.0,0.0,0.0,0.0,0.0,0.0,0.0,0.0,0.0,0.0,0.0,0.0,0.0,0.0,0.0,0.0,0.0,0.0,0.0,0.0,0.0,0.0,0.0,0.0,0.0,0.0,0.0,0.0,0.0,0.0,0.0,0.0,0.0,0.0,0.0,0.0,0.0,0.0,0.0,0.0,0.0,0.0,0.0,0.0,0.0,0.0,0.0,0.0,0.0,0.0,0.0,0.0,0.0,0.0,0.0,0.0,0.0,0.0,0.0,0.0,0.0,0.0,0.0,0.0,0.0,0.0,0.0,0.0,0.0,0.0,0.0,0.0,0.0,0.0,0.0,0.0,0.0,0.0,0.0,0.0,0.0,0.0,0.0,0.0,0.0,0.0,0.0,0.0,0.0,0.0,0.0,0.0,0.0,0.0,0.0,0.0,0.0,0.0,0.0,0.0,0.0,0.0,0.0,0.0,0.0,-6.559,-6.9744,-7.3091,-7.4437,-7.3538,-7.0129,-6.482,0.0,0.0,0.0,0.0,0.0,0.0,0.0,0.0,0.0,0.0,0.0,0.0,0.0,0.0,0.0,0.0,0.0,0.0,0.0,0.0,0.0,0.0,0.0,0.0,0.0,0.0,0.0,0.0,0.0,0.0,0.0,0.0,0.0,0.0,0.0,0.0,0.0,0.0,0.0,0.0,0.0,0.0,0.0,0.0,0.0,0.0,0.0,0.0,0.0,0.0,0.0,0.0,0.0,0.0,0.0,0.0,0.0,0.0,0.0,0.0,0.0,0.0,0.0,0.0,0.0,0.0,0.0,0.0,0.0,0.0,0.0,0.0,0.0,0.0,0.0,0.0,0.0,0.0,0.0,0.0,0.0,0.0,0.0,0.0,0.0,0.0,0.0,0.0,0.0,0.0,0.0,0.0,0.0,0.0,0.0,0.0,0.0,0.0,0.0,0.0,0.0,0.0,0.0,0.0,0.0,0.0,0.0,0.0,-6.7051,-7.0591,-7.3976,-7.5322,-7.4476,-6.986,-6.4705,0.0,0.0,0.0,0.0,0.0,0.0,0.0,0.0,0.0,0.0,0.0,0.0,0.0,0.0,0.0,0.0,0.0,0.0,0.0,0.0,0.0,0.0,0.0,0.0,0.0,0.0,0.0,0.0,0.0,0.0,0.0,0.0,0.0,0.0,0.0,0.0,0.0,0.0,0.0,0.0,0.0,0.0,0.0,0.0,0.0,0.0,0.0,0.0,-4.5223,0.0,0.0,0.0,0.0,0.0,0.0,0.0,0.0,0.0,0.0,0.0,0.0,0.0,0.0,0.0,0.0,0.0,0.0,0.0,0.0,0.0,0.0,0.0,0.0,0.0,0.0,0.0,0.0,0.0,0.0,0.0,0.0,0.0,0.0,0.0,0.0,0.0,0.0,0.0,0.0,0.0,0.0,0.0,0.0,0.0,0.0,0.0,0.0,0.0,0.0,0.0,0.0,0.0,0.0,0.0,0.0,0.0,0.0,0.0,-6.809,-7.1437,-7.4437,-7.5592,-7.463,-7.0552,-6.5743,0.0,0.0,0.0,0.0,0.0,0.0,0.0,0.0,0.0,0.0,0.0,0.0,0.0,0.0,0.0,0.0,0.0,0.0,0.0,0.0,0.0,0.0,0.0,0.0,0.0,0.0,0.0,0.0,0.0,0.0,0.0,0.0,0.0,0.0,0.0,0.0,0.0,0.0,0.0,0.0,0.0,0.0,0.0,0.0,0.0,0.0,0.0,0.0,0.0,0.0,0.0,0.0,0.0,0.0,0.0,0.0,0.0,0.0,0.0,0.0,0.0,0.0,0.0,0.0,0.0,0.0,0.0,0.0,0.0,0.0,0.0,0.0,0.0,0.0,0.0,0.0,0.0,0.0,0.0,0.0,0.0,0.0,0.0,0.0,0.0,0.0,0.0,0.0,0.0,0.0,0.0,0.0,0.0,0.0,0.0,0.0,0.0,0.0,0.0,0.0,0.0,0.0,0.0,0.0,0.0,0.0,0.0,-6.3743,-6.8552,-7.2283,-7.463,-7.5399,-7.4514,-7.1398,-6.6898,-6.105,0.0,0.0,0.0,0.0,0.0,0.0,0.0,0.0,0.0,0.0,0.0,0.0,0.0,0.0,0.0,0.0,0.0,0.0,0.0,0.0,0.0,0.0,0.0,0.0,0.0,0.0,0.0,0.0,0.0,0.0,0.0,0.0,0.0,0.0,0.0,0.0,0.0,0.0,-4.44,-4.6315,0.0,0.0,0.0,0.0,0.0,0.0,0.0,0.0,-4.559,0.0,0.0,0.0,0.0,0.0,0.0,0.0,0.0,0.0,0.0,0.0,0.0,0.0,0.0,0.0,0.0,0.0,0.0,0.0,0.0,0.0,0.0,0.0,0.0,0.0,0.0,0.0,0.0,0.0,0.0,0.0,0.0,0.0,0.0,0.0,0.0,0.0,0.0,0.0,0.0,0.0,0.0,0.0,0.0,0.0,0.0,0.0,0.0,0.0,0.0,0.0,0.0,0.0,0.0,0.0,0.0,-6.2154,-6.4089,-6.7705,-7.3129,-7.4361,-7.4514,-7.3668,-7.1091,-6.6898,-6.105,0.0,0.0,0.0,0.0,0.0,0.0,0.0,0.0,0.0,0.0,0.0,0.0,0.0,0.0,0.0,0.0,0.0,0.0,0.0,0.0,0.0,0.0,0.0,0.0,0.0,0.0,0.0,0.0,0.0,0.0,0.0,0.0,0.0,0.0,0.0,0.0,0.0,0.0,0.0,-4.8896,-5.0022,0.0,0.0,0.0,0.0,0.0,0.0,0.0,0.0,-4.5883,0.0,0.0,0.0,0.0,0.0,0.0,0.0,0.0,0.0,0.0,0.0,0.0,0.0,0.0,0.0,0.0,0.0,0.0,0.0,0.0,0.0,0.0,0.0,0.0,0.0,0.0,0.0,0.0,0.0,0.0,0.0,0.0,0.0,0.0,0.0,0.0,0.0,0.0,0.0,0.0,0.0,0.0,0.0,0.0,0.0,0.0,0.0,0.0,0.0,0.0,0.0,0.0,0.0,0.0,0.0,-6.055,-6.4538,-6.859,-7.2668,-7.4053,-7.4091,-7.2783,-6.909,-6.5089,0.0,0.0,0.0,0.0,0.0,0.0,0.0,0.0,0.0,0.0,0.0,0.0,0.0,0.0,0.0,0.0,0.0,0.0,0.0,0.0,0.0,0.0,0.0,0.0,0.0,0.0,0.0,0.0,0.0,0.0,0.0,0.0,0.0,0.0,0.0,0.0,0.0,0.0,0.0,0.0,-4.9598,-5.0488,-4.9991,0.0,0.0,0.0,0.0,0.0,0.0,-4.6617,-4.5847,0.0,0.0,0.0,0.0,0.0,0.0,0.0,0.0,0.0,0.0,0.0,0.0,0.0,0.0,0.0,0.0,0.0,0.0,0.0,0.0,0.0,0.0,0.0,0.0,0.0,0.0,0.0,0.0,0.0,0.0,0.0,0.0,0.0,0.0,0.0,0.0,0.0,0.0,0.0,0.0,0.0,0.0,0.0,0.0,0.0,0.0,0.0,0.0,0.0,0.0,0.0,0.0,0.0,0.0,0.0,-5.8357,-6.4282,-6.8975,-7.2052,-7.3514,-7.3476,-7.1898,-6.7475,-6.3589,0.0,0.0,0.0,0.0,0.0,0.0,0.0,0.0,0.0,0.0,0.0,0.0,0.0,0.0,0.0,0.0,0.0,0.0,0.0,0.0,0.0,0.0,0.0,0.0,0.0,0.0,0.0,0.0,0.0,0.0,0.0,0.0,0.0,0.0,0.0,0.0,0.0,0.0,0.0,0.0,0.0,-5.1065,-5.1231,-5.0581,0.0,0.0,0.0,0.0,-4.7957,-4.7535,0.0,0.0,0.0,0.0,0.0,0.0,0.0,0.0,0.0,0.0,0.0,0.0,0.0,0.0,0.0,0.0,0.0,0.0,0.0,0.0,0.0,0.0,0.0,0.0,0.0,0.0,0.0,0.0,0.0,0.0,0.0,0.0,0.0,0.0,0.0,0.0,0.0,0.0,0.0,0.0,0.0,0.0,0.0,0.0,0.0,0.0,0.0,0.0,0.0,0.0,0.0,0.0,0.0,0.0,0.0,0.0,-5.8204,-6.1962,-6.659,-7.186,-7.2399,-7.2014,-7.1052,-6.8282,-6.4205,0.0,0.0,0.0,0.0,0.0,0.0,0.0,0.0,0.0,0.0,0.0,0.0,0.0,0.0,0.0,0.0,0.0,0.0,0.0,0.0,0.0,0.0,0.0,0.0,0.0,0.0,0.0,0.0,0.0,0.0,0.0,0.0,0.0,0.0,0.0,0.0,0.0,0.0,0.0,0.0,0.0,-5.3162,-5.114,-5.1357,-5.1389,0.0,0.0,-4.9627,-5.1206,-5.1353,0.0,0.0,0.0,0.0,0.0,0.0,0.0,0.0,0.0,0.0,0.0,0.0,0.0,0.0,0.0,0.0,0.0,0.0,0.0,0.0,0.0,0.0,0.0,0.0,0.0,0.0,0.0,0.0,0.0,0.0,0.0,0.0,0.0,0.0,0.0,0.0,0.0,0.0,0.0,0.0,0.0,0.0,0.0,0.0,0.0,0.0,0.0,0.0,0.0,0.0,0.0,0.0,0.0,0.0,0.0,-5.328,-5.8242,-6.3012,-6.7398,-7.1283,-7.1937,-7.1552,-7.0244,-6.6359,-6.2397,0.0,0.0,0.0,0.0,0.0,0.0,0.0,0.0,0.0,0.0,0.0,0.0,0.0,0.0,0.0,0.0,0.0,0.0,0.0,0.0,0.0,0.0,0.0,0.0,0.0,0.0,0.0,0.0,0.0,0.0,0.0,0.0,0.0,0.0,0.0,0.0,0.0,0.0,0.0,0.0,0.0,0.0,-5.2784,-5.2747,0.0,0.0,0.0,-5.1316,-5.2491,0.0,0.0,0.0,0.0,0.0,0.0,0.0,0.0,0.0,0.0,0.0,0.0,0.0,0.0,0.0,0.0,0.0,0.0,0.0,0.0,0.0,0.0,0.0,0.0,0.0,0.0,0.0,0.0,0.0,0.0,0.0,0.0,0.0,0.0,0.0,0.0,0.0,0.0,0.0,0.0,0.0,0.0,0.0,0.0,0.0,0.0,0.0,0.0,0.0,0.0,0.0,0.0,0.0,0.0,0.0,0.0,0.0,-5.7973,-6.3782,-6.8052,-7.0514,-7.1245,-7.086,-6.936,-6.5051,0.0,0.0,0.0,0.0,0.0,0.0,0.0,0.0,0.0,0.0,0.0,0.0,0.0,0.0,0.0,0.0,0.0,0.0,0.0,0.0,0.0,0.0,0.0,0.0,0.0,0.0,0.0,-3.8006,0.0,0.0,0.0,0.0,0.0,0.0,0.0,0.0,0.0,0.0,0.0,0.0,0.0,0.0,-5.183,-5.3812,-5.3922,-5.4106,0.0,0.0,-5.3041,-5.3445,-5.2821,-5.1389,0.0,0.0,0.0,0.0,0.0,0.0,0.0,0.0,0.0,0.0,0.0,0.0,0.0,0.0,0.0,0.0,0.0,0.0,0.0,0.0,0.0,0.0,0.0,0.0,0.0,0.0,0.0,0.0,0.0,0.0,0.0,0.0,0.0,0.0,0.0,0.0,0.0,0.0,0.0,0.0,0.0,0.0,0.0,0.0,0.0,0.0,0.0,0.0,0.0,0.0,0.0,0.0,0.0,0.0,0.0,-5.7154,-6.2935,-6.7205,-6.9667,-6.9821,-6.9436,-6.8475,-6.5859,-6.1743,0.0,0.0,0.0,0.0,0.0,0.0,0.0,0.0,0.0,0.0,0.0,0.0,0.0,0.0,0.0,0.0,0.0,0.0,0.0,0.0,0.0,0.0,0.0,0.0,0.0,0.0,0.0,0.0,0.0,0.0,0.0,0.0,0.0,0.0,0.0,0.0,0.0,0.0,0.0,0.0,0.0,-5.2234,-5.3151,-5.4509,-5.5721,0.0,0.0,-5.5133,-5.4436,-5.5464,-5.4583,-4.9187,0.0,0.0,0.0,0.0,0.0,0.0,0.0,0.0,0.0,0.0,0.0,0.0,0.0,0.0,0.0,0.0,0.0,0.0,0.0,0.0,0.0,0.0,0.0,0.0,0.0,0.0,0.0,0.0,0.0,0.0,0.0,0.0,0.0,0.0,0.0,0.0,0.0,0.0,0.0,0.0,0.0,0.0,0.0,0.0,0.0,0.0,0.0,0.0,0.0,0.0,0.0,0.0,0.0,-5.3087,-5.6973,-6.2358,-6.632,-6.8783,-6.8898,-6.8475,-6.7628,-6.5667,-6.205,0.0,0.0,0.0,0.0,0.0,0.0,0.0,0.0,0.0,0.0,0.0,0.0,0.0,0.0,0.0,0.0,0.0,0.0,0.0,0.0,0.0,0.0,0.0,0.0,0.0,0.0,0.0,0.0,-4.001,-3.9533,-3.9019,0.0,0.0,0.0,0.0,0.0,0.0,0.0,0.0,0.0,0.0,-5.2637,-5.4436,-5.5611,0.0,0.0,-5.6859,-5.6235,-5.5941,-5.473,-5.2747,-4.9554,-4.7131,0.0,0.0,0.0,0.0,0.0,0.0,0.0,0.0,0.0,0.0,0.0,0.0,0.0,0.0,0.0,0.0,0.0,0.0,0.0,0.0,0.0,0.0,0.0,0.0,0.0,0.0,0.0,0.0,0.0,0.0,0.0,0.0,0.0,0.0,0.0,0.0,0.0,0.0,0.0,0.0,0.0,0.0,0.0,0.0,0.0,0.0,0.0,0.0,0.0,0.0,0.0,0.0,-5.2674,-5.6599,-6.1897,-6.5705,-6.7975,-6.8013,-6.7705,-6.709,-6.5205,-6.205,0.0,0.0,0.0,0.0,0.0,0.0,0.0,0.0,0.0,0.0,0.0,0.0,0.0,0.0,0.0,0.0,0.0,0.0,0.0,0.0,0.0,0.0,0.0,0.0,0.0,0.0,0.0,0.0,-4.0634,-3.9717,-3.8909,0.0,0.0,0.0,0.0,0.0,0.0,0.0,0.0,0.0,0.0,-5.3041,-5.495,-5.6124,-5.6895,-5.7226,-5.6785,-5.6271,-5.5794,-5.4032,-5.1903,-4.9517,0.0,0.0,0.0,0.0,0.0,0.0,0.0,0.0,0.0,0.0,0.0,0.0,0.0,0.0,0.0,0.0,0.0,0.0,0.0,0.0,0.0,0.0,0.0,0.0,0.0,0.0,0.0,0.0,0.0,0.0,0.0,0.0,0.0,0.0,0.0,0.0,0.0,0.0,0.0,0.0,0.0,0.0,0.0,0.0,0.0,0.0,0.0,0.0,0.0,0.0,0.0,0.0,0.0,-5.2405,-5.5742,-6.1589,-6.5397,-6.7051,-6.7128,-6.7051,-6.6974,-6.4666,-6.1704,-5.828,0.0,0.0,0.0,0.0,0.0,0.0,0.0,0.0,0.0,0.0,0.0,0.0,0.0,0.0,0.0,0.0,0.0,0.0,0.0,0.0,0.0,0.0,0.0,0.0,0.0,0.0,-3.9974,-3.8557,-3.7345,0.0,0.0,0.0,0.0,0.0,0.0,0.0,0.0,0.0,0.0,-5.1096,-5.3482,-5.4326,-5.5794,-5.6565,-5.5831,-5.5684,-5.5097,-5.3644,-5.3885,-5.3004,0.0,0.0,0.0,0.0,0.0,0.0,0.0,0.0,0.0,0.0,0.0,0.0,0.0,0.0,0.0,0.0,0.0,0.0,0.0,0.0,0.0,0.0,0.0,0.0,0.0,0.0,0.0,-5.328,-5.0682,0.0,0.0,0.0,0.0,0.0,0.0,0.0,0.0,0.0,0.0,0.0,-5.7896,-5.955,0.0,0.0,0.0,0.0,0.0,0.0,0.0,0.0,0.0,0.0,0.0,0.0,-5.3164,-5.6599,-6.132,-6.4589,-6.6205,-6.5743,-6.5436,-6.5397,-6.3551,-6.0396,-5.5895,0.0,0.0,0.0,0.0,0.0,0.0,0.0,0.0,0.0,0.0,0.0,0.0,0.0,0.0,0.0,0.0,0.0,0.0,0.0,0.0,0.0,0.0,0.0,0.0,0.0,-3.9863,0.0,0.0,0.0,0.0,0.0,0.0,0.0,0.0,0.0,0.0,0.0,-4.7829,-4.9738,-5.2307,-5.4106,-5.4363,-5.5794,-5.6712,0.0,0.0,0.0,0.0,0.0,0.0,0.0,0.0,0.0,0.0,0.0,0.0,0.0,0.0,-4.8544,-4.2947,-4.1479,-4.1242,-4.1792,0.0,0.0,0.0,0.0,0.0,0.0,0.0,0.0,0.0,0.0,0.0,0.0,0.0,0.0,-5.678,0.0,-5.3656,0.0,0.0,0.0,0.0,0.0,0.0,0.0,0.0,-6.0319,-6.2054,-6.194,-6.3758,-6.3207,0.0,-5.9957,-5.6879,0.0,0.0,0.0,0.0,0.0,0.0,0.0,0.0,-5.3587,-5.7022,-6.0896,-6.3589,-6.4897,-6.4436,-6.4166,-6.4128,-6.2512,-5.9665,-5.5511,-5.2664,-5.0125,0.0,0.0,0.0,0.0,0.0,0.0,0.0,0.0,0.0,0.0,0.0,0.0,0.0,0.0,0.0,0.0,0.0,0.0,0.0,0.0,0.0,0.0,0.0,-4.0084,0.0,0.0,0.0,0.0,0.0,0.0,0.0,0.0,0.0,-4.5425,-4.7902,-5.0178,-5.183,-5.3665,-5.4693,-5.4436,0.0,0.0,0.0,0.0,0.0,0.0,0.0,-5.227,-5.172,-5.0305,-4.9277,-4.9481,-5.1132,-5.1977,-5.0618,0.0,0.0,-4.6195,-4.4856,-4.4672,-4.5149,-4.5883,-4.6397,-4.6397,-4.7443,-4.8233,0.0,0.0,0.0,0.0,0.0,0.0,0.0,0.0,-6.0012,-6.0358,0.0,-5.7796,0.0,0.0,0.0,0.0,0.0,0.0,0.0,0.0,-6.4743,-6.6863,-6.6443,-6.6891,-6.6441,-6.5137,-6.5454,-6.3168,-5.8312,-5.2996,0.0,0.0,0.0,0.0,0.0,0.0,-5.3682,-5.7077,-6.0385,-6.25,-6.3308,-6.3269,-6.3243,-6.3154,-6.1627,-5.9627,-5.7192,-5.5472,-5.3049,-4.9702,-4.7095,0.0,0.0,0.0,0.0,0.0,0.0,0.0,0.0,0.0,0.0,0.0,0.0,0.0,0.0,0.0,0.0,0.0,0.0,0.0,0.0,-4.0634,0.0,0.0,0.0,0.0,0.0,0.0,0.0,0.0,0.0,0.0,-4.7516,-5.0141,-5.2674,-5.4179,0.0,0.0,0.0,0.0,-5.5376,-5.4656,-5.5133,-5.539,-5.462,-5.506,-5.495,-5.3518,0.0,0.0,-5.0161,-5.1683,-5.2491,-5.0198,-5.1116,-5.227,-5.2894,-5.1426,-5.0508,-5.0545,-4.9958,-4.9684,-4.9684,-5.0178,-5.0802,-6.8507,0.0,0.0,0.0,0.0,-6.5205,-6.632,-6.8513,-6.7898,-6.6436,-6.4346,-6.2637,0.0,0.0,0.0,0.0,0.0,0.0,-6.232,-6.4166,-6.6821,-6.8268,-6.8733,-6.8883,-6.8206,-6.6815,-6.547,-6.3937,-6.2089,-5.8448,-5.3764,-4.8221,0.0,0.0,0.0,0.0,-5.6116,-5.827,-6.0464,-6.2169,-6.3269,-6.2743,-6.2127,-6.155,-6.105,-6.0165,-5.8819,-5.778,-5.5934,-5.3164,-5.001,0.0,0.0,0.0,0.0,0.0,0.0,0.0,0.0,0.0,0.0,0.0,0.0,0.0,0.0,0.0,0.0,0.0,0.0,0.0,-4.0581,-4.0965,-4.1132,0.0,0.0,0.0,0.0,0.0,0.0,0.0,0.0,0.0,-5.2123,-5.3592,-5.4509,0.0,0.0,-5.5941,-5.4583,-5.5574,-5.6381,-5.6161,0.0,0.0,0.0,-5.5354,-5.4803,-5.4876,-5.4913,-5.4289,-5.2491,-5.3225,-5.3665,-5.238,-5.2527,-5.2931,-5.3041,-5.1903,-5.0912,-5.0839,-5.1059,-5.1279,-5.1353,-5.194,-5.2491,-7.3506,-7.0701,-6.8583,-6.824,-6.9148,-6.8916,-6.9911,-7.182,-7.1521,-7.0546,-6.8967,-6.7233,-6.4517,-6.1044,-5.9243,0.0,0.0,0.0,-6.5089,-6.6936,-6.8282,-6.924,-6.9802,-6.9753,-6.8973,-6.7556,-6.614,-6.5016,-6.4102,-6.2262,-5.8279,-5.2374,0.0,0.0,-5.1827,-5.4596,-5.6943,-5.8754,-6.0179,-6.1333,-6.2269,-6.182,-6.1331,-6.0819,-6.0781,-6.0396,-5.955,-5.8742,-5.728,-5.5049,-5.2049,-4.8856,0.0,0.0,0.0,0.0,0.0,0.0,0.0,0.0,0.0,0.0,0.0,-3.7566,-3.5459,0.0,0.0,0.0,-3.9166,-4.1111,-4.2396,-4.3076,0.0,0.0,0.0,0.0,0.0,0.0,0.0,-4.9481,-5.1756,-5.3592,-5.473,-5.5831,-5.6381,-5.5904,-5.6381,-5.6455,-5.55,0.0,-5.6785,-5.6785,-5.7079,-5.7262,-5.7262,-5.6492,-5.5794,-5.5611,-5.5317,-5.4693,-5.3497,-5.3607,-5.3739,-5.335,-5.3203,-5.3203,-5.3203,-5.2417,-5.1756,-5.1756,-5.2123,-5.2454,-5.2491,-5.2894,-5.3203,-7.7452,-7.645,-7.2123,-7.056,-7.099,-7.154,-7.1755,-7.1735,-7.2264,-7.3024,-7.3718,-7.1405,-6.9365,-6.7518,-6.492,0.0,0.0,-6.659,-6.7744,-6.8629,-6.9398,-6.9894,-7.009,-6.9725,-6.8814,-6.7512,-6.7113,-6.6102,-6.4693,-6.4539,-6.2603,-5.8846,-5.6601,-5.5791,-5.6286,-5.604,-5.6926,-5.8907,-5.9655,-6.0297,-6.0808,-6.0781,-6.0742,-6.0704,-6.0704,-6.0242,-5.9319,-5.8588,-5.7396,-5.5665,-5.3241,-5.0423,-4.7231,0.0,0.0,0.0,0.0,0.0,0.0,0.0,0.0,0.0,0.0,0.0,0.0,0.0,0.0,0.0,-4.2303,0.0,-4.4801,-4.6232,0.0,0.0,0.0,-4.6581,-4.759,-4.9644,-5.1316,-5.2197,0.0,0.0,0.0,0.0,-5.7997,-5.7997,-5.7373,-5.6859,-5.6822,-5.6859,-5.6895,-5.6932,-5.7519,-5.7923,-5.774,-5.7593,-5.6969,-5.5647,-5.4876,-5.4179,-5.3387,-5.3203,-5.3203,-5.3203,-5.3203,-5.3203,-5.3203,-5.313,-5.3167,-5.3093,-5.313,-5.3167,-5.313,-5.3167,-5.3203,-7.7627,-7.7812,-7.6696,-7.6098,-7.5913,-7.5863,-7.5611,-7.5165,-7.5104,-7.4635,-7.385,-7.3038,-7.1372,-6.9107,-6.7768,-6.7667,-6.8513,-6.8898,-6.9513,-7.0283,-7.0514,-7.0431,-7.0035,-6.8722,-6.7702,-6.6957,-6.5646,-6.5014,-6.497,-6.432,-6.3699,-6.3014,-6.095,-5.8692,-5.6439,-5.7775,-5.8927,-5.9798,-5.9646,-5.9962,-6.0757,-6.0781,-6.0473,-5.9819,-5.9819,-5.9127,-5.7665,-5.7407,-5.6522,-5.4857,-5.2933,-5.0962,-4.8894,-4.4778,0.0,0.0,0.0,0.0,0.0,0.0,0.0,0.0,0.0,-4.0928,-3.689,0.0,-4.1956,0.0,-4.3938,-4.5663,-4.6452,-4.6856,0.0,0.0,-4.9444,-4.9774,-5.2344,-5.2637,-5.3188,-5.4604,-5.5941,-5.6969,-5.7373,-5.774,-5.7997,-5.7997,-5.7813,-5.7519,-5.6932,-5.7336,-5.7703,-5.7703,-5.785,-5.7776,-5.7189,-5.6565,-5.5831,-5.484,-5.4509,-5.4142,-5.3314,-5.3203,-5.3203,-5.3203,-5.3203,-5.3203,-5.3203,-5.3203,-5.3203,-5.3203,-5.3203,-5.3203,-5.3203,-5.3203,-5.3203,-7.751,-7.7875,-7.8173,-7.8129,-7.7899,-7.7586,-7.702,-7.6404,-7.6101,-7.5402,-7.4366,-7.3237,-7.192,-7.0394,-6.9289,-6.9093,-6.9513,-6.9513,-6.9742,-7.0179,-7.0448,-7.0266,-6.9681,-6.8257,-6.7461,-6.7105,-6.5492,-6.4971,-6.5394,-6.4949,-6.4663,-6.4577,-6.3027,-6.1119,-5.8987,-5.9251,-5.9663,-6.0103,-6.0074,-6.0283,-6.0769,-6.0781,-6.0396,-5.955,-5.9511,-5.8511,-5.6472,-5.6434,-5.5472,-5.3433,-5.2087,-5.0779,-4.9433,-4.5937,-4.3465,0.0,0.0,0.0,0.0,0.0,0.0,0.0,0.0,0.0,0.0,0.0,-4.4195,0.0,-4.7205,0.0,-4.9718,-5.0472,-5.161,-5.3408,-5.2805,-5.3136,-5.5244,-5.5097,-5.528,-5.6528,-5.7042,-5.7483,-5.7923,-5.7997,-5.7997,-5.7997,-5.7997,-5.785,-5.7483,-5.774,-5.7997,-5.7997,-5.7703,-5.7189,-5.6381,-5.5574,-5.4913,-5.4473,-5.4106,-5.3702,-5.3277,-5.3203,-5.3203,-5.3203,-5.3203,-5.3203,-5.3203,-5.3203,-5.3203,-5.3203,-5.3203,-5.3203,-5.3203,-5.3203,-5.3203,-7.7335,-7.748,-7.8072,-7.8325,-7.8398,-7.7834,-7.7113,-7.6313,-7.6092,-7.567,-7.4958,-7.2848,-7.1711,-7.1363,-7.0005,-6.9413,-6.9413,-6.9472,-6.9511,-6.953,-7.0009,-6.9901,-6.9357,-6.8154,-6.7578,-6.7523,-6.59,-6.5388,-6.5897,-6.5897,-6.5474,-6.4589,-6.3705,-6.2897,-6.2077,-6.0433,-5.976,-6.0103,-6.0546,-6.0781,-6.0781,-6.0781,-6.0319,-5.9396,-5.9242,-5.7973,-5.5511,-5.5395,-5.4318,-5.2038,-5.1318,-5.0625,-4.974,-4.7012,-4.5049,0.0,-4.2875,0.0,0.0,0.0,0.0,0.0,0.0,0.0,0.0,-4.6544,-4.7388,-4.8673,-5.1022,-5.2674,-5.3277,-5.473,-5.5647,-5.5721,-5.5721,-5.6088,-5.6859,-5.6969,-5.7226,-5.7923,-5.7997,-5.7997,-5.7997,-5.7997,-5.7997,-5.7997,-5.7997,-5.796,-5.796,-5.7886,-5.7776,-5.785,-5.7079,-5.6161,-5.5537,-5.4766,-5.4216,-5.4142,-5.3702,-5.3203,-5.3203,-5.3203,-5.3203,-5.3203,-5.3203,-5.3203,-5.3203,-5.3203,-5.3203,-5.3203,-5.3203,-5.3203,-5.3203,-5.3203,-5.3203,-7.7592,-7.8128,-7.8255,-7.8588,-7.8931,-7.802,-7.6996,-7.6003,-7.5977,-7.5632,-7.4994,-7.3227,-7.2168,-7.163,-7.0477,-6.9936,-6.9954,-7.0378,-7.0608,-7.0608,-7.0719,-7.0463,-6.9877,-6.8345,-6.7578,-6.7485,-6.59,-6.5388,-6.5897,-6.5897,-6.5436,-6.4589,-6.3743,-6.2897,0.0,0.0,0.0,0.0,-6.0546,-6.0781,-6.0781,-6.0781,-6.0089,-5.8588,-5.7819,0.0,-5.3857,-5.3664,-5.3126,-5.2,-5.2433,0.0,0.0,0.0,0.0,0.0,0.0,0.0,0.0,0.0,0.0,0.0,-4.9797,-4.8526,-4.7113,-4.9865,-5.1683,-5.1389,-5.3482,-5.4693,-5.4216,-5.5023,-5.5868,-5.6492,-5.6565,-5.6895,-5.7666,-5.7776,-5.785,-5.796,-5.7997,-5.7997,-5.7997,-5.7997,-5.7997,-5.7997,-5.7997,-5.7997,-5.796,-5.7446,-5.7042,-5.6932,-5.5831,-5.4876,-5.4656,-5.3959,-5.3518,-5.3408,-5.3335,-5.3203,-5.3203,-5.3203,-5.3203,-5.3203,-5.3203,-5.3203,-5.3203,-5.3203,-5.3167,-5.3167,-5.3167,-5.3203,-5.3203,-5.3167,-5.3203,-7.748,0.0,-7.7826,-7.7913,0.0,-7.743,-7.6608,-7.5699,-7.5935,-7.5833,-7.5403,-7.3629,-7.2429,-7.1711,-7.0207,-6.9288,-6.8935,-6.921,-6.9295,-6.9335,-6.9391,-6.9165,-6.8616,-6.7528,-6.7006,-6.6881,-6.5441,-6.5019,-6.5475,-6.5527,-6.5053,-6.4211,-6.3617,-6.2897,-6.2101,-6.1243,-6.0671,-6.0418,-6.0671,-6.0781,-6.0781,-6.0781,-6.0204,-5.8934,0.0,0.0,0.0,0.0,0.0,0.0,0.0,0.0,0.0,0.0,0.0,-4.8649,-4.8945,-4.8882,-4.8435,-5.0545,-5.227,-5.3115,-5.3555,-5.2747,-5.0305,-5.238,-5.3959,-5.4363,-5.55,-5.6198,-5.6198,-5.6565,-5.6932,-5.7336,-5.7409,-5.7593,-5.7923,-5.7997,-5.7997,-5.7997,-5.7997,-5.7997,-5.7997,-5.7997,-5.7997,-5.7997,-5.7997,-5.785,-5.7446,-5.7079,-5.6602,-5.5757,-5.5023,-5.4252,-5.3849,-5.3518,-5.3203,-5.3203,-5.3203,-5.3203,-5.3203,-5.3203,-5.3203,-5.3203,-5.3203,-5.3203,-5.3203,-5.3203,-5.3078,-5.2711,-5.2601,-5.2454,-5.2197,-5.2637,-5.3203,-7.731,-7.7304,-7.742,-7.7229,-7.6844,-7.6832,-7.629,-7.5431,0.0,0.0,0.0,-7.3588,-7.23,-7.1519,-6.9644,-6.8462,-6.7863,-6.793,-6.7982,-6.7984,-6.8093,-6.7909,-6.747,-6.6833,-6.6491,-6.6383,-6.5234,-6.4782,-6.5099,-6.4962,-6.4419,-6.3496,-6.3124,-6.258,-6.1747,-6.1104,-6.0757,-6.0671,-6.0757,-6.0781,-6.0781,-6.0781,-6.0396,-5.9511,-5.8704,-5.755,-5.5972,-5.528,-5.4134,-5.2422,-5.2757,-5.2633,-5.1758,-5.1617,-5.1625,-5.1766,-5.2793,-5.3115,-5.2527,-5.4546,-5.5574,-5.506,-5.6235,-5.6124,-5.3974,-5.4583,-5.5574,-5.6932,-5.7005,-5.7262,-5.7923,-5.7997,-5.7997,-5.7997,-5.7997,-5.796,-5.7997,-5.7997,-5.7997,-5.7997,-5.7997,-5.7997,-5.7997,-5.7997,-5.7997,-5.7997,-5.7997,-5.7629,-5.6822,-5.6381,-5.5757,-5.4546,-5.4142,-5.3922,-5.3408,-5.3203,-5.3203,-5.3203,-5.3203,-5.3203,-5.3203,-5.3203,-5.3203,-5.3203,-5.3203,-5.3203,-5.3203,-5.3203,-5.2931,-5.216,-5.1997,-5.1756,-5.1132,-5.183,-5.2674,-7.731,-7.7335,-7.7903,-7.7393,-7.6309,-7.713,-7.658,-7.5152,-7.4708,-7.4789,-7.5068,-7.2438,-7.1213,-7.1027,-6.932,-6.848,-6.8416,-6.8884,-6.9085,0.0,-6.881,-6.8662,-6.8514,-6.7505,-6.6986,-6.6934,-6.6074,-6.5499,-6.5054,-6.439,-6.3416,-6.2263,-6.1827,-6.1234,-6.0485,-6.0648,-6.061,-6.0203,-6.0559,-6.0781,-6.0781,-6.0781,-6.0396,-5.9511,-5.8742,-5.7857,-5.6846,-5.6692,-5.6489,-5.6236,-5.6989,-5.6839,-5.5597,-5.5125,-5.4514,-5.3572,-5.3937,-5.4179,-5.4106,-5.5684,-5.6895,-5.7446,-5.7703,-5.7373,-5.6418,-5.7042,-5.7593,-5.7813,-5.7776,-5.785,-5.7997,-5.7997,-5.7997,-5.7997,-5.7997,-5.7997,-5.7997,-5.7997,-5.7997,-5.7997,-5.7997,-5.7997,-5.7997,-5.7997,-5.7997,-5.7997,-5.7813,-5.7409,-5.6051,-5.517,-5.4399,-5.3628,-5.335,-5.3314,-5.3203,-5.3203,-5.3203,-5.3203,-5.3203,-5.3203,-5.3203,-5.313,-5.3093,-5.3167,-5.3057,-5.3057,-5.3093,-5.3203,-5.2711,-5.2013,-5.1814,-5.1573,-5.0802,-5.0912,-5.1132,-7.731,-7.7298,-7.7179,-7.6866,-7.6427,-7.6318,-7.5815,-7.5017,-7.4168,-7.4124,-7.4437,-7.252,-7.1404,-7.0895,-6.9408,-6.8453,-6.8072,-6.8296,-6.8217,-6.778,-6.7438,-6.7202,-6.6989,-6.6338,-6.6173,-6.6385,-6.5775,-6.5215,-6.4672,-6.3858,-6.278,-6.1504,-6.0958,-6.0499,-6.017,-6.0546,-6.071,-6.0495,-6.071,-6.0781,-6.0781,-6.0781,-6.0589,-6.0204,-5.9396,-5.8781,-5.8396,-5.7923,-5.7586,-5.7353,-5.792,-5.7711,-5.6425,-5.6316,-5.5858,-5.4892,-5.5374,-5.5684,-5.5721,-5.6785,-5.7629,-5.796,-5.7997,-5.785,-5.7483,-5.7776,-5.7997,-5.7997,-5.7997,-5.7997,-5.7997,-5.7997,-5.7997,-5.7997,-5.7997,-5.7997,-5.7997,-5.7997,-5.7997,-5.7997,-5.7997,-5.7997,-5.7997,-5.7997,-5.7997,-5.7923,-5.7336,-5.6271,-5.5133,-5.4289,-5.3644,-5.3277,-5.3203,-5.3203,-5.3203,-5.3203,-5.3203,-5.3203,-5.3203,-5.3203,-5.313,-5.2931,-5.2601,-5.2491,-5.2234,-5.194,-5.194,-5.1903,-5.1536,-5.0912,-5.0712,-5.0381,-4.9701,-4.9444,-4.9627,-7.731,-7.7231,-7.6633,-7.6378,-7.6308,-7.5177,-7.4711,-7.4632,-7.3757,-7.3503,-7.3419,-7.2236,-7.1442,-7.0846,-6.9331,-6.8274,-6.7724,-6.7687,-6.7273,-6.6518,-6.6158,-6.5854,-6.5558,-6.523,-6.5403,-6.5808,-6.5461,-6.5035,-6.4476,-6.3405,-6.2052,-6.0662,-6.001,-5.9839,-5.9946,-6.0391,-6.061,-6.0508,-6.0671,-6.0781,-6.0781,-6.0781,-6.0781,-6.0742,-6.0165,-5.9781,-5.9742,-5.9204,-5.8676,-5.8373,-5.854,-5.8196,-5.7116,-5.7207,-5.6949,-5.6316,-5.6712,-5.7079,-5.7116,-5.7629,-5.7997,-5.7997,-5.7997,-5.7997,-5.7997,-5.7997,-5.7997,-5.7997,-5.7997,-5.7997,-5.7997,-5.7997,-5.7997,-5.7997,-5.7997,-5.7997,-5.7997,-5.7997,-5.7997,-5.7997,-5.7997,-5.7997,-5.7997,-5.7997,-5.7923,-5.7556,-5.6492,-5.5317,-5.4509,-5.3702,-5.324,-5.3203,-5.3203,-5.3203,-5.3203,-5.3203,-5.3203,-5.3203,-5.3203,-5.3057,-5.2894,-5.2344,-5.1903,-5.1756,-5.1279,-5.1022,-5.0875,-5.0875,-5.0545,-4.9978,-4.9794,-4.9427,-4.8673,-4.8453,-4.8526,-7.731,-7.7249,-7.7042,-7.6468,-7.5472,-7.4131,-7.3602,-7.3578,-7.3442,-7.2685,-7.1637,-7.0689,-7.056,-7.0661,-6.8741,-6.776,-6.7687,-6.7687,-6.7247,-6.6481,-6.6158,-6.5854,-6.5539,-6.5213,-6.5388,-6.5821,-6.5808,-6.5513,-6.4889,-6.2979,-6.0999,-5.9146,-5.887,-5.9121,-5.9475,-5.9946,-5.9962,-5.9559,-6.0365,-6.0781,-6.0781,-6.0781,-6.0781,-6.0781,-6.0704,-6.0666,-6.0627,-6.0589,-6.0538,-6.0491,-6.0097,-5.965,-5.9108,-5.8728,-5.8306,-5.7808,-5.7813,-5.7886,-5.7886,-5.796,-5.7997,-5.7997,-5.7997,-5.7997,-5.7997,-5.7997,-5.7997,-5.7997,-5.7997,-5.7997,-5.7997,-5.7997,-5.7997,-5.7997,-5.7997,-5.7997,-5.7997,-5.7997,-5.7997,-5.7997,-5.7997,-5.7997,-5.7997,-5.7923,-5.7666,-5.6969,-5.6088,-5.517,-5.4363,-5.368,-5.3203,-5.3203,-5.3203,-5.3203,-5.3203,-5.3203,-5.3203,-5.3203,-5.3203,-5.2968,-5.2527,-5.2123,-5.1793,-5.1206,-5.0729,-5.0582,-5.0618,-5.0765,-5.0398,-4.9591,-4.9334,-4.926,-4.8563,-4.8306,-4.8416,-7.731,-7.7225,-7.6228,-7.5193,-7.4223,-7.3628,-7.3391,-7.3366,-7.3024,-7.2263,-7.1276,-7.044,-7.0008,-6.9658,-6.8299,-6.7687,-6.7687,-6.7687,-6.699,-6.5878,-6.5655,-6.5167,-6.4458,-6.4633,-6.4954,-6.5432,-6.5755,-6.5611,-6.4832,-6.2921,-6.0959,-5.9345,-5.9372,-5.9609,-5.9855,-6.0297,-6.0297,-5.9855,-6.0189,-6.0378,-6.0443,-6.0647,-6.0781,-6.0781,-6.0781,-6.0781,-6.0781,-6.0781,-6.0781,-6.0781,-6.0622,-6.0175,-5.9424,-5.9212,-5.8756,-5.8074,-5.7997,-5.7997,-5.7997,-5.7997,-5.7997,-5.7997,-5.7997,-5.7997,-5.7997,-5.7997,-5.7997,-5.7997,-5.7997,-5.7997,-5.7997,-5.7997,-5.7997,-5.7997,-5.7997,-5.7997,-5.7997,-5.7997,-5.7997,-5.7997,-5.7997,-5.7997,-5.7923,-5.7593,-5.6969,-5.6198,-5.539,-5.4656,-5.3849,-5.3387,-5.324,-5.3203,-5.3203,-5.3203,-5.3203,-5.3203,-5.3203,-5.3203,-5.3203,-5.2968,-5.2674,-5.1756,-5.1169,-5.0802,-5.0031,-4.9481,-4.926,-4.9334,-4.915,-4.8857,-4.8783,-4.8673,-4.8379,-4.8306,-4.8306,-7.7127,-7.6754,-7.5249,-7.4024,-7.3183,-7.3145,-7.3145,-7.3056,-7.2465,-7.1725,-7.0954,-7.0146,-6.9302,-6.8568,-6.7944,-6.7687,-6.7687,-6.7687,-6.6843,-6.5448,-6.5338,-6.4709,-6.3742,-6.4176,-6.4643,-6.5115,-6.5663,-6.5381,-6.439,-6.2943,-6.119,-5.9685,-5.9609,-5.9754,-5.9916,-6.0161,-6.0036,-5.976,-5.9839,-5.9901,-5.9962,-6.0351,-6.0659,-6.0769,-6.0781,-6.0781,-6.0781,-6.0659,-6.061,-6.061,-6.0365,-5.9916,-5.9266,-5.9065,-5.8733,-5.8097,-5.7997,-5.7997,-5.7997,-5.7997,-5.7997,-5.7997,-5.7997,-5.7997,-5.7997,-5.7997,-5.7997,-5.7997,-5.7997,-5.7997,-5.7997,-5.7997,-5.7997,-5.7997,-5.7997,-5.7997,-5.7997,-5.7997,-5.7997,-5.7997,-5.7997,-5.7997,-5.7886,-5.7336,-5.6565,-5.5757,-5.495,-5.4106,-5.3424,-5.3203,-5.3203,-5.3203,-5.3203,-5.3203,-5.3203,-5.3203,-5.3203,-5.3115,-5.3078,-5.2711,-5.2543,-5.1279,-5.0251,-4.9701,-4.882,-4.8489,-4.8673,-4.8489,-4.8379,-4.8343,-4.8343,-4.8343,-4.8306,-4.8306,-4.8306,-7.6833,-7.5946,-7.4404,-7.3296,-7.2553,-7.2582,-7.2516,-7.2463,-7.1725,-7.0954,-7.011,-6.9376,-6.8531,-6.7797,-6.7724,-6.7687,-6.7687,-6.7687,-6.6833,-6.5463,-6.5301,-6.4672,-6.3668,-6.4138,-6.4626,-6.5051,-6.5556,-6.483,-6.2932,-6.2605,-6.1489,-5.9537,-5.9065,-5.9028,-5.9354,-5.9139,-5.8815,-5.8913,-5.923,-5.9424,-5.9475,-5.9885,-6.0338,-6.0683,-6.0781,-6.0781,-6.0757,-6.0365,-6.0146,-6.0146,-5.9372,-5.8835,-5.8733,-5.8348,-5.8074,-5.802,-5.7997,-5.7997,-5.7997,-5.7997,-5.7997,-5.7997,-5.7997,-5.7997,-5.7997,-5.7997,-5.7997,-5.7997,-5.7997,-5.7997,-5.7997,-5.7997,-5.7997,-5.7997,-5.7997,-5.7997,-5.7997,-5.7997,-5.7997,-5.7997,-5.7997,-5.7997,-5.796,-5.7299,-5.6455,-5.5647,-5.4876,-5.4069,-5.3424,-5.3203,-5.3203,-5.3203,-5.3203,-5.3203,-5.3203,-5.3203,-5.3203,-5.2968,-5.2491,-5.1903,-5.1022,-5.0178,-4.9444,-4.8857,-4.8563,-4.8379,-4.8343,-4.8306,-4.8343,-4.8306,-4.8306,-4.8306,-4.8306,-4.8306,-4.8306,-7.5763,-7.4515,-7.3927,-7.323,-7.2532,-7.2532,-7.2202,-7.1725,-7.1403,-7.055,-6.9449,-6.9009,-6.8458,-6.7687,-6.7687,-6.7687,-6.7687,-6.7687,-6.7005,-6.5791,-6.5444,-6.4672,-6.3698,-6.3808,-6.4138,-6.4661,-6.513,-6.458,-6.3192,-6.2768,-6.1683,-6.0051,-5.9372,-5.923,-5.9337,-5.923,-5.899,-5.8736,-5.8874,-5.8951,-5.9028,-5.9407,-5.9885,-6.0338,-6.0647,-6.0781,-6.0781,-6.0351,-6.0103,-6.0103,-5.9475,-5.899,-5.8713,-5.826,-5.7997,-5.7997,-5.7997,-5.7997,-5.7997,-5.7997,-5.7997,-5.7997,-5.7997,-5.7997,-5.7997,-5.7997,-5.7997,-5.7997,-5.7997,-5.7997,-5.7997,-5.7997,-5.7997,-5.7997,-5.7997,-5.7997,-5.7997,-5.7997,-5.7997,-5.7997,-5.7997,-5.7997,-5.7703,-5.6859,-5.5941,-5.5537,-5.4473,-5.3665,-5.3314,-5.3203,-5.3203,-5.3203,-5.3203,-5.3203,-5.3203,-5.3203,-5.3057,-5.2564,-5.205,-5.161,-5.0875,-5.0031,-4.926,-4.904,-4.8673,-4.8343,-4.8306,-4.8306,-4.8306,-4.8306,-4.8306,-4.8306,-4.8306,-4.8306,-4.8306,-7.4698,-7.3744,-7.3413,-7.301,-7.2532,-7.2532,-7.2055,-7.1293,-7.1027,-7.0146,-6.9045,-6.8641,-6.8201,-6.7787,-6.7687,-6.781,-6.7904,-6.7747,-6.7031,-6.5827,-6.5469,-6.461,-6.3553,-6.352,-6.3892,-6.4351,-6.46,-6.4159,-6.3088,-6.233,-6.1232,-5.9877,-5.9407,-5.9158,-5.9139,-5.9047,-5.8756,-5.8508,-5.8445,-5.8566,-5.8696,-5.9139,-5.9609,-6.0103,-6.0533,-6.0781,-6.0781,-6.0351,-6.003,-5.9839,-5.9424,-5.8971,-5.8487,-5.8186,-5.7997,-5.7997,-5.7997,-5.7997,-5.7997,-5.7997,-5.7997,-5.7997,-5.7997,-5.7997,-5.7997,-5.7997,-5.7997,-5.7997,-5.7997,-5.7997,-5.7997,-5.7997,-5.7997,-5.7997,-5.7997,-5.7997,-5.7997,-5.7997,-5.7997,-5.7997,-5.7997,-5.7886,-5.7519,-5.6404,-5.5611,-5.528,-5.4032,-5.324,-5.3203,-5.3203,-5.3203,-5.3203,-5.3203,-5.3203,-5.3203,-5.3203,-5.2858,-5.2344,-5.1353,-5.0986,-5.0545,-4.9738,-4.926,-4.9133,-4.8857,-4.8489,-4.8306,-4.8306,-4.8306,-4.8306,-4.8306,-4.8306,-4.8306,-4.8306,-4.8306,-7.3707,-7.3523,-7.2826,-7.2569,-7.2532,-7.2532,-7.2055,-7.1174,-7.0477,-6.9669,-6.8715,-6.8108,-6.7894,-6.7731,-6.7852,-6.8047,-6.8344,-6.8072,-6.7045,-6.5681,-6.5419,-6.451,-6.3099,-6.334,-6.385,-6.4351,-6.4084,-6.349,-6.2627,-6.1418,-6.0312,-5.947,-5.8932,-5.8676,-5.8676,-5.8311,-5.8051,-5.8051,-5.8051,-5.8238,-5.8693,-5.9121,-5.9592,-6.0059,-6.0521,-6.0781,-6.0769,-6.0324,-5.9855,-5.9441,-5.8971,-5.8466,-5.8142,-5.802,-5.7997,-5.7997,-5.7997,-5.7997,-5.7997,-5.7997,-5.7997,-5.7997,-5.7997,-5.7997,-5.7997,-5.7997,-5.7997,-5.7997,-5.7997,-5.7997,-5.7997,-5.7997,-5.7997,-5.7997,-5.7997,-5.7997,-5.7997,-5.7997,-5.7997,-5.7997,-5.796,-5.7666,-5.6932,-5.6124,-5.539,-5.462,-5.3775,-5.3203,-5.3203,-5.3203,-5.3203,-5.3203,-5.3203,-5.3203,-5.3203,-5.313,-5.2637,-5.205,-5.0875,-5.0105,-4.9664,-4.9003,-4.8783,-4.8636,-4.8636,-4.8306,-4.8306,-4.8306,-4.8306,-4.8306,-4.8306,-4.8306,-4.8306,-4.8306,-4.8306,-7.3377,-7.2863,-7.2606,-7.2532,-7.2532,-7.2532,-7.1762,-7.0513,-7.0183,-6.9339,-6.8272,-6.8208,-6.8259,-6.8357,-6.8614,-6.8869,-6.9021,-6.8831,-6.8114,-6.6889,-6.6165,-6.5165,-6.3985,-6.3294,-6.3505,-6.42,-6.4084,-6.3451,-6.2436,-6.0996,-5.9775,-5.8984,-5.8461,-5.8216,-5.8238,-5.8051,-5.7997,-5.7997,-5.7997,-5.8074,-5.8282,-5.9009,-5.9475,-5.9696,-6.0365,-6.0781,-6.0757,-6.0059,-5.9559,-5.9389,-5.8652,-5.8164,-5.8006,-5.7997,-5.7997,-5.7997,-5.7997,-5.7997,-5.7997,-5.7997,-5.7997,-5.7997,-5.7997,-5.7997,-5.7997,-5.7997,-5.7997,-5.7997,-5.7997,-5.7997,-5.7997,-5.7997,-5.7997,-5.7997,-5.7997,-5.7997,-5.7997,-5.7997,-5.7997,-5.7997,-5.7997,-5.7629,-5.6895,-5.6051,-5.528,-5.4473,-5.3702,-5.3203,-5.3203,-5.3203,-5.3203,-5.3203,-5.3203,-5.3167,-5.3167,-5.2968,-5.2417,-5.1793,-5.0729,-4.9591,-4.904,-4.8673,-4.8416,-4.8306,-4.8306,-4.8306,-4.8306,-4.8306,-4.8306,-4.8306,-4.8306,-4.8306,-4.8306,-4.8306,-4.8306,-7.2973,-7.2532,-7.2532,-7.2532,-7.2532,-7.2532,-7.1578,-7.022,-7.011,-6.9192,-6.8031,-6.8259,-6.8511,-6.859,-6.9064,-6.9413,-6.955,-6.9285,-6.8542,-6.7545,-6.6579,-6.5421,-6.4186,-6.3453,-6.3543,-6.4124,-6.3862,-6.3139,-6.2254,-6.0774,-5.9471,-5.8529,-5.8142,-5.802,-5.7997,-5.7997,-5.7997,-5.7983,-5.8186,-5.826,-5.8461,-5.9158,-5.9642,-5.9776,-6.0391,-6.0697,-6.0508,-5.9808,-5.9389,-5.923,-5.8487,-5.8006,-5.7997,-5.7997,-5.7997,-5.7997,-5.7997,-5.7997,-5.7997,-5.7997,-5.7997,-5.7997,-5.7997,-5.7997,-5.7997,-5.7997,-5.7997,-5.7997,-5.7997,-5.7997,-5.7997,-5.7997,-5.7997,-5.7997,-5.7997,-5.7997,-5.7997,-5.7997,-5.7997,-5.7997,-5.7997,-5.7446,-5.6528,-5.5978,-5.5119,-5.4179,-5.3518,-5.3203,-5.3203,-5.3203,-5.3203,-5.3203,-5.3203,-5.3167,-5.3188,-5.2784,-5.2197,-5.1499,-5.0729,-4.9591,-4.8746,-4.8526,-4.8306,-4.8306,-4.8306,-4.8306,-4.8306,-4.8306,-4.8306,-4.8306,-4.8306,-4.8306,-4.8306,-4.8306,-4.8306,-7.2532,-7.2532,-7.2532,-7.2532,-7.2532,-7.2532,-7.1578,-7.0257,-7.011,-6.9192,-6.8068,-6.8259,-6.8558,-6.866,-6.919,-6.9683,-6.9925,-6.9327,-6.8477,-6.7528,-6.6513,-6.5164,-6.3691,-6.3498,-6.3829,-6.42,-6.3502,-6.269,-6.1931,-6.0541,-5.9298,-5.8184,-5.8042,-5.7997,-5.7997,-5.7997,-5.8042,-5.8164,-5.8439,-5.857,-5.8736,-5.9509,-6.0006,-6.0036,-6.0456,-6.0521,-6.0161,-5.9592,-5.9284,-5.9176,-5.8418,-5.7997,-5.7997,-5.7997,-5.7997,-5.7997,-5.7997,-5.7997,-5.7997,-5.7997,-5.7997,-5.7997,-5.7997,-5.7997,-5.7997,-5.7997,-5.7997,-5.7997,-5.7997,-5.7997,-5.7997,-5.7997,-5.7997,-5.7997,-5.7997,-5.7997,-5.7997,-5.7997,-5.7997,-5.7997,-5.7923,-5.7409,-5.6,-5.5669,-5.484,-5.3775,-5.3261,-5.3203,-5.3203,-5.3203,-5.3203,-5.3203,-5.3203,-5.3167,-5.3167,-5.3093,-5.2527,-5.172,-5.0932,-4.9904,-4.8802,-4.8526,-4.8306,-4.8306,-4.8306,-4.8306,-4.8306,-4.8306,-4.8306,-4.8306,-4.8306,-4.8306,-4.8383,-4.8495,-4.8514,-7.2532,-7.2532,-7.2532,-7.2532,-7.2532,-7.2532,-7.1578,-7.0183,-7.0073,-6.9173,-6.8068,-6.8259,-6.8728,-6.9127,-6.9626,-7.0162,-7.0317,-6.974,-6.8725,-6.7545,-6.6295,-6.4753,-6.341,-6.3431,-6.3892,-6.4162,-6.327,-6.233,-6.1787,-6.0348,-5.9034,-5.802,-5.7997,-5.7997,-5.7997,-5.7997,-5.8172,-5.8418,-5.826,-5.8591,-5.9176,-5.9441,-5.9776,-6.0103,-6.0203,-6.0241,-6.0044,-5.9302,-5.8733,-5.8375,-5.8186,-5.7997,-5.7997,-5.7997,-5.7997,-5.7997,-5.7997,-5.7997,-5.7997,-5.7997,-5.7997,-5.7997,-5.7997,-5.7997,-5.7997,-5.7997,-5.7997,-5.7997,-5.7997,-5.7997,-5.7997,-5.7997,-5.7997,-5.7997,-5.7997,-5.7997,-5.7997,-5.7997,-5.7997,-5.7997,-5.7997,-5.7189,-5.6088,-5.55,-5.495,-5.3665,-5.3203,-5.3203,-5.3203,-5.3203,-5.3203,-5.3203,-5.3203,-5.3203,-5.3203,-5.3203,-5.2821,-5.2013,-5.1226,-5.0385,-4.941,-4.8748,-4.8489,-4.8306,-4.8306,-4.8306,-4.8306,-4.8306,-4.8306,-4.842,-4.8568,-4.8709,-4.8847,-4.8965,-4.8932,-7.2532,-7.2532,-7.2532,-7.2532,-7.248,-7.2365,-7.1489,-7.0257,-6.9921,-6.9094,-6.8073,-6.8259,-6.8818,-6.9313,-6.9626,-7.0061,-7.0341,-6.9107,-6.7922,-6.6862,-6.5153,-6.3808,-6.3063,-6.3168,-6.3659,-6.4237,-6.3385,-6.2588,-6.1827,-6.0608,-5.9382,-5.8226,-5.7997,-5.7997,-5.7997,-5.802,-5.8216,-5.8591,-5.8611,-5.8971,-5.9663,-5.9712,-5.9823,-5.9991,-5.9931,-5.976,-5.9441,-5.8776,-5.826,-5.8051,-5.7997,-5.7997,-5.7997,-5.7997,-5.7997,-5.7997,-5.7997,-5.7997,-5.7997,-5.7997,-5.7997,-5.7997,-5.7997,-5.7997,-5.7997,-5.7997,-5.7997,-5.7997,-5.7997,-5.7997,-5.7997,-5.7997,-5.7997,-5.7997,-5.7997,-5.7997,-5.7997,-5.7997,-5.7997,-5.7997,-5.7886,-5.7373,-5.5831,-5.5611,-5.4766,-5.368,-5.3203,-5.3203,-5.3203,-5.3203,-5.3203,-5.3203,-5.3203,-5.3203,-5.3203,-5.3203,-5.3138,-5.2384,-5.1502,-5.069,-4.9657,-4.8845,-4.8623,-4.8383,-4.8363,-4.8325,-4.8363,-4.8439,-4.8586,-4.8727,-4.8945,-4.9123,-4.9249,-4.9311,-4.9295,-7.2532,-7.2532,-7.2532,-7.2532,-7.2463,-7.2214,-7.1409,-7.029,-6.9855,-6.9026,-6.8092,-6.8235,-6.8705,-6.9292,-6.9272,-6.955,-6.998,-6.807,-6.6606,-6.5425,-6.4039,-6.2892,-6.2892,-6.2855,-6.3408,-6.4019,-6.3766,-6.2977,-6.2088,-6.1416,-6.0076,-5.8725,-5.8221,-5.7997,-5.7997,-5.7997,-5.826,-5.8652,-5.8835,-5.9302,-5.9808,-5.9855,-5.9823,-5.9991,-5.9526,-5.9102,-5.8733,-5.826,-5.7983,-5.7997,-5.7997,-5.7997,-5.7997,-5.7997,-5.7997,-5.7997,-5.7997,-5.7997,-5.7997,-5.7997,-5.7997,-5.7997,-5.7997,-5.7997,-5.7997,-5.7997,-5.7997,-5.7997,-5.7997,-5.7997,-5.7997,-5.7997,-5.7997,-5.7997,-5.7997,-5.7997,-5.7997,-5.7997,-5.7997,-5.796,-5.796,-5.7079,-5.6161,-5.539,-5.4876,-5.3534,-5.3203,-5.3203,-5.3203,-5.3203,-5.3203,-5.3203,-5.3203,-5.3203,-5.3203,-5.3203,-5.3128,-5.2789,-5.1825,-5.0896,-4.9576,-4.8892,-4.8696,-4.8532,-4.8514,-4.8495,-4.8495,-4.8622,-4.8881,-4.9075,-4.9311,-4.946,-4.9575,-4.9617,-4.9617,-7.2532,-7.2532,-7.2532,-7.2532,-7.2463,-7.2203,-7.159,-7.071,-6.9966,-6.9182,-6.842,-6.8021,-6.8464,-6.9272,-6.8913,-6.919,-6.9675,-6.7732,-6.594,-6.4093,-6.332,-6.283,-6.2805,-6.2805,-6.3168,-6.355,-6.3262,-6.2925,-6.2496,-6.1337,-6.0285,-5.9526,-5.8467,-5.7997,-5.7997,-5.802,-5.8216,-5.857,-5.8487,-5.9028,-5.9744,-5.9407,-5.9372,-5.9823,-5.9248,-5.8652,-5.826,-5.8065,-5.7997,-5.7997,-5.7997,-5.7997,-5.7997,-5.7997,-5.7997,-5.7997,-5.7997,-5.7997,-5.7997,-5.7997,-5.7997,-5.7997,-5.7997,-5.7997,-5.7997,-5.7997,-5.7997,-5.7997,-5.7997,-5.7997,-5.7997,-5.7997,-5.7997,-5.7997,-5.7997,-5.7997,-5.7997,-5.7997,-5.7997,-5.7886,-5.7446,-5.6675,-5.5721,-5.5023,-5.4326,-5.3424,-5.3203,-5.3203,-5.3203,-5.3203,-5.3203,-5.3203,-5.3203,-5.3209,-5.342,-5.3413,-5.3292,-5.2933,-5.2034,-5.0987,-4.9711,-4.8898,-4.8692,-4.8658,-4.8676,-4.8676,-4.8727,-4.9059,-4.9371,-4.9518,-4.9645,-4.9832,-4.9924,-4.9949,-4.9792,-7.2532,-7.2532,-7.2532,-7.2658,-7.2812,-7.221,-7.171,-7.1201,-7.0277,-6.952,-6.8855,-6.8296,-6.8521,-6.919,-6.8521,-6.859,-6.8688,-6.7095,-6.5082,-6.3524,-6.2929,-6.2805,-6.2805,-6.2855,-6.3086,-6.3431,-6.3049,-6.2835,-6.2391,-6.1438,-6.0352,-5.9641,-5.8754,-5.8231,-5.8042,-5.7997,-5.826,-5.857,-5.8466,-5.8835,-5.9475,-5.9102,-5.8693,-5.9009,-5.8632,-5.8216,-5.8042,-5.802,-5.7997,-5.7997,-5.7997,-5.7997,-5.7997,-5.7997,-5.7997,-5.7997,-5.7997,-5.7997,-5.7997,-5.7997,-5.7997,-5.7997,-5.7997,-5.7997,-5.7997,-5.7997,-5.7997,-5.7997,-5.7997,-5.7997,-5.7997,-5.7997,-5.7997,-5.7997,-5.7997,-5.7997,-5.7997,-5.7997,-5.7997,-5.785,-5.7336,-5.6528,-5.5684,-5.4876,-5.4106,-5.335,-5.3203,-5.3203,-5.3203,-5.3203,-5.3203,-5.3203,-5.3203,-5.3314,-5.3565,-5.3608,-5.3489,-5.295,-5.2128,-5.0989,-4.9755,-4.9155,-4.8709,-4.8796,-4.8895,-4.8994,-4.9123,-4.9489,-4.9754,-4.9859,-4.9974,-5.0159,-5.0171,-4.9962,-4.9779,-7.261,-7.2496,-7.261,-7.2842,-7.3019,-7.2266,-7.1811,-7.1534,-7.0568,-6.9833,-6.9315,-6.8818,-6.875,-6.8978,-6.8185,-6.7948,-6.7383,-6.6162,-6.4241,-6.3027,-6.2855,-6.2805,-6.2805,-6.2855,-6.2965,-6.3385,-6.3038,-6.2761,-6.2464,-6.1598,-6.0704,-5.9701,-5.8911,-5.8519,-5.8172,-5.8042,-5.8186,-5.8482,-5.8503,-5.8713,-5.9102,-5.8796,-5.8418,-5.8216,-5.8142,-5.8051,-5.802,-5.7997,-5.7997,-5.7997,-5.7997,-5.7997,-5.7997,-5.7997,-5.7997,-5.7997,-5.7997,-5.7997,-5.7997,-5.7997,-5.7997,-5.7997,-5.7997,-5.7997,-5.7997,-5.7997,-5.7997,-5.7997,-5.7997,-5.7997,-5.7997,-5.7997,-5.7997,-5.7997,-5.7997,-5.7997,-5.7997,-5.7997,-5.7997,-5.7886,-5.7299,-5.6492,-5.5684,-5.4913,-5.4106,-5.3424,-5.3277,-5.3203,-5.3203,-5.3203,-5.3203,-5.3203,-5.3203,-5.338,-5.3662,-5.3918,-5.383,-5.2915,-5.2122,-5.1006,-4.9838,-4.9204,-4.881,-4.9092,-4.9234,-4.9356,-4.9575,-4.9924,-5.0123,-5.0159,-5.0268,-5.0418,-5.0268,-4.9962,-4.9714,-7.297,-7.2553,-7.305,-7.2918,-7.2384,-7.2387,-7.1994,-7.1289,-7.048,-7.0061,-6.9829,-6.8956,-6.8758,-6.8869,-6.8161,-6.7122,-6.6095,-6.4875,-6.3833,-6.2952,-6.2805,-6.2805,-6.2805,-6.2805,-6.2904,-6.2904,-6.283,-6.2962,-6.2836,-6.1911,-6.1123,-6.0937,-5.9562,-5.8648,-5.8482,-5.8216,-5.8042,-5.8209,-5.8194,-5.8418,-5.8611,-5.8439,-5.8164,-5.7997,-5.7997,-5.7997,-5.7997,-5.7997,-5.7997,-5.7997,-5.7997,-5.7997,-5.7997,-5.7997,-5.7997,-5.7997,-5.7997,-5.7997,-5.7997,-5.7997,-5.7997,-5.7997,-5.7997,-5.7997,-5.7997,-5.7997,-5.7997,-5.7997,-5.7997,-5.7997,-5.7997,-5.7997,-5.7997,-5.7997,-5.7997,-5.7997,-5.7997,-5.8029,-5.8051,-5.806,-5.7316,-5.6492,-5.5684,-5.484,-5.3959,-5.3387,-5.324,-5.3203,-5.3203,-5.3203,-5.3203,-5.3203,-5.3203,-5.3424,-5.372,-5.404,-5.4072,-5.2839,-5.1895,-5.0928,-4.9894,-4.9218,-4.8994,-4.9326,-4.9617,-4.9808,-5.0061,-5.0336,-5.0402,-5.0462,-5.0514,-5.0594,-5.0336,-5.0037,-4.9645,-7.2761,-7.2508,-7.2674,-7.267,-7.247,-7.2092,-7.1892,-7.1634,-7.0632,-7.0095,-6.9793,-6.9042,-6.8614,-6.8614,-6.8097,-6.6833,-6.5411,-6.4457,-6.3613,-6.2989,-6.2805,-6.2805,-6.2805,-6.2805,-6.2805,-6.2805,-6.283,-6.2917,-6.3007,-6.1803,-6.1313,-6.095,-5.9597,-5.8713,-5.8591,-5.8216,-5.8006,-5.7997,-5.802,-5.8097,-5.8348,-5.8074,-5.7983,-5.7997,-5.7997,-5.7997,-5.7997,-5.7997,-5.7997,-5.7997,-5.7997,-5.7997,-5.7997,-5.7997,-5.7997,-5.7997,-5.7997,-5.7997,-5.7997,-5.7997,-5.7997,-5.7997,-5.7997,-5.7997,-5.7997,-5.7997,-5.7983,-5.7997,-5.7997,-5.7997,-5.7997,-5.7997,-5.7997,-5.7997,-5.7997,-5.7997,-5.8029,-5.8216,-5.8282,-5.8113,-5.7066,-5.622,-5.5611,-5.473,-5.3812,-5.3387,-5.3225,-5.3188,-5.3188,-5.3334,-5.338,-5.3461,-5.3563,-5.3979,-5.417,-5.4296,-5.4231,-5.3006,-5.178,-5.0804,-5.0123,-4.9503,-4.9416,-4.9659,-4.9949,-5.0195,-5.0369,-5.0535,-5.0634,-5.0644,-5.0514,-5.0391,-5.0336,-5.0085,-4.9687,-7.2585,-7.2593,-7.2311,-7.2365,-7.2497,-7.1837,-7.1628,-7.1631,-7.0636,-7.0095,-6.9936,-6.9021,-6.8511,-6.827,-6.7516,-6.6366,-6.5044,-6.4163,-6.3392,-6.2952,-6.2805,-6.2805,-6.2805,-6.2917,-6.3014,-6.3086,-6.3038,-6.2794,-6.2413,-6.1575,-6.1108,-6.0485,-5.9309,-5.8676,-5.8611,-5.8238,-5.8051,-5.7997,-5.7997,-5.7997,-5.7997,-5.7997,-5.7997,-5.7997,-5.7997,-5.7997,-5.7997,-5.7997,-5.7997,-5.7997,-5.7997,-5.7997,-5.7997,-5.7997,-5.7997,-5.7997,-5.7997,-5.7997,-5.7997,-5.7997,-5.7997,-5.7997,-5.7997,-5.7997,-5.8029,-5.8097,-5.8142,-5.8042,-5.8142,-5.8097,-5.8042,-5.7997,-5.7997,-5.7997,-5.7997,-5.8006,-5.8119,-5.826,-5.8461,-5.7899,-5.6773,-5.6161,-5.5808,-5.4803,-5.3922,-5.3461,-5.3297,-5.3293,-5.3318,-5.3661,-5.3758,-5.3833,-5.4086,-5.4563,-5.4731,-5.4655,-5.4276,-5.3339,-5.2015,-5.0822,-5.0314,-4.9852,-4.992,-4.9898,-5.0171,-5.0391,-5.0604,-5.0702,-5.0702,-5.0614,-5.0369,-5.0325,-5.0402,-5.0159,-4.97,-7.2921,-7.2928,-7.264,-7.2146,-7.1609,-7.1819,-7.1622,-7.0954,-7.0288,-7.0112,-6.9883,-6.8999,-6.8464,-6.7999,-6.6455,-6.5217,-6.4273,-6.3503,-6.3025,-6.2842,-6.2805,-6.2805,-6.2904,-6.3331,-6.3363,-6.3431,-6.3476,-6.2794,-6.1979,-6.13,-6.0699,-6.0013,-5.9248,-5.8676,-5.8652,-5.8216,-5.7983,-5.7997,-5.7997,-5.7997,-5.7997,-5.7997,-5.7997,-5.7997,-5.7997,-5.7997,-5.7997,-5.7997,-5.7997,-5.7997,-5.7997,-5.7997,-5.7997,-5.7997,-5.7997,-5.7997,-5.7997,-5.7997,-5.802,-5.8051,-5.8006,-5.8006,-5.7997,-5.7997,-5.8074,-5.8348,-5.8397,-5.8042,-5.8354,-5.8418,-5.8186,-5.8029,-5.802,-5.7997,-5.7997,-5.7997,-5.8051,-5.8375,-5.8549,-5.8375,-5.7496,-5.6829,-5.6347,-5.5127,-5.409,-5.3686,-5.3404,-5.34,-5.3504,-5.3851,-5.4207,-5.4288,-5.4387,-5.4833,-5.4876,-5.4848,-5.4353,-5.3535,-5.2223,-5.0935,-5.0684,-5.0342,-4.9969,-5.0024,-5.0336,-5.0514,-5.0624,-5.0702,-5.0702,-5.0604,-5.0451,-5.0493,-5.0634,-5.023,-4.9741,-7.1836,-7.2197,-7.165,-7.118,-7.0858,-7.0682,-7.0352,-6.9941,-6.9452,-6.9173,-6.9064,-6.8416,-6.7825,-6.7121,-6.582,-6.4897,-6.4053,-6.3209,-6.278,-6.2805,-6.2805,-6.2805,-6.2953,-6.3331,-6.3609,-6.3702,-6.3663,-6.2944,-6.184,-6.0973,-6.0352,-5.9801,-5.8905,-5.8461,-5.857,-5.8216,-5.8029,-5.7997,-5.7997,-5.7997,-5.7997,-5.7997,-5.7997,-5.7997,-5.7997,-5.7997,-5.7997,-5.7997,-5.7997,-5.7997,-5.7997,-5.7997,-5.7997,-5.7997,-5.7997,-5.802,-5.8282,-5.826,-5.8074,-5.8238,-5.8194,-5.8029,-5.7997,-5.7997,-5.8097,-5.8418,-5.8673,-5.8439,-5.8815,-5.8835,-5.8508,-5.8397,-5.8194,-5.8119,-5.8097,-5.8097,-5.8172,-5.8461,-5.8639,-5.846,-5.822,-5.7473,-5.6725,-5.5657,-5.4568,-5.3897,-5.3605,-5.3504,-5.372,-5.4048,-5.4452,-5.479,-5.4876,-5.5029,-5.4919,-5.4804,-5.442,-5.3595,-5.2282,-5.1319,-5.1147,-5.0822,-5.0405,-5.0245,-5.0504,-5.0634,-5.0702,-5.0573,-5.0451,-5.0472,-5.0504,-5.0514,-5.0514,-5.0347,-4.9898,-7.1026,-7.1427,-7.0704,-7.0399,-7.0342,-6.9637,-6.9333,-6.9251,-6.8795,-6.8535,-6.8381,-6.7945,-6.72,-6.6256,-6.5521,-6.4714,-6.3723,-6.3099,-6.2879,-6.2805,-6.2805,-6.2805,-6.2965,-6.3331,-6.368,-6.3787,-6.4138,-6.3405,-6.2106,-6.0995,-6.03,-5.9489,-5.8526,-5.8231,-5.8348,-5.8194,-5.7997,-5.7997,-5.7997,-5.7997,-5.7997,-5.7997,-5.7997,-5.7997,-5.7997,-5.7997,-5.7997,-5.7997,-5.7997,-5.7997,-5.7997,-5.7997,-5.7997,-5.7997,-5.7997,-5.8142,-5.8503,-5.8549,-5.8332,-5.8289,-5.8375,-5.815,-5.7997,-5.7997,-5.8111,-5.8482,-5.8756,-5.8693,-5.9248,-5.9248,-5.899,-5.8874,-5.8756,-5.8528,-5.8311,-5.8304,-5.8326,-5.8508,-5.8676,-5.8646,-5.837,-5.7904,-5.7099,-5.6163,-5.5209,-5.426,-5.3838,-5.3639,-5.3941,-5.4404,-5.4775,-5.516,-5.5224,-5.5224,-5.496,-5.4745,-5.4322,-5.3641,-5.2398,-5.168,-5.1484,-5.113,-5.0708,-5.067,-5.0692,-5.0702,-5.0702,-5.044,-5.0171,-5.0268,-5.0325,-5.0347,-5.0313,-5.0183,-4.9974,-7.1101,-7.0902,-7.0348,-7.0123,-7.0071,-6.9511,-6.9272,-6.9127,-6.8682,-6.8464,-6.8344,-6.7834,-6.6769,-6.5705,-6.5191,-6.4347,-6.2952,-6.2817,-6.278,-6.2805,-6.2805,-6.2805,-6.2965,-6.3317,-6.3808,-6.4138,-6.4332,-6.3823,-6.2805,-6.1421,-6.0011,-5.8368,-5.8212,-5.8079,-5.8051,-5.8051,-5.7997,-5.7997,-5.7997,-5.7997,-5.7997,-5.7997,-5.7997,-5.7997,-5.7997,-5.7997,-5.7997,-5.7997,-5.7997,-5.7997,-5.8074,-5.802,-5.802,-5.8074,-5.8097,-5.8164,-5.8733,-5.8673,-5.8311,-5.8439,-5.8418,-5.815,-5.7997,-5.7997,-5.8042,-5.8835,-5.9047,-5.8874,-5.9424,-5.9592,-5.9424,-5.9302,-5.9009,-5.8736,-5.8461,-5.8461,-5.8439,-5.8445,-5.8652,-5.8756,-5.8518,-5.8109,-5.7528,-5.6629,-5.5492,-5.4485,-5.4148,-5.3923,-5.4452,-5.4848,-5.5173,-5.5446,-5.5543,-5.5411,-5.5067,-5.4686,-5.4153,-5.3645,-5.2716,-5.2163,-5.187,-5.1413,-5.0906,-5.0724,-5.0702,-5.0702,-5.0634,-5.0358,-5.0171,-5.0135,-5.0147,-5.0195,-5.0245,-5.0147,-4.9911,-7.0501,-7.0385,-6.9829,-6.9607,-6.955,-6.8682,-6.8333,-6.8308,-6.8097,-6.8033,-6.7996,-6.7232,-6.6366,-6.5411,-6.4677,-6.3943,-6.2915,-6.2805,-6.2805,-6.2805,-6.2805,-6.2805,-6.299,-6.3308,-6.3702,-6.3937,-6.414,-6.3764,-6.2582,-6.167,-6.0388,-5.9099,-5.829,-5.8033,-5.7997,-5.7997,-5.7997,-5.7997,-5.7997,-5.7997,-5.7997,-5.7997,-5.7997,-5.7997,-5.7997,-5.7997,-5.7997,-5.7997,-5.7997,-5.8074,-5.8282,-5.8238,-5.8164,-5.8304,-5.826,-5.8119,-5.8696,-5.8591,-5.8311,-5.857,-5.8776,-5.8127,-5.7997,-5.7983,-5.8074,-5.8652,-5.9065,-5.9176,-5.9458,-5.9674,-5.9492,-5.9139,-5.8796,-5.8591,-5.8528,-5.8591,-5.8549,-5.8528,-5.8466,-5.857,-5.8564,-5.8348,-5.7754,-5.7076,-5.5903,-5.4781,-5.448,-5.4371,-5.4775,-5.5173,-5.5435,-5.5554,-5.5588,-5.53,-5.4947,-5.4484,-5.3959,-5.3534,-5.3089,-5.2731,-5.2326,-5.1564,-5.1138,-5.0905,-5.0702,-5.0702,-5.0594,-5.0325,-5.0206,-5.023,-5.0183,-5.0123,-5.0123,-5.0099,-4.9819,-7.0266,-7.0061,-6.953,-6.921,-6.8935,-6.8097,-6.7687,-6.7687,-6.7714,-6.7687,-6.7614,-6.6843,-6.6072,-6.5264,-6.4457,-6.3649,-6.3025,-6.2805,-6.2805,-6.2805,-6.2805,-6.2805,-6.2917,-6.3121,-6.3408,-6.3653,-6.3834,-6.3522,-6.2897,-6.1736,-6.0641,-5.9578,-5.8547,-5.8107,-5.7997,-5.7997,-5.7997,-5.7997,-5.7997,-5.7997,-5.7997,-5.7997,-5.7997,-5.7997,-5.7997,-5.7997,-5.7997,-5.7983,-5.8119,-5.8282,-5.8482,-5.857,-5.8549,-5.8508,-5.8466,-5.8439,-5.8418,-5.8461,-5.8354,-5.857,-5.8951,-5.8591,-5.8289,-5.8282,-5.8326,-5.8632,-5.9102,-5.9337,-5.9592,-5.9792,-5.976,-5.9712,-5.9407,-5.9302,-5.8894,-5.8835,-5.8632,-5.8508,-5.8418,-5.8354,-5.8296,-5.8161,-5.7373,-5.666,-5.5798,-5.4894,-5.4808,-5.4686,-5.4862,-5.5237,-5.5577,-5.5599,-5.5554,-5.5186,-5.476,-5.4594,-5.4398,-5.4163,-5.3733,-5.3365,-5.2836,-5.2119,-5.1517,-5.1331,-5.1125,-5.0818,-5.0614,-5.0472,-5.0402,-5.0402,-5.023,-4.9987,-5.0012,-4.9962,-4.9631,-7.0524,-7.0061,-6.9511,-6.8978,-6.8487,-6.793,-6.7687,-6.7687,-6.7687,-6.7687,-6.754,-6.6806,-6.6035,-6.5228,-6.4347,-6.3503,-6.2989,-6.2805,-6.2805,-6.2805,-6.2805,-6.2805,-6.2805,-6.2941,-6.3144,-6.3498,-6.3593,-6.3512,-6.3356,-6.1788,-6.0788,-5.996,-5.8804,-5.7997,-5.7997,-5.7997,-5.7997,-5.7997,-5.7997,-5.7997,-5.7997,-5.7997,-5.7997,-5.7997,-5.7997,-5.7997,-5.7997,-5.7997,-5.8142,-5.8397,-5.857,-5.8716,-5.8913,-5.8716,-5.8652,-5.8549,-5.857,-5.8439,-5.8142,-5.8545,-5.8835,-5.9009,-5.8733,-5.8676,-5.8756,-5.9047,-5.9372,-5.9559,-5.9962,-6.0405,-6.061,-6.0495,-5.9977,-5.9592,-5.9102,-5.8874,-5.8632,-5.8397,-5.826,-5.8194,-5.8024,-5.7756,-5.6889,-5.6102,-5.542,-5.4918,-5.4957,-5.5002,-5.5042,-5.5287,-5.5632,-5.5599,-5.552,-5.525,-5.4947,-5.496,-5.4862,-5.4633,-5.4314,-5.3875,-5.3432,-5.287,-5.2334,-5.1893,-5.1279,-5.0741,-5.0702,-5.0654,-5.0604,-5.0483,-5.0037,-4.9859,-4.9898,-4.9819,-4.9475,-7.0061,-6.953,-6.8978,-6.8464,-6.7982,-6.7784,-6.7687,-6.7687,-6.7687,-6.7687,-6.7393,-6.6366,-6.5632,-6.4971,-6.3943,-6.3135,-6.2915,-6.2805,-6.2805,-6.2805,-6.2805,-6.2805,-6.2805,-6.283,-6.2929,-6.3014,-6.3086,-6.3097,-6.2988,-6.1495,-6.0776,-6.0002,-5.8804,-5.807,-5.7997,-5.7997,-5.7997,-5.7997,-5.7997,-5.7997,-5.7997,-5.7997,-5.7997,-5.7997,-5.7997,-5.7997,-5.7997,-5.7997,-5.8142,-5.8375,-5.8528,-5.8756,-5.8796,-5.8591,-5.8611,-5.8375,-5.8282,-5.8332,-5.8503,-5.8874,-5.9009,-5.9047,-5.9121,-5.9139,-5.9212,-5.9266,-5.9526,-5.969,-5.9901,-6.0103,-5.9823,-5.9475,-5.9084,-5.8971,-5.8693,-5.8632,-5.8461,-5.8253,-5.8065,-5.8088,-5.7978,-5.7501,-5.6792,-5.6278,-5.558,-5.5223,-5.5212,-5.5147,-5.516,-5.5411,-5.5703,-5.5577,-5.5446,-5.5262,-5.5147,-5.5147,-5.5053,-5.4819,-5.4534,-5.4178,-5.3778,-5.3451,-5.2751,-5.2075,-5.1336,-5.0702,-5.0702,-5.0702,-5.0644,-5.0472,-5.0147,-4.9806,-4.9673,-4.9547,-4.9265,-6.9974,-6.9292,-6.8913,-6.8344,-6.7757,-6.7687,-6.7687,-6.7687,-6.7714,-6.754,-6.7026,-6.5852,-6.5118,-6.453,-6.3576,-6.2805,-6.2805,-6.2805,-6.2805,-6.2805,-6.2805,-6.2805,-6.2805,-6.2805,-6.283,-6.2805,-6.2768,-6.2757,-6.2304,-6.1067,-6.0089,-5.9305,-5.8547,-5.8107,-5.7997,-5.7997,-5.7997,-5.7997,-5.7997,-5.7997,-5.7997,-5.7997,-5.7997,-5.7997,-5.7997,-5.7997,-5.7997,-5.7983,-5.8051,-5.8282,-5.8549,-5.8835,-5.8756,-5.8736,-5.8796,-5.8549,-5.815,-5.8238,-5.8439,-5.9084,-5.9139,-5.9084,-5.9389,-5.963,-5.9663,-5.9696,-5.9808,-5.9885,-5.9776,-5.9658,-5.9526,-5.9102,-5.8815,-5.8716,-5.8713,-5.8673,-5.8397,-5.8164,-5.8186,-5.8164,-5.7693,-5.7221,-5.6729,-5.6487,-5.595,-5.5685,-5.5497,-5.5375,-5.5262,-5.5481,-5.5703,-5.5599,-5.5554,-5.5446,-5.5312,-5.5262,-5.516,-5.4985,-5.4805,-5.4614,-5.4294,-5.3947,-5.3097,-5.2246,-5.1393,-5.0808,-5.0702,-5.0664,-5.0644,-5.0584,-5.0418,-5.0038,-4.9589,-4.9311,-4.9059,-7.0266,-6.9373,-6.9255,-6.8562,-6.771,-6.7467,-6.753,-6.763,-6.764,-6.7173,-6.6402,-6.5558,-6.4824,-6.409,-6.3209,-6.2842,-6.2805,-6.2805,-6.2805,-6.2805,-6.2805,-6.2805,-6.2805,-6.2805,-6.2805,-6.2805,-6.2732,-6.2438,-6.163,-6.0603,-5.9465,-5.851,-5.8143,-5.7997,-5.7997,-5.7997,-5.7997,-5.7997,-5.7997,-5.7997,-5.7997,-5.7997,-5.7997,-5.7997,-5.7997,-5.7997,-5.7997,-5.802,-5.8194,-5.8508,-5.8951,-5.9407,-5.9609,-5.9559,-5.9441,-5.9084,-5.8418,-5.815,-5.8194,-5.8913,-5.9302,-5.9319,-5.9839,-6.0044,-6.0118,-6.0118,-6.0132,-6.0103,-5.9962,-5.9931,-5.9839,-5.9424,-5.9009,-5.9009,-5.8971,-5.8773,-5.8418,-5.8326,-5.8375,-5.8138,-5.7487,-5.6889,-5.6191,-5.5895,-5.5951,-5.5835,-5.5599,-5.5588,-5.5493,-5.5554,-5.5703,-5.5703,-5.5632,-5.5692,-5.5577,-5.5446,-5.5423,-5.5275,-5.5399,-5.5243,-5.4869,-5.4128,-5.3135,-5.2148,-5.1383,-5.0845,-5.0591,-5.0584,-5.0682,-5.0573,-5.0347,-5.0075,-4.9575,-4.9187,-4.8915,-6.9957,-6.9255,-6.8291,-6.7503,-6.6812,-6.6256,-6.6478,-6.7296,-6.7031,-6.6402,-6.5595,-6.4787,-6.431,-6.4016,-6.3209,-6.2879,-6.2805,-6.2805,-6.2805,-6.2805,-6.2805,-6.2805,-6.2805,-6.2805,-6.2805,-6.2805,-6.267,-6.2291,-6.141,-6.0346,-5.9134,-5.818,-5.7997,-5.7997,-5.7997,-5.7997,-5.7997,-5.7997,-5.7997,-5.7997,-5.7997,-5.7997,-5.7997,-5.7997,-5.7997,-5.7997,-5.7997,-5.7997,-5.8142,-5.826,-5.8332,-5.8549,-5.8508,-5.8736,-5.8894,-5.8835,-5.8332,-5.8006,-5.8164,-5.8874,-5.9424,-5.9609,-6.0132,-6.0508,-6.061,-6.0508,-6.0391,-6.0203,-5.9991,-5.987,-5.9475,-5.9047,-5.8835,-5.8776,-5.8796,-5.8776,-5.8549,-5.8753,-5.8758,-5.8201,-5.7547,-5.6739,-5.6004,-5.5641,-5.5703,-5.572,-5.5703,-5.5692,-5.5703,-5.5703,-5.5703,-5.5703,-5.5703,-5.5703,-5.5703,-5.5599,-5.5621,-5.5643,-5.5588,-5.528,-5.4577,-5.3766,-5.2894,-5.199,-5.109,-5.0583,-5.0268,-5.0347,-5.0514,-5.0336,-5.0147,-4.9885,-4.9575,-4.9059,-4.8742,-6.9002,-6.8256,-6.7455,-6.6797,-6.6285,-6.5588,-6.5755,-6.6263,-6.6123,-6.5595,-6.4824,-6.4347,-6.3906,-6.3503,-6.3025,-6.2805,-6.2805,-6.2805,-6.2805,-6.2805,-6.2805,-6.2805,-6.2805,-6.2805,-6.2805,-6.2732,-6.2365,-6.1814,-6.0933,-5.9648,-5.8364,-5.807,-5.7997,-5.7997,-5.7997,-5.7997,-5.7997,-5.7997,-5.7997,-5.7997,-5.7997,-5.7997,-5.7997,-5.7997,-5.7997,-5.7997,-5.7997,-5.7997,-5.7997,-5.8051,-5.8097,-5.8397,-5.857,-5.9047,-5.9084,-5.9065,-5.8835,-5.8635,-5.8776,-5.9266,-5.9576,-5.9855,-6.0324,-6.0647,-6.0769,-6.0722,-6.0469,-6.0189,-5.9901,-5.9559,-5.9047,-5.8549,-5.8466,-5.8418,-5.8591,-5.8793,-5.8951,-5.9213,-5.8832,-5.8333,-5.7597,-5.677,-5.6172,-5.5771,-5.5531,-5.5588,-5.5588,-5.5504,-5.5599,-5.5703,-5.5703,-5.5703,-5.5703,-5.5703,-5.5703,-5.5626,-5.5472,-5.5357,-5.5088,-5.4703,-5.4087,-5.3248,-5.2235,-5.148,-5.0785,-5.0428,-5.0183,-5.023,-5.0336,-5.0123,-4.9832,-4.9475,-4.9077,-4.8621,-4.8393,-6.7821,-6.684,-6.6648,-6.6197,-6.5775,-6.5188,-6.4918,-6.4785,-6.493,-6.4677,-6.4053,-6.398,-6.3539,-6.3062,-6.2842,-6.2805,-6.2805,-6.2805,-6.2805,-6.2805,-6.2805,-6.2805,-6.2805,-6.2805,-6.2695,-6.2438,-6.1998,-6.1337,-6.0162,-5.8988,-5.818,-5.7997,-5.7997,-5.7997,-5.7997,-5.7997,-5.7997,-5.7997,-5.7997,-5.7997,-5.7997,-5.7997,-5.7997,-5.7997,-5.7997,-5.7997,-5.7997,-5.7997,-5.7997,-5.8164,-5.8354,-5.8736,-5.9248,-5.9441,-5.9441,-5.9509,-5.9284,-5.9084,-5.9121,-5.9492,-5.9674,-5.9977,-6.0443,-6.0597,-6.061,-6.0757,-6.0533,-6.0132,-5.9823,-5.9372,-5.8855,-5.8439,-5.8238,-5.8418,-5.8673,-5.8971,-5.9302,-5.9332,-5.8889,-5.8318,-5.7525,-5.6698,-5.5739,-5.5275,-5.5446,-5.5493,-5.5458,-5.5387,-5.5516,-5.5692,-5.5703,-5.5703,-5.5703,-5.5703,-5.5703,-5.5588,-5.5241,-5.4972,-5.4703,-5.3972,-5.328,-5.2403,-5.1488,-5.0818,-5.0214,-5.0294,-5.0218,-5.0147,-4.9962,-4.9741,-4.9445,-4.9043,-4.8621,-4.8198,-4.7915,-6.7782,-6.6688,-6.5328,-6.4315,-6.364,-6.3468,-6.3394,-6.3284,-6.3357,-6.3356,-6.3172,-6.3135,-6.3062,-6.2879,-6.2805,-6.2805,-6.2805,-6.2805,-6.2805,-6.2805,-6.2805,-6.2805,-6.2768,-6.2695,-6.2475,-6.1998,-6.1484,-6.075,-5.9538,-5.8547,-5.7997,-5.7997,-5.7997,-5.7997,-5.7997,-5.7997,-5.7997,-5.7997,-5.7997,-5.7997,-5.7997,-5.7997,-5.7997,-5.7997,-5.7997,-5.7997,-5.7997,-5.7997,-5.7997,-5.8029,-5.8074,-5.8591,-5.9319,-5.9176,-5.9407,-5.9706,-5.9663,-5.9354,-5.9266,-5.9441,-5.9559,-5.9559,-5.9808,-6.0118,-6.0351,-6.0634,-6.0585,-6.0132,-5.9728,-5.923,-5.8796,-5.8418,-5.8209,-5.8503,-5.8776,-5.9194,-5.9663,-5.9367,-5.8985,-5.8234,-5.7455,-5.6537,-5.5555,-5.516,-5.5312,-5.5324,-5.5237,-5.5237,-5.5543,-5.5703,-5.5703,-5.5703,-5.5703,-5.5703,-5.5703,-5.5511,-5.5164,-5.4741,-5.4395,-5.351,-5.2472,-5.1579,-5.0757,-5.0177,-4.9738,-4.9911,-4.9924,-4.9645,-4.9475,-4.9371,-4.9139,-4.8779,-4.8327,-4.7905,-4.7592,-6.669,-6.5575,-6.4136,-6.3246,-6.2879,-6.2805,-6.2805,-6.2805,-6.2805,-6.2805,-6.2805,-6.2805,-6.2805,-6.2805,-6.2805,-6.2805,-6.2805,-6.2805,-6.2805,-6.2805,-6.2805,-6.2805,-6.2732,-6.2475,-6.2071,-6.1594,-6.0713,-5.9795,-5.8804,-5.8364,-5.7997,-5.7997,-5.7997,-5.7997,-5.7997,-5.7997,-5.7997,-5.7997,-5.802,-5.802,-5.802,-5.7997,-5.7997,-5.7997,-5.7997,-5.7997,-5.7997,-5.7997,-5.7997,-5.8097,-5.8216,-5.8693,-5.9266,-5.9458,-5.9776,-6.0074,-6.003,-5.9592,-5.9458,-5.9424,-5.9509,-5.9543,-5.9885,-6.0482,-6.0521,-6.0757,-6.0585,-6.0161,-6.003,-5.9576,-5.9121,-5.8716,-5.8753,-5.8951,-5.9158,-5.9458,-5.9962,-6.015,-5.9381,-5.8307,-5.7592,-5.6905,-5.5886,-5.4819,-5.4988,-5.5173,-5.5042,-5.5199,-5.5458,-5.5703,-5.5703,-5.5703,-5.5703,-5.5703,-5.5703,-5.5472,-5.5126,-5.4664,-5.4049,-5.2933,-5.1836,-5.0872,-5.005,-4.9885,-4.9752,-4.9645,-4.9589,-4.9326,-4.9171,-4.9092,-4.8847,-4.855,-4.8144,-4.7755,-4.7536,-6.5159,-6.4197,-6.3215,-6.2805,-6.2805,-6.2805,-6.2805,-6.2805,-6.2805,-6.2805,-6.2805,-6.2805,-6.2805,-6.2805,-6.2805,-6.2805,-6.2805,-6.2805,-6.2805,-6.2805,-6.2805,-6.2622,-6.2291,-6.1998,-6.152,-6.0713,-5.9758,-5.8988,-5.8143,-5.7997,-5.7997,-5.7997,-5.7997,-5.7997,-5.7997,-5.7997,-5.7997,-5.8029,-5.8051,-5.8051,-5.8029,-5.7997,-5.7997,-5.7997,-5.7997,-5.7997,-5.7997,-5.8051,-5.8051,-5.8304,-5.8549,-5.8971,-5.9354,-5.9674,-6.005,-6.0324,-6.0189,-5.9991,-5.9946,-5.9839,-5.987,-6.0006,-6.0495,-6.071,-6.0671,-6.0659,-6.0482,-6.0365,-6.0203,-5.9931,-5.9475,-5.9158,-5.9212,-5.9389,-5.9576,-5.977,-6.0286,-6.0615,-5.9527,-5.8373,-5.7701,-5.7043,-5.6014,-5.4918,-5.476,-5.4919,-5.5029,-5.5224,-5.5411,-5.5599,-5.5703,-5.5703,-5.5703,-5.5703,-5.5703,-5.5434,-5.5126,-5.4164,-5.3433,-5.2279,-5.1288,-5.0692,-5.0291,-5.0135,-4.9974,-4.9589,-4.9295,-4.9027,-4.8895,-4.8813,-4.864,-4.8421,-4.8291,-4.7939,-4.7647,-6.4313,-6.368,-6.3086,-6.2805,-6.2805,-6.2805,-6.2805,-6.2805,-6.2805,-6.2805,-6.2805,-6.2805,-6.2805,-6.2805,-6.2805,-6.2805,-6.2805,-6.2805,-6.2805,-6.2805,-6.2695,-6.2328,-6.1887,-6.141,-6.075,-5.9795,-5.8877,-5.8253,-5.7997,-5.7997,-5.7997,-5.7997,-5.7997,-5.7997,-5.7997,-5.7997,-5.802,-5.8051,-5.8216,-5.8304,-5.8029,-5.7997,-5.7997,-5.7997,-5.7997,-5.7997,-5.8074,-5.8375,-5.8524,-5.8733,-5.8971,-5.9212,-5.9492,-5.9823,-6.0146,-6.0245,-6.0146,-6.0132,-6.0036,-5.987,-5.9823,-5.9808,-6.0146,-6.0391,-6.0495,-6.071,-6.061,-6.0622,-6.0456,-6.0241,-5.9839,-5.9492,-5.9458,-5.987,-6.0146,-6.0338,-6.0671,-6.0231,-5.9373,-5.845,-5.7659,-5.681,-5.5782,-5.5107,-5.489,-5.496,-5.4862,-5.5107,-5.5543,-5.5621,-5.5703,-5.5703,-5.5703,-5.5703,-5.5703,-5.5472,-5.5049,-5.3972,-5.2895,-5.1933,-5.1202,-5.0856,-5.0553,-5.0195,-4.9714,-4.9265,-4.8978,-4.8813,-4.8622,-4.8514,-4.8421,-4.8325,-4.8233,-4.8217,-4.8071]},{"header":{"parameterUnit":"m.s-1","parameterCategory":1,"la1":31.0,"la2":29.5877,"lo1":-88.7671,"lo2":-86.6584,"dy":0.0162,"dx":0.0185,"nx":115,"ny":88,"refTime":"2025-05-14T12:00:00:Z","depth":0,"parameterNumber":3,"parameterNumberName":"V-component_of_WINDS"},"data":[0.0,0.0,0.0,0.0,0.0,0.0,0.0,0.0,0.0,0.0,0.0,0.0,0.0,0.0,0.0,0.0,0.0,0.0,0.0,0.0,0.0,0.0,0.0,0.0,0.0,0.0,0.0,0.0,0.0,0.0,0.0,0.0,0.0,0.0,0.0,0.0,0.0,0.0,0.0,0.0,0.0,0.0,0.0,0.0,0.0,0.0,0.0,0.0,0.0,0.0,0.0,0.0,0.0,0.0,0.0,0.0,0.0,0.0,0.0,0.0,0.0,0.0,0.0,0.0,0.0,0.0,0.0,0.0,0.0,0.0,0.0,0.0,0.0,0.0,0.0,0.0,0.0,0.0,0.0,0.0,0.0,0.0,0.0,0.0,0.0,0.0,0.0,0.0,0.0,0.0,0.0,0.0,0.0,0.0,0.0,0.0,0.0,0.0,0.0,0.0,0.0,0.0,0.0,0.0,0.0,0.0,0.0,0.0,0.0,0.0,0.0,0.0,0.0,0.0,0.0,0.0,0.0,0.0,0.0,0.0,0.0,0.0,0.0,0.0,0.0,0.0,0.0,0.0,0.0,0.0,0.0,0.0,0.0,0.0,0.0,0.0,0.0,0.0,0.0,0.0,0.0,0.0,0.0,0.0,0.0,0.0,0.0,0.0,0.0,0.0,0.0,0.0,0.0,0.0,0.0,0.0,0.0,0.0,0.0,0.0,0.0,0.0,0.0,0.0,0.0,0.0,0.0,0.0,0.0,0.0,0.0,0.0,0.0,0.0,0.0,0.0,0.0,0.0,0.0,0.0,0.0,0.0,0.0,0.0,0.0,0.0,0.0,0.0,0.0,0.0,0.0,0.0,0.0,0.0,0.0,0.0,0.0,0.0,0.0,0.0,0.0,0.0,0.0,0.0,0.0,0.0,0.0,0.0,0.0,0.0,0.0,0.0,0.0,0.0,0.0,0.0,0.0,0.0,0.0,0.0,0.0,0.0,0.0,0.0,0.0,0.0,0.0,0.0,0.0,0.0,0.0,0.0,0.0,0.0,0.0,0.0,0.0,0.0,0.0,0.0,0.0,0.0,0.0,0.0,0.0,0.0,0.0,0.0,0.0,0.0,0.0,0.0,0.0,0.0,0.0,0.0,0.0,0.0,0.0,0.0,0.0,0.0,0.0,0.0,0.0,0.0,0.0,0.0,0.0,0.0,0.0,0.0,0.0,0.0,0.0,0.0,0.0,0.0,0.0,0.0,0.0,0.0,0.0,0.0,0.0,0.0,0.0,0.0,0.0,0.0,0.0,0.0,0.0,0.0,0.0,0.0,0.0,0.0,0.0,0.0,0.0,0.0,0.0,0.0,0.0,0.0,0.0,0.0,0.0,0.0,0.0,0.0,0.0,0.0,0.0,0.0,0.0,0.0,0.0,0.0,0.0,0.0,0.0,0.0,0.0,0.0,0.0,0.0,0.0,0.0,0.0,0.0,0.0,0.0,0.0,0.0,0.0,0.0,0.0,0.0,0.0,0.0,0.0,0.0,0.0,0.0,0.0,0.0,0.0,0.0,0.0,0.0,0.0,0.0,0.0,0.0,0.0,0.0,0.0,0.0,0.0,0.0,0.0,0.0,0.0,0.0,0.0,0.0,0.0,0.0,0.0,0.0,0.0,0.0,0.0,0.0,0.0,0.0,0.0,0.0,0.0,0.0,0.0,0.0,0.0,0.0,0.0,0.0,0.0,0.0,0.0,0.0,0.0,0.0,0.0,0.0,0.0,0.0,0.0,0.0,0.0,0.0,0.0,0.0,0.0,0.0,0.0,0.0,0.0,0.0,0.0,0.0,0.0,0.0,0.0,0.0,0.0,0.0,0.0,0.0,0.0,0.0,0.0,0.0,0.0,0.0,0.0,0.0,0.0,0.0,0.0,0.0,0.0,0.0,0.0,0.0,0.0,0.0,0.0,0.0,0.0,0.0,0.0,0.0,0.0,0.0,0.0,0.0,0.0,0.0,0.0,0.0,0.0,0.0,0.0,0.0,0.0,0.0,0.0,0.0,0.0,0.0,0.0,0.0,0.0,0.0,0.0,0.0,0.0,0.0,0.0,0.0,0.0,0.0,0.0,0.0,0.0,0.0,0.0,0.0,0.0,0.0,0.0,0.0,0.0,0.0,0.0,0.0,0.0,0.0,0.0,0.0,0.0,0.0,0.0,0.0,0.0,0.0,0.0,0.0,0.0,0.0,0.0,0.0,0.0,0.0,0.0,0.0,0.0,0.0,0.0,0.0,0.0,0.0,0.0,0.0,0.0,0.0,0.0,0.0,0.0,0.0,0.0,0.0,0.0,0.0,0.0,0.0,0.0,0.0,0.0,0.0,0.0,0.0,0.0,0.0,0.0,0.0,0.0,0.0,0.0,0.0,0.0,0.0,0.0,0.0,0.0,0.0,0.0,0.0,0.0,0.0,0.0,0.0,0.0,0.0,0.0,0.0,0.0,0.0,0.0,0.0,0.0,0.0,0.0,0.0,0.0,0.0,0.0,0.0,0.0,0.0,0.0,0.0,0.0,0.0,0.0,0.0,0.0,0.0,0.0,0.0,0.0,0.0,0.0,0.0,0.0,0.0,0.0,0.0,0.0,0.0,0.0,0.0,0.0,0.0,0.0,0.0,0.0,0.0,0.0,0.0,0.0,0.0,0.0,0.0,0.0,0.0,0.0,0.0,0.0,0.0,0.0,0.0,0.0,0.0,0.0,0.0,0.0,0.0,0.0,0.0,0.0,0.0,0.0,0.0,0.0,0.0,0.0,0.0,0.0,0.0,0.0,0.0,0.0,0.0,0.0,0.0,0.0,0.0,0.0,0.0,0.0,0.0,0.0,0.0,0.0,0.0,0.0,0.0,0.0,0.0,0.0,0.0,0.0,0.0,0.0,0.0,0.0,0.0,0.0,0.0,0.0,0.0,0.0,0.0,0.0,0.0,0.0,0.0,0.0,0.0,0.0,0.0,0.0,0.0,0.0,0.0,0.0,0.0,0.0,0.0,0.0,0.0,0.0,0.0,0.0,0.0,0.0,0.0,0.0,0.0,0.0,0.0,0.0,0.0,0.0,0.0,0.0,0.0,0.0,0.0,0.0,0.0,0.0,0.0,0.0,0.0,0.0,0.0,0.0,0.0,0.0,0.0,0.0,0.0,0.0,0.0,0.0,0.0,0.0,0.0,0.0,0.0,0.0,0.0,0.0,0.0,0.0,0.0,0.0,0.0,0.0,0.0,0.0,0.0,0.0,0.0,0.0,0.0,0.0,0.0,0.0,0.0,0.0,0.0,0.0,0.0,0.0,0.0,0.0,0.0,0.0,0.0,0.0,0.0,0.0,0.0,0.0,0.0,0.0,0.0,0.0,0.0,0.0,0.0,0.0,0.0,0.0,0.0,0.0,0.0,0.0,0.0,0.0,0.0,0.0,0.0,0.0,0.0,0.0,0.0,0.0,0.0,0.0,0.0,0.0,0.0,0.0,0.0,0.0,0.0,0.0,0.0,0.0,0.0,0.0,0.0,0.0,0.0,0.0,0.0,0.0,0.0,0.0,0.0,0.0,0.0,0.0,0.0,0.0,0.0,0.0,0.0,0.0,0.0,0.0,0.0,0.0,0.0,0.0,0.0,0.0,0.0,0.0,0.0,0.0,0.0,0.0,0.0,0.0,0.0,0.0,0.0,0.0,0.0,0.0,0.0,0.0,0.0,0.0,0.0,0.0,0.0,0.0,0.0,0.0,0.0,0.0,0.0,0.0,0.0,0.0,0.0,0.0,0.0,0.0,0.0,0.0,0.0,0.0,0.0,0.0,0.0,0.0,0.0,0.0,0.0,0.0,0.0,0.0,0.0,0.0,0.0,0.0,0.0,0.0,0.0,0.0,0.0,0.0,0.0,0.0,0.0,0.0,0.0,0.0,0.0,0.0,0.0,0.0,0.0,0.0,0.0,0.0,0.0,0.0,0.0,0.0,0.0,0.0,0.0,0.0,0.0,0.0,0.0,0.0,0.0,0.0,0.0,0.0,0.0,0.0,0.0,0.0,0.0,0.0,0.0,0.0,0.0,0.0,0.0,0.0,0.0,0.0,0.0,0.0,0.0,0.0,0.0,0.0,0.0,0.0,0.0,0.0,0.0,0.0,0.0,0.0,0.0,0.0,0.0,0.0,0.0,0.0,0.0,0.0,0.0,0.0,0.0,0.0,0.0,0.0,0.0,0.0,0.0,0.0,0.0,0.0,0.0,0.0,0.0,0.0,0.0,0.0,0.0,-0.873,0.0,0.0,0.0,0.0,0.0,0.0,0.0,0.0,0.0,0.0,0.0,0.0,0.0,0.0,0.0,0.0,0.0,0.0,0.0,0.0,0.0,0.0,0.0,0.0,0.0,0.0,0.0,0.0,0.0,0.0,0.0,0.0,0.0,0.0,0.0,0.0,0.0,0.0,0.0,0.0,0.0,0.0,0.0,0.0,0.0,0.0,0.0,0.0,0.0,0.0,0.0,0.0,0.0,0.0,0.0,0.0,0.0,0.0,0.0,0.0,0.0,0.0,0.0,0.0,0.0,0.0,0.0,0.0,0.0,0.0,0.0,0.0,0.0,0.0,0.0,0.0,0.0,0.0,0.0,0.0,0.0,0.0,0.0,0.0,0.0,0.0,0.0,0.0,0.0,0.0,0.0,0.0,0.0,0.0,0.0,0.0,0.0,0.0,0.0,0.0,0.0,0.0,0.0,0.0,0.0,0.0,0.0,0.0,0.0,0.0,-0.9381,-0.9381,-0.9381,-0.9205,-0.8845,0.0,0.0,0.0,0.0,0.0,0.0,0.0,0.0,0.0,0.0,0.0,0.0,0.0,0.0,0.0,0.0,0.0,0.0,0.0,0.0,0.0,0.0,0.0,0.0,0.0,0.0,0.0,0.0,0.0,0.0,0.0,0.0,0.0,0.0,0.0,0.0,0.0,0.0,0.0,0.0,0.0,0.0,0.0,0.0,0.0,0.0,0.0,0.0,0.0,0.0,0.0,0.0,0.0,0.0,0.0,0.0,0.0,0.0,0.0,0.0,0.0,0.0,0.0,0.0,0.0,0.0,0.0,0.0,0.0,0.0,0.0,0.0,0.0,0.0,0.0,0.0,0.0,0.0,0.0,0.0,0.0,0.0,0.0,0.0,0.0,0.0,0.0,0.0,0.0,0.0,0.0,0.0,0.0,0.0,0.0,0.0,0.0,0.0,0.0,0.0,0.0,0.0,0.0,0.0,0.0,0.0,0.0,0.0,0.0,0.0,0.0,0.0,-0.9571,-0.9361,-0.8994,0.0,0.0,0.0,0.0,0.0,0.0,0.0,0.0,0.0,0.0,0.0,0.0,0.0,0.0,0.0,0.0,0.0,0.0,0.0,0.0,0.0,0.0,0.0,0.0,0.0,0.0,0.0,0.0,0.0,0.0,0.0,0.0,0.0,0.0,0.0,0.0,0.0,0.0,0.0,0.0,0.0,0.0,0.0,0.0,0.0,0.0,0.0,0.0,0.0,0.0,0.0,0.0,0.0,0.0,0.0,0.0,0.0,0.0,0.0,0.0,0.0,0.0,0.0,0.0,0.0,0.0,0.0,0.0,0.0,0.0,0.0,0.0,0.0,0.0,0.0,0.0,0.0,0.0,0.0,0.0,0.0,0.0,0.0,0.0,0.0,0.0,0.0,0.0,0.0,0.0,0.0,0.0,0.0,0.0,0.0,0.0,0.0,0.0,0.0,0.0,0.0,0.0,0.0,0.0,0.0,0.0,0.0,0.0,0.0,0.0,-0.97,-1.0365,-1.012,0.0,-0.9171,0.0,0.0,0.0,0.0,0.0,0.0,0.0,0.0,0.0,0.0,0.0,0.0,0.0,0.0,0.0,0.0,0.0,0.0,0.0,0.0,0.0,0.0,0.0,0.0,0.0,0.0,0.0,0.0,0.0,0.0,0.0,0.0,0.0,0.0,0.0,0.0,0.0,0.0,0.0,0.0,0.0,0.0,0.0,0.0,0.0,0.0,0.0,0.0,0.0,0.0,0.0,0.0,0.0,0.0,0.0,0.0,0.0,0.0,0.0,0.0,0.0,0.0,0.0,0.0,0.0,0.0,0.0,0.0,0.0,0.0,0.0,0.0,0.0,0.0,0.0,0.0,0.0,0.0,0.0,0.0,0.0,0.0,0.0,0.0,0.0,0.0,0.0,0.0,0.0,0.0,0.0,0.0,0.0,0.0,0.0,0.0,0.0,0.0,0.0,0.0,0.0,0.0,0.0,0.0,0.0,0.0,0.0,0.0,0.0,0.0,-0.9788,-1.0086,-0.9808,-0.9496,0.0,0.0,0.0,0.0,0.0,0.0,0.0,0.0,0.0,0.0,0.0,0.0,0.0,0.0,0.0,0.0,0.0,0.0,0.0,0.0,0.0,0.0,0.0,0.0,0.0,0.0,0.0,0.0,0.0,0.0,0.0,0.0,0.0,0.0,0.0,0.0,0.0,0.0,0.0,0.0,0.0,0.0,0.0,0.0,0.0,0.0,0.0,0.0,0.0,0.0,0.0,0.0,0.0,0.0,0.0,0.0,0.0,0.0,0.0,0.0,0.0,0.0,0.0,0.0,0.0,0.0,0.0,0.0,0.0,0.0,0.0,0.0,0.0,0.0,0.0,0.0,0.0,0.0,0.0,0.0,0.0,0.0,0.0,0.0,0.0,0.0,0.0,0.0,0.0,0.0,0.0,0.0,0.0,0.0,0.0,0.0,0.0,0.0,0.0,0.0,0.0,0.0,0.0,0.0,0.0,0.0,0.0,0.0,0.0,0.0,-0.9606,-0.9863,-0.9937,-0.9781,-0.9503,-0.911,0.0,0.0,0.0,0.0,0.0,0.0,0.0,0.0,0.0,0.0,0.0,0.0,0.0,0.0,0.0,0.0,0.0,0.0,0.0,0.0,0.0,0.0,0.0,0.0,0.0,0.0,0.0,0.0,0.0,0.0,0.0,0.0,0.0,0.0,0.0,0.0,0.0,0.0,0.0,0.0,0.0,0.0,0.0,0.0,0.0,0.0,0.0,0.0,0.0,0.0,0.0,0.0,0.0,0.0,0.0,0.0,0.0,0.0,0.0,0.0,0.0,0.0,0.0,0.0,0.0,0.0,0.0,0.0,0.0,0.0,0.0,0.0,0.0,0.0,0.0,0.0,0.0,0.0,0.0,0.0,0.0,0.0,0.0,0.0,0.0,0.0,0.0,0.0,0.0,0.0,0.0,0.0,0.0,0.0,0.0,0.0,0.0,0.0,0.0,0.0,0.0,0.0,0.0,0.0,0.0,0.0,0.0,0.0,0.0,-1.0019,-0.9964,-1.0256,-1.0371,-0.9971,0.0,0.0,0.0,0.0,0.0,0.0,0.0,0.0,0.0,0.0,0.0,0.0,0.0,0.0,0.0,0.0,0.0,0.0,0.0,0.0,0.0,0.0,0.0,0.0,0.0,0.0,0.0,0.0,0.0,0.0,0.0,0.0,0.0,0.0,0.0,0.0,0.0,0.0,0.0,0.0,0.0,0.0,0.0,0.0,0.0,0.0,0.0,0.0,0.0,0.0,0.0,0.0,0.0,0.0,0.0,0.0,0.0,0.0,0.0,0.0,0.0,0.0,0.0,0.0,0.0,0.0,0.0,0.0,0.0,0.0,0.0,0.0,0.0,0.0,0.0,0.0,0.0,0.0,0.0,0.0,0.0,0.0,0.0,0.0,0.0,0.0,0.0,0.0,0.0,0.0,0.0,0.0,0.0,0.0,0.0,0.0,0.0,0.0,0.0,0.0,0.0,0.0,0.0,0.0,0.0,0.0,0.0,0.0,0.0,-0.9334,-0.9564,-1.0059,-1.0778,-1.0066,-0.9551,0.0,0.0,0.0,0.0,0.0,0.0,0.0,0.0,0.0,0.0,0.0,0.0,0.0,0.0,0.0,0.0,0.0,0.0,0.0,0.0,0.0,0.0,0.0,0.0,0.0,0.0,0.0,0.0,0.0,0.0,0.0,0.0,0.0,0.0,0.0,0.0,0.0,0.0,0.0,0.0,0.0,0.0,0.0,0.0,0.0,0.0,0.0,0.0,0.0,0.0,0.0,0.0,0.0,0.0,0.0,0.0,0.0,0.0,0.0,0.0,0.0,0.0,0.0,0.0,0.0,0.0,0.0,0.0,0.0,0.0,0.0,0.0,0.0,0.0,0.0,0.0,0.0,0.0,0.0,0.0,0.0,0.0,0.0,0.0,0.0,0.0,0.0,0.0,0.0,0.0,0.0,0.0,0.0,0.0,0.0,0.0,0.0,0.0,0.0,0.0,0.0,0.0,0.0,0.0,0.0,0.0,0.0,0.0,0.0,-0.9144,0.0,-1.0297,-1.0804,-0.9924,-0.9361,0.0,0.0,0.0,0.0,0.0,0.0,0.0,0.0,0.0,0.0,0.0,0.0,0.0,0.0,0.0,0.0,0.0,0.0,0.0,0.0,0.0,0.0,0.0,0.0,0.0,0.0,0.0,0.0,0.0,0.0,0.0,0.0,0.0,0.0,0.0,0.0,0.0,0.0,0.0,0.0,0.0,0.0,0.0,0.0,0.0,0.0,0.0,0.0,0.0,0.0,0.0,0.0,0.0,0.0,0.0,0.0,0.0,0.0,0.0,0.0,0.0,0.0,0.0,0.0,0.0,0.0,0.0,0.0,0.0,0.0,0.0,0.0,0.0,0.0,0.0,0.0,0.0,0.0,0.0,0.0,0.0,0.0,0.0,0.0,0.0,0.0,0.0,0.0,0.0,0.0,0.0,0.0,0.0,0.0,0.0,0.0,0.0,0.0,0.0,0.0,0.0,0.0,0.0,0.0,0.0,0.0,0.0,0.0,-0.9057,-1.006,-1.0595,-1.0643,-1.0169,-1.0039,-0.9476,0.0,0.0,0.0,0.0,0.0,0.0,0.0,0.0,0.0,0.0,0.0,0.0,0.0,0.0,0.0,0.0,0.0,0.0,0.0,0.0,0.0,0.0,0.0,0.0,0.0,0.0,0.0,0.0,0.0,0.0,0.0,0.0,0.0,0.0,0.0,0.0,0.0,0.0,0.0,0.0,0.0,0.0,0.0,0.0,0.0,0.0,0.0,0.0,0.0,0.0,0.0,0.0,0.0,0.0,0.0,0.0,0.0,0.0,0.0,0.0,0.0,0.0,0.0,0.0,0.0,0.0,0.0,0.0,0.0,0.0,0.0,0.0,0.0,0.0,0.0,0.0,0.0,0.0,0.0,0.0,0.0,0.0,0.0,0.0,0.0,0.0,0.0,0.0,0.0,0.0,0.0,0.0,0.0,0.0,0.0,0.0,0.0,0.0,0.0,0.0,0.0,0.0,0.0,0.0,0.0,0.0,0.0,0.0,0.0,-0.9747,-1.0236,-1.0697,-1.107,-1.0025,-0.9456,0.0,0.0,0.0,0.0,0.0,0.0,0.0,0.0,0.0,0.0,0.0,0.0,0.0,0.0,0.0,0.0,0.0,0.0,0.0,0.0,0.0,0.0,0.0,0.0,0.0,0.0,0.0,0.0,0.0,0.0,0.0,0.0,0.0,0.0,0.0,0.0,0.0,0.0,0.0,0.0,0.0,0.0,0.0,0.0,0.0,0.0,0.0,0.0,0.0,0.0,0.0,0.0,0.0,0.0,0.0,0.0,0.0,0.0,0.0,0.0,0.0,0.0,0.0,0.0,0.0,0.0,0.0,0.0,0.0,0.0,0.0,0.0,0.0,0.0,0.0,0.0,0.0,0.0,0.0,0.0,0.0,0.0,0.0,0.0,0.0,0.0,0.0,0.0,0.0,0.0,0.0,0.0,0.0,0.0,0.0,0.0,0.0,0.0,0.0,0.0,0.0,0.0,0.0,0.0,0.0,0.0,0.0,0.0,0.0,-1.0195,-1.0629,-1.1043,-1.1436,-1.0229,-0.9591,-0.9545,0.0,0.0,0.0,0.0,0.0,0.0,0.0,0.0,0.0,0.0,0.0,0.0,0.0,0.0,0.0,0.0,0.0,0.0,0.0,0.0,0.0,0.0,0.0,0.0,0.0,0.0,0.0,0.0,0.0,0.0,0.0,0.0,0.0,0.0,0.0,0.0,0.0,0.0,0.0,0.0,0.0,0.0,0.0,0.0,0.0,0.0,0.0,0.0,0.0,0.0,0.0,0.0,0.0,0.0,0.0,0.0,0.0,0.0,0.0,0.0,0.0,0.0,0.0,0.0,0.0,0.0,0.0,0.0,0.0,0.0,0.0,0.0,0.0,0.0,0.0,0.0,0.0,0.0,0.0,0.0,0.0,0.0,0.0,0.0,0.0,0.0,0.0,0.0,0.0,0.0,0.0,0.0,0.0,0.0,0.0,0.0,0.0,0.0,0.0,0.0,0.0,0.0,0.0,0.0,0.0,0.0,0.0,0.0,-1.1192,-1.1647,-1.1674,-1.1267,-1.0636,-0.9897,0.0,0.0,0.0,0.0,0.0,0.0,0.0,0.0,0.0,0.0,0.0,0.0,0.0,0.0,0.0,0.0,0.0,0.0,0.0,0.0,0.0,0.0,0.0,0.0,0.0,0.0,0.0,0.0,0.0,0.0,0.0,0.0,0.0,0.0,0.0,0.0,0.0,0.0,0.0,0.0,0.0,0.0,0.0,0.0,0.0,0.0,0.0,0.0,0.0,0.0,0.0,0.0,0.0,0.0,0.0,0.0,0.0,0.0,0.0,0.0,0.0,0.0,0.0,0.0,0.0,0.0,0.0,0.0,0.0,0.0,0.0,0.0,0.0,0.0,0.0,0.0,0.0,0.0,0.0,0.0,0.0,0.0,0.0,0.0,0.0,0.0,0.0,0.0,0.0,0.0,0.0,0.0,0.0,0.0,0.0,0.0,0.0,0.0,0.0,0.0,0.0,0.0,0.0,0.0,0.0,0.0,0.0,0.0,0.0,-1.1633,-1.2203,-1.2386,-1.2135,-1.1145,-1.0392,0.0,0.0,0.0,0.0,0.0,0.0,0.0,0.0,0.0,0.0,0.0,0.0,0.0,0.0,0.0,0.0,0.0,0.0,0.0,0.0,0.0,0.0,0.0,0.0,0.0,0.0,0.0,0.0,0.0,0.0,0.0,0.0,0.0,0.0,0.0,0.0,0.0,0.0,0.0,0.0,0.0,0.0,0.0,0.0,0.0,0.0,0.0,0.0,0.0,0.0,0.0,0.0,0.0,0.0,0.0,0.0,0.0,0.0,0.0,0.0,0.0,0.0,0.0,0.0,0.0,0.0,0.0,0.0,0.0,0.0,0.0,0.0,0.0,0.0,0.0,0.0,0.0,0.0,0.0,0.0,0.0,0.0,0.0,0.0,0.0,0.0,0.0,0.0,0.0,0.0,0.0,0.0,0.0,0.0,0.0,0.0,0.0,0.0,0.0,0.0,0.0,0.0,0.0,0.0,0.0,0.0,0.0,0.0,-1.1179,-1.2013,-1.261,-1.2847,-1.2698,-1.1782,-1.0934,0.0,0.0,0.0,0.0,0.0,0.0,0.0,0.0,0.0,0.0,0.0,0.0,0.0,0.0,0.0,0.0,0.0,0.0,0.0,0.0,0.0,0.0,0.0,0.0,0.0,0.0,0.0,0.0,0.0,0.0,0.0,0.0,0.0,0.0,0.0,0.0,0.0,0.0,0.0,0.0,0.0,0.0,0.0,0.0,0.0,0.0,0.0,0.0,0.0,0.0,0.0,0.0,0.0,0.0,0.0,0.0,0.0,0.0,0.0,0.0,0.0,0.0,0.0,0.0,0.0,0.0,0.0,0.0,0.0,0.0,0.0,0.0,0.0,0.0,0.0,0.0,0.0,0.0,0.0,0.0,0.0,0.0,0.0,0.0,0.0,0.0,0.0,0.0,0.0,0.0,0.0,0.0,0.0,0.0,0.0,0.0,0.0,0.0,0.0,0.0,0.0,0.0,0.0,0.0,0.0,0.0,0.0,0.0,-1.1565,-1.2298,-1.2888,-1.3125,-1.305,-1.2366,-1.143,0.0,0.0,0.0,0.0,0.0,0.0,0.0,0.0,0.0,0.0,0.0,0.0,0.0,0.0,0.0,0.0,0.0,0.0,0.0,0.0,0.0,0.0,0.0,0.0,0.0,0.0,0.0,0.0,0.0,0.0,0.0,0.0,0.0,0.0,0.0,0.0,0.0,0.0,0.0,0.0,0.0,0.0,0.0,0.0,0.0,0.0,0.0,0.0,0.0,0.0,0.0,0.0,0.0,0.0,0.0,0.0,0.0,0.0,0.0,0.0,0.0,0.0,0.0,0.0,0.0,0.0,0.0,0.0,0.0,0.0,0.0,0.0,0.0,0.0,0.0,0.0,0.0,0.0,0.0,0.0,0.0,0.0,0.0,0.0,0.0,0.0,0.0,0.0,0.0,0.0,0.0,0.0,0.0,0.0,0.0,0.0,0.0,0.0,0.0,0.0,0.0,0.0,0.0,0.0,0.0,0.0,0.0,0.0,-1.1823,-1.2447,-1.3044,-1.3281,-1.3132,-1.2318,-1.1409,0.0,0.0,0.0,0.0,0.0,0.0,0.0,0.0,0.0,0.0,0.0,0.0,0.0,0.0,0.0,0.0,0.0,0.0,0.0,0.0,0.0,0.0,0.0,0.0,0.0,0.0,0.0,0.0,0.0,0.0,0.0,0.0,0.0,0.0,0.0,0.0,0.0,0.0,0.0,0.0,0.0,0.0,0.0,0.0,0.0,0.0,0.0,0.0,-1.646,0.0,0.0,0.0,0.0,0.0,0.0,0.0,0.0,0.0,0.0,0.0,0.0,0.0,0.0,0.0,0.0,0.0,0.0,0.0,0.0,0.0,0.0,0.0,0.0,0.0,0.0,0.0,0.0,0.0,0.0,0.0,0.0,0.0,0.0,0.0,0.0,0.0,0.0,0.0,0.0,0.0,0.0,0.0,0.0,0.0,0.0,0.0,0.0,0.0,0.0,0.0,0.0,0.0,0.0,0.0,0.0,0.0,0.0,0.0,-1.2006,-1.2596,-1.3125,-1.3329,-1.3159,-1.244,-1.1592,0.0,0.0,0.0,0.0,0.0,0.0,0.0,0.0,0.0,0.0,0.0,0.0,0.0,0.0,0.0,0.0,0.0,0.0,0.0,0.0,0.0,0.0,0.0,0.0,0.0,0.0,0.0,0.0,0.0,0.0,0.0,0.0,0.0,0.0,0.0,0.0,0.0,0.0,0.0,0.0,0.0,0.0,0.0,0.0,0.0,0.0,0.0,0.0,0.0,0.0,0.0,0.0,0.0,0.0,0.0,0.0,0.0,0.0,0.0,0.0,0.0,0.0,0.0,0.0,0.0,0.0,0.0,0.0,0.0,0.0,0.0,0.0,0.0,0.0,0.0,0.0,0.0,0.0,0.0,0.0,0.0,0.0,0.0,0.0,0.0,0.0,0.0,0.0,0.0,0.0,0.0,0.0,0.0,0.0,0.0,0.0,0.0,0.0,0.0,0.0,0.0,0.0,0.0,0.0,0.0,0.0,0.0,-1.124,-1.2088,-1.2745,-1.3159,-1.3295,-1.3139,-1.2589,-1.1796,-1.0765,0.0,0.0,0.0,0.0,0.0,0.0,0.0,0.0,0.0,0.0,0.0,0.0,0.0,0.0,0.0,0.0,0.0,0.0,0.0,0.0,0.0,0.0,0.0,0.0,0.0,0.0,0.0,0.0,0.0,0.0,0.0,0.0,0.0,0.0,0.0,0.0,0.0,0.0,-1.4534,-1.3774,0.0,0.0,0.0,0.0,0.0,0.0,0.0,0.0,-1.6593,0.0,0.0,0.0,0.0,0.0,0.0,0.0,0.0,0.0,0.0,0.0,0.0,0.0,0.0,0.0,0.0,0.0,0.0,0.0,0.0,0.0,0.0,0.0,0.0,0.0,0.0,0.0,0.0,0.0,0.0,0.0,0.0,0.0,0.0,0.0,0.0,0.0,0.0,0.0,0.0,0.0,0.0,0.0,0.0,0.0,0.0,0.0,0.0,0.0,0.0,0.0,0.0,0.0,0.0,0.0,0.0,-1.1029,-1.1301,-1.1938,-1.2895,-1.3112,-1.3139,-1.299,-1.2535,-1.1796,-1.0765,0.0,0.0,0.0,0.0,0.0,0.0,0.0,0.0,0.0,0.0,0.0,0.0,0.0,0.0,0.0,0.0,0.0,0.0,0.0,0.0,0.0,0.0,0.0,0.0,0.0,0.0,0.0,0.0,0.0,0.0,0.0,0.0,0.0,0.0,0.0,0.0,0.0,0.0,0.0,-1.6242,-1.6193,0.0,0.0,0.0,0.0,0.0,0.0,0.0,0.0,-1.67,0.0,0.0,0.0,0.0,0.0,0.0,0.0,0.0,0.0,0.0,0.0,0.0,0.0,0.0,0.0,0.0,0.0,0.0,0.0,0.0,0.0,0.0,0.0,0.0,0.0,0.0,0.0,0.0,0.0,0.0,0.0,0.0,0.0,0.0,0.0,0.0,0.0,0.0,0.0,0.0,0.0,0.0,0.0,0.0,0.0,0.0,0.0,0.0,0.0,0.0,0.0,0.0,0.0,0.0,0.0,-1.0677,-1.1452,-1.2094,-1.2813,-1.3057,-1.3064,-1.2834,-1.2182,-1.1477,0.0,0.0,0.0,0.0,0.0,0.0,0.0,0.0,0.0,0.0,0.0,0.0,0.0,0.0,0.0,0.0,0.0,0.0,0.0,0.0,0.0,0.0,0.0,0.0,0.0,0.0,0.0,0.0,0.0,0.0,0.0,0.0,0.0,0.0,0.0,0.0,0.0,0.0,0.0,0.0,-1.6235,-1.6404,-1.6787,0.0,0.0,0.0,0.0,0.0,0.0,-1.6967,-1.6687,0.0,0.0,0.0,0.0,0.0,0.0,0.0,0.0,0.0,0.0,0.0,0.0,0.0,0.0,0.0,0.0,0.0,0.0,0.0,0.0,0.0,0.0,0.0,0.0,0.0,0.0,0.0,0.0,0.0,0.0,0.0,0.0,0.0,0.0,0.0,0.0,0.0,0.0,0.0,0.0,0.0,0.0,0.0,0.0,0.0,0.0,0.0,0.0,0.0,0.0,0.0,0.0,0.0,0.0,0.0,-1.029,-1.1335,-1.2162,-1.2705,-1.2963,-1.2956,-1.2678,-1.1898,-1.1212,0.0,0.0,0.0,0.0,0.0,0.0,0.0,0.0,0.0,0.0,0.0,0.0,0.0,0.0,0.0,0.0,0.0,0.0,0.0,0.0,0.0,0.0,0.0,0.0,0.0,0.0,0.0,0.0,0.0,0.0,0.0,0.0,0.0,0.0,0.0,0.0,0.0,0.0,0.0,0.0,0.0,-1.6777,-1.6646,-1.7478,0.0,0.0,0.0,0.0,-1.7514,-1.7301,0.0,0.0,0.0,0.0,0.0,0.0,0.0,0.0,0.0,0.0,0.0,0.0,0.0,0.0,0.0,0.0,0.0,0.0,0.0,0.0,0.0,0.0,0.0,0.0,0.0,0.0,0.0,0.0,0.0,0.0,0.0,0.0,0.0,0.0,0.0,0.0,0.0,0.0,0.0,0.0,0.0,0.0,0.0,0.0,0.0,0.0,0.0,0.0,0.0,0.0,0.0,0.0,0.0,0.0,0.0,0.0,-1.0263,-1.0995,-1.1742,-1.2671,-1.2766,-1.2698,-1.2528,-1.204,-1.1321,0.0,0.0,0.0,0.0,0.0,0.0,0.0,0.0,0.0,0.0,0.0,0.0,0.0,0.0,0.0,0.0,0.0,0.0,0.0,0.0,0.0,0.0,0.0,0.0,0.0,0.0,0.0,0.0,0.0,0.0,0.0,0.0,0.0,0.0,0.0,0.0,0.0,0.0,0.0,0.0,0.0,-1.9087,-1.8361,-1.8565,-1.8704,0.0,0.0,-1.8063,-1.8637,-1.8691,0.0,0.0,0.0,0.0,0.0,0.0,0.0,0.0,0.0,0.0,0.0,0.0,0.0,0.0,0.0,0.0,0.0,0.0,0.0,0.0,0.0,0.0,0.0,0.0,0.0,0.0,0.0,0.0,0.0,0.0,0.0,0.0,0.0,0.0,0.0,0.0,0.0,0.0,0.0,0.0,0.0,0.0,0.0,0.0,0.0,0.0,0.0,0.0,0.0,0.0,0.0,0.0,0.0,0.0,0.0,-0.9395,-1.027,-1.1111,-1.1884,-1.2569,-1.2684,-1.2617,-1.2386,-1.1701,-1.1002,0.0,0.0,0.0,0.0,0.0,0.0,0.0,0.0,0.0,0.0,0.0,0.0,0.0,0.0,0.0,0.0,0.0,0.0,0.0,0.0,0.0,0.0,0.0,0.0,0.0,0.0,0.0,0.0,0.0,0.0,0.0,0.0,0.0,0.0,0.0,0.0,0.0,0.0,0.0,0.0,0.0,0.0,-1.9212,-1.9199,0.0,0.0,0.0,-1.8677,-1.9105,0.0,0.0,0.0,0.0,0.0,0.0,0.0,0.0,0.0,0.0,0.0,0.0,0.0,0.0,0.0,0.0,0.0,0.0,0.0,0.0,0.0,0.0,0.0,0.0,0.0,0.0,0.0,0.0,0.0,0.0,0.0,0.0,0.0,0.0,0.0,0.0,0.0,0.0,0.0,0.0,0.0,0.0,0.0,0.0,0.0,0.0,0.0,0.0,0.0,0.0,0.0,0.0,0.0,0.0,0.0,0.0,0.0,-1.0222,-1.1246,-1.1999,-1.2433,-1.2562,-1.2494,-1.223,-1.147,0.0,0.0,0.0,0.0,0.0,0.0,0.0,0.0,0.0,0.0,0.0,0.0,0.0,0.0,0.0,0.0,0.0,0.0,0.0,0.0,0.0,0.0,0.0,0.0,0.0,0.0,0.0,-1.3786,0.0,0.0,0.0,0.0,0.0,0.0,0.0,0.0,0.0,0.0,0.0,0.0,0.0,0.0,-1.8865,-1.9586,-1.9626,-1.9693,0.0,0.0,-1.9305,-1.9452,-1.9225,-1.8704,0.0,0.0,0.0,0.0,0.0,0.0,0.0,0.0,0.0,0.0,0.0,0.0,0.0,0.0,0.0,0.0,0.0,0.0,0.0,0.0,0.0,0.0,0.0,0.0,0.0,0.0,0.0,0.0,0.0,0.0,0.0,0.0,0.0,0.0,0.0,0.0,0.0,0.0,0.0,0.0,0.0,0.0,0.0,0.0,0.0,0.0,0.0,0.0,0.0,0.0,0.0,0.0,0.0,0.0,0.0,-1.0142,-1.1097,-1.185,-1.2284,-1.2311,-1.2244,-1.2074,-1.1613,-1.0887,0.0,0.0,0.0,0.0,0.0,0.0,0.0,0.0,0.0,0.0,0.0,0.0,0.0,0.0,0.0,0.0,0.0,0.0,0.0,0.0,0.0,0.0,0.0,0.0,0.0,0.0,0.0,0.0,0.0,0.0,0.0,0.0,0.0,0.0,0.0,0.0,0.0,0.0,0.0,0.0,0.0,-1.9011,-1.9345,-1.984,-2.0281,0.0,0.0,-2.0067,-1.9813,-2.0187,-1.9867,-1.7903,0.0,0.0,0.0,0.0,0.0,0.0,0.0,0.0,0.0,0.0,0.0,0.0,0.0,0.0,0.0,0.0,0.0,0.0,0.0,0.0,0.0,0.0,0.0,0.0,0.0,0.0,0.0,0.0,0.0,0.0,0.0,0.0,0.0,0.0,0.0,0.0,0.0,0.0,0.0,0.0,0.0,0.0,0.0,0.0,0.0,0.0,0.0,0.0,0.0,0.0,0.0,0.0,0.0,-0.9361,-1.0046,-1.0995,-1.1694,-1.2128,-1.2149,-1.2074,-1.1925,-1.1579,-1.0941,0.0,0.0,0.0,0.0,0.0,0.0,0.0,0.0,0.0,0.0,0.0,0.0,0.0,0.0,0.0,0.0,0.0,0.0,0.0,0.0,0.0,0.0,0.0,0.0,0.0,0.0,0.0,0.0,-1.4563,-1.4389,-1.4202,0.0,0.0,0.0,0.0,0.0,0.0,0.0,0.0,0.0,0.0,-1.9158,-1.9813,-2.0241,0.0,0.0,-2.0695,-2.0468,-2.0361,-1.992,-1.9199,-1.8036,-1.7154,0.0,0.0,0.0,0.0,0.0,0.0,0.0,0.0,0.0,0.0,0.0,0.0,0.0,0.0,0.0,0.0,0.0,0.0,0.0,0.0,0.0,0.0,0.0,0.0,0.0,0.0,0.0,0.0,0.0,0.0,0.0,0.0,0.0,0.0,0.0,0.0,0.0,0.0,0.0,0.0,0.0,0.0,0.0,0.0,0.0,0.0,0.0,0.0,0.0,0.0,0.0,0.0,-0.9229,-0.9916,-1.0914,-1.1586,-1.1986,-1.1993,-1.1938,-1.183,-1.1497,-1.0941,0.0,0.0,0.0,0.0,0.0,0.0,0.0,0.0,0.0,0.0,0.0,0.0,0.0,0.0,0.0,0.0,0.0,0.0,0.0,0.0,0.0,0.0,0.0,0.0,0.0,0.0,0.0,0.0,-1.479,-1.4456,-1.4162,0.0,0.0,0.0,0.0,0.0,0.0,0.0,0.0,0.0,0.0,-1.9305,-2.0,-2.0428,-2.0708,-2.0828,-2.0668,-2.0481,-2.0307,-1.9666,-1.8891,-1.8023,0.0,0.0,0.0,0.0,0.0,0.0,0.0,0.0,0.0,0.0,0.0,0.0,0.0,0.0,0.0,0.0,0.0,0.0,0.0,0.0,0.0,0.0,0.0,0.0,0.0,0.0,0.0,0.0,0.0,0.0,0.0,0.0,0.0,0.0,0.0,0.0,0.0,0.0,0.0,0.0,0.0,0.0,0.0,0.0,0.0,0.0,0.0,0.0,0.0,0.0,0.0,0.0,0.0,-0.9181,-0.9829,-1.086,-1.1531,-1.1823,-1.1837,-1.1823,-1.1809,-1.1402,-1.088,-1.0276,0.0,0.0,0.0,0.0,0.0,0.0,0.0,0.0,0.0,0.0,0.0,0.0,0.0,0.0,0.0,0.0,0.0,0.0,0.0,0.0,0.0,0.0,0.0,0.0,0.0,0.0,-1.4549,-1.3986,-1.3547,0.0,0.0,0.0,0.0,0.0,0.0,0.0,0.0,0.0,0.0,-1.8597,-1.9466,-1.9773,-2.0307,-2.0588,-2.0321,-2.0267,-2.0054,-1.9591,-1.9613,-1.9292,0.0,0.0,0.0,0.0,0.0,0.0,0.0,0.0,0.0,0.0,0.0,0.0,0.0,0.0,0.0,0.0,0.0,0.0,0.0,0.0,0.0,0.0,0.0,0.0,0.0,0.0,0.0,-0.9395,-0.9051,0.0,0.0,0.0,0.0,0.0,0.0,0.0,0.0,0.0,0.0,0.0,-1.0209,-1.05,0.0,0.0,0.0,0.0,0.0,0.0,0.0,0.0,0.0,0.0,0.0,0.0,-0.9374,-0.9916,-1.0812,-1.1389,-1.1674,-1.1592,-1.1538,-1.1531,-1.1206,-1.0649,-0.9856,0.0,0.0,0.0,0.0,0.0,0.0,0.0,0.0,0.0,0.0,0.0,0.0,0.0,0.0,0.0,0.0,0.0,0.0,0.0,0.0,0.0,0.0,0.0,0.0,0.0,-1.4509,0.0,0.0,0.0,0.0,0.0,0.0,0.0,0.0,0.0,0.0,0.0,-1.7408,-1.8103,-1.9038,-1.9693,-1.9786,-2.0307,-2.0641,0.0,0.0,0.0,0.0,0.0,0.0,0.0,0.0,0.0,0.0,0.0,0.0,0.0,0.0,-1.7728,-1.5631,-1.5097,-1.5062,-1.5263,0.0,0.0,0.0,0.0,0.0,0.0,0.0,0.0,0.0,0.0,0.0,0.0,0.0,0.0,-1.0012,0.0,-1.116,0.0,0.0,0.0,0.0,0.0,0.0,0.0,0.0,-1.0636,-1.1361,-1.197,-1.1601,-1.1572,0.0,-1.213,-1.1185,0.0,0.0,0.0,0.0,0.0,0.0,0.0,0.0,-0.9449,-0.999,-1.0738,-1.1212,-1.1443,-1.1362,-1.1314,-1.1307,-1.1023,-1.0521,-0.9788,-0.9286,-0.8838,0.0,0.0,0.0,0.0,0.0,0.0,0.0,0.0,0.0,0.0,0.0,0.0,0.0,0.0,0.0,0.0,0.0,0.0,0.0,0.0,0.0,0.0,0.0,-1.4589,0.0,0.0,0.0,0.0,0.0,0.0,0.0,0.0,0.0,-1.6589,-1.7435,-1.8263,-1.8865,-1.9533,-1.9907,-1.9813,0.0,0.0,0.0,0.0,0.0,0.0,0.0,-1.9025,-1.8824,-1.8372,-1.7996,-1.8009,-1.8611,-1.8918,-1.8424,0.0,0.0,-1.6871,-1.6326,-1.6259,-1.6433,-1.67,-1.6887,-1.6887,-1.7326,-1.7555,0.0,0.0,0.0,0.0,0.0,0.0,0.0,0.0,-1.0582,-1.0643,0.0,-1.2351,0.0,0.0,0.0,0.0,0.0,0.0,0.0,0.0,-1.1416,-1.2846,-1.4502,-1.27,-1.2764,-1.4441,-1.2723,-1.1351,-1.0545,-1.1265,0.0,0.0,0.0,0.0,0.0,0.0,-0.9586,-1.0128,-1.0715,-1.1091,-1.1234,-1.1227,-1.1151,-1.1207,-1.0867,-1.0514,-1.0149,-0.9781,-0.9354,-0.8764,-0.8251,0.0,0.0,0.0,0.0,0.0,0.0,0.0,0.0,0.0,0.0,0.0,0.0,0.0,0.0,0.0,0.0,0.0,0.0,0.0,0.0,-1.479,0.0,0.0,0.0,0.0,0.0,0.0,0.0,0.0,0.0,0.0,-1.7353,-1.825,-1.9172,-1.972,0.0,0.0,0.0,0.0,-2.0087,-1.9893,-2.0067,-2.016,-1.988,-2.004,-2.0,-1.9479,0.0,0.0,-1.8195,-1.8811,-1.9105,-1.8209,-1.8542,-1.9025,-1.9252,-1.8718,-1.8384,-1.8397,-1.8183,-1.8022,-1.8022,-1.8263,-1.849,-1.7797,0.0,0.0,0.0,0.0,-1.1497,-1.1694,-1.2081,-1.1972,-1.1714,-1.1418,-1.2673,0.0,0.0,0.0,0.0,0.0,0.0,-1.0989,-1.1314,-1.1782,-1.2345,-1.3049,-1.2456,-1.3103,-1.4813,-1.5266,-1.4614,-1.3197,-1.4235,-1.266,-0.8611,0.0,0.0,0.0,0.0,-1.18,-1.2187,-1.2576,-1.2225,-1.1227,-1.1063,-1.0955,-1.0853,-1.0765,-1.0609,-1.0371,-1.0188,-0.9863,-0.9374,-0.8818,0.0,0.0,0.0,0.0,0.0,0.0,0.0,0.0,0.0,0.0,0.0,0.0,0.0,0.0,0.0,0.0,0.0,0.0,0.0,-1.4821,-1.491,-1.5022,0.0,0.0,0.0,0.0,0.0,0.0,0.0,0.0,0.0,-1.8971,-1.9506,-1.984,0.0,0.0,-2.0361,-1.9867,-2.0227,-2.0521,-2.0441,0.0,0.0,0.0,-2.0147,-1.9947,-1.9973,-1.9987,-1.976,-1.9105,-1.9372,-1.9533,-1.9065,-1.9118,-1.9265,-1.9305,-1.8891,-1.8531,-1.8504,-1.8584,-1.8664,-1.8691,-1.8905,-1.9105,-1.9524,-1.5512,-1.702,-1.6619,-1.4934,-1.3943,-1.3748,-1.396,-1.3014,-1.2916,-1.3484,-1.3984,-1.342,-1.2073,-1.1717,0.0,0.0,0.0,-1.1477,-1.1803,-1.204,-1.2677,-1.3489,-1.2692,-1.3251,-1.49,-1.4966,-1.4265,-1.3114,-1.3874,-1.2521,-0.9353,0.0,0.0,-1.1846,-1.3044,-1.3474,-1.3093,-1.3341,-1.2618,-1.105,-1.09,-1.0745,-1.0724,-1.0717,-1.0649,-1.05,-1.0358,-1.01,-0.9707,-0.9178,-0.8615,0.0,0.0,0.0,0.0,0.0,0.0,0.0,0.0,0.0,0.0,0.0,-1.3626,-1.2906,0.0,0.0,0.0,-1.4255,-1.4963,-1.5431,-1.5732,0.0,0.0,0.0,0.0,0.0,0.0,0.0,-1.8009,-1.8838,-1.9506,-1.992,-2.0321,-2.0521,-2.0347,-2.0521,-2.0548,-2.0201,0.0,-2.0668,-2.0668,-2.0775,-2.0842,-2.0842,-2.0561,-2.0307,-2.0241,-2.0134,-1.9907,-1.9537,-1.9578,-1.9559,-1.9484,-1.943,-1.943,-1.943,-1.9078,-1.8838,-1.8838,-1.8971,-1.9092,-1.9105,-1.9252,-1.943,-2.1388,-2.1202,-2.2222,-2.132,-1.9105,-1.6928,-1.599,-1.5903,-1.372,-1.4112,-1.6343,-1.5585,-1.5219,-1.4891,-1.2399,0.0,0.0,-1.1742,-1.1945,-1.2101,-1.2237,-1.3428,-1.5378,-1.3474,-1.3454,-1.5276,-1.3197,-1.2028,-1.1698,-1.1671,-1.118,-1.0442,-1.1773,-1.256,-1.2672,-1.4363,-1.4524,-1.3127,-1.3362,-1.261,-1.079,-1.0717,-1.0711,-1.0704,-1.0704,-1.0622,-1.046,-1.0331,-1.012,-0.9815,-0.9388,-0.8948,-0.8381,0.0,0.0,0.0,0.0,0.0,0.0,0.0,0.0,0.0,0.0,0.0,0.0,0.0,0.0,0.0,-1.5345,0.0,-1.6362,-1.6884,0.0,0.0,0.0,-1.6954,-1.738,-1.813,-1.8677,-1.8998,0.0,0.0,0.0,0.0,-2.1109,-2.1109,-2.0882,-2.0695,-2.0681,-2.0695,-2.0708,-2.0722,-2.0935,-2.1082,-2.1015,-2.0962,-2.0735,-2.0254,-1.9973,-1.972,-1.9497,-1.943,-1.943,-1.943,-1.943,-1.943,-1.943,-1.9403,-1.9417,-1.939,-1.9403,-1.9417,-1.9403,-1.9417,-1.943,-2.541,-2.3789,-2.409,-2.1731,-1.7613,-1.5262,-1.5126,-1.6492,-1.4259,-1.4423,-1.6288,-1.4445,-1.3389,-1.2964,-1.2254,-1.1932,-1.2081,-1.2149,-1.2257,-1.2393,-1.2433,-1.3531,-1.5446,-1.4686,-1.5319,-1.7083,-1.6367,-1.5159,-1.3736,-1.3598,-1.2743,-1.1324,-1.2539,-1.3012,-1.2706,-1.4673,-1.4897,-1.3257,-1.4595,-1.3774,-1.085,-1.0717,-1.0663,-1.0548,-1.0548,-1.0426,-1.0168,-1.0058,-0.9903,-0.9673,-0.9334,-0.9043,-0.8621,-0.7896,0.0,0.0,0.0,0.0,0.0,0.0,0.0,0.0,0.0,-1.4897,-1.3427,0.0,-1.5271,0.0,-1.5992,-1.662,-1.6965,-1.7112,0.0,0.0,-1.7996,-1.8116,-1.9052,-1.9158,-1.9359,-1.9807,-2.0361,-2.0735,-2.0882,-2.1015,-2.1109,-2.1109,-2.1042,-2.0935,-2.0722,-2.0869,-2.1002,-2.1002,-2.1056,-2.1029,-2.0815,-2.0588,-2.0321,-1.996,-1.984,-1.9706,-1.947,-1.943,-1.943,-1.943,-1.943,-1.943,-1.943,-1.943,-1.943,-1.943,-1.943,-1.943,-1.943,-1.943,-1.943,-2.7448,-2.6151,-2.5117,-2.3143,-2.0327,-1.6757,-1.5845,-1.6676,-1.4448,-1.4571,-1.6487,-1.5985,-1.5041,-1.3922,-1.4649,-1.5002,-1.5093,-1.5093,-1.5142,-1.5157,-1.4253,-1.4935,-1.6809,-1.5523,-1.5497,-1.6653,-1.6177,-1.5,-1.323,-1.3066,-1.2496,-1.1459,-1.2109,-1.2296,-1.2001,-1.4567,-1.5014,-1.3325,-1.3456,-1.2676,-1.0784,-1.0717,-1.0649,-1.05,-1.0493,-1.0317,-0.9958,-0.9951,-0.9781,-0.9422,-0.9184,-0.8954,-0.8716,-0.8721,-0.8942,0.0,0.0,0.0,0.0,0.0,0.0,0.0,0.0,0.0,0.0,0.0,-1.6086,0.0,-1.7181,0.0,-1.8157,-1.837,-1.8784,-1.9439,-1.9154,-1.9274,-2.0107,-2.0054,-2.012,-2.0575,-2.0762,-2.0922,-2.1082,-2.1109,-2.1109,-2.1109,-2.1109,-2.1056,-2.0922,-2.1015,-2.1109,-2.1109,-2.1002,-2.0815,-2.0521,-2.0227,-1.9987,-1.9826,-1.9693,-1.9546,-1.9457,-1.943,-1.943,-1.943,-1.943,-1.943,-1.943,-1.943,-1.943,-1.943,-1.943,-1.943,-1.943,-1.943,-1.943,-2.8052,-2.7532,-2.5556,-2.4508,-2.3875,-1.9316,-1.7449,-1.7618,-1.4705,-1.4623,-1.6704,-1.8163,-1.7879,-1.6311,-1.7616,-1.8194,-1.8194,-1.7967,-1.7815,-1.7739,-1.5922,-1.6218,-1.8098,-1.597,-1.4982,-1.5047,-1.461,-1.3452,-1.1619,-1.1619,-1.1545,-1.1389,-1.1233,-1.109,-1.1016,-1.3813,-1.4623,-1.3325,-1.1563,-1.0717,-1.0717,-1.0717,-1.0636,-1.0473,-1.0446,-1.0222,-0.9788,-0.9768,-0.9578,-0.9234,-0.9049,-0.8927,-0.8771,-0.9725,-1.0297,0.0,-1.1589,0.0,0.0,0.0,0.0,0.0,0.0,0.0,0.0,-1.6941,-1.7248,-1.7716,-1.8571,-1.9172,-1.9457,-1.992,-2.0254,-2.0281,-2.0281,-2.0414,-2.0695,-2.0735,-2.0828,-2.1082,-2.1109,-2.1109,-2.1109,-2.1109,-2.1109,-2.1109,-2.1109,-2.1096,-2.1096,-2.1069,-2.1029,-2.1056,-2.0775,-2.0441,-2.0214,-1.9933,-1.9733,-1.9706,-1.9546,-1.943,-1.943,-1.943,-1.943,-1.943,-1.943,-1.943,-1.943,-1.943,-1.943,-1.943,-1.943,-1.943,-1.943,-1.943,-1.943,-2.7096,-2.5385,-2.4861,-2.3652,-2.1611,-1.8551,-1.9287,-2.2063,-1.6063,-1.4616,-1.654,-1.657,-1.7326,-1.8358,-1.6839,-1.6066,-1.5989,-1.4399,-1.3645,-1.3645,-1.3267,-1.4176,-1.5972,-1.5308,-1.4982,-1.5038,-1.461,-1.3452,-1.1619,-1.1619,-1.1538,-1.1389,-1.124,-1.109,0.0,0.0,0.0,0.0,-1.1563,-1.0717,-1.0717,-1.0717,-1.0595,-1.0331,-1.0195,0.0,-0.9496,-0.9462,-0.9367,-0.9228,-0.9245,0.0,0.0,0.0,0.0,0.0,0.0,0.0,0.0,0.0,0.0,0.0,-1.794,-1.7662,-1.7206,-1.8211,-1.8811,-1.8704,-1.9466,-1.9907,-1.9733,-2.0027,-2.0334,-2.0561,-2.0588,-2.0708,-2.0989,-2.1029,-2.1056,-2.1096,-2.1109,-2.1109,-2.1109,-2.1109,-2.1109,-2.1109,-2.1109,-2.1109,-2.1096,-2.0909,-2.0762,-2.0722,-2.0321,-1.9973,-1.9893,-1.9639,-1.9479,-1.9439,-1.9412,-1.943,-1.943,-1.943,-1.943,-1.943,-1.943,-1.943,-1.943,-1.943,-1.9417,-1.9417,-1.9417,-1.943,-1.943,-1.9417,-1.943,-2.7532,0.0,-2.6418,-2.5034,0.0,-2.0115,-2.0169,-2.1706,-1.5881,-1.3969,-1.517,-1.6914,-1.8227,-1.9131,-1.9883,-2.0114,-1.993,-1.895,-1.8487,-1.8335,-1.6339,-1.6446,-1.8305,-1.5901,-1.4855,-1.5057,-1.556,-1.4787,-1.3024,-1.296,-1.294,-1.2772,-1.1719,-1.109,-1.088,-1.0799,-1.1108,-1.2018,-1.1108,-1.0717,-1.0717,-1.0717,-1.0616,-1.0392,0.0,0.0,0.0,0.0,0.0,0.0,0.0,0.0,0.0,0.0,0.0,-1.4007,-1.5844,-1.713,-1.7569,-1.8397,-1.9025,-1.9332,-1.9492,-1.9199,-1.8372,-1.9065,-1.9639,-1.9786,-2.0201,-2.0454,-2.0454,-2.0588,-2.0722,-2.0869,-2.0895,-2.0962,-2.1082,-2.1109,-2.1109,-2.1109,-2.1109,-2.1109,-2.1109,-2.1109,-2.1109,-2.1109,-2.1109,-2.1056,-2.0909,-2.0775,-2.0601,-2.0294,-2.0027,-1.9746,-1.9599,-1.9479,-1.943,-1.943,-1.943,-1.943,-1.943,-1.943,-1.943,-1.943,-1.943,-1.943,-1.943,-1.943,-1.9319,-1.9185,-1.9145,-1.9092,-1.8998,-1.9158,-1.943,-2.8234,-2.8136,-2.7701,-2.6592,-2.4783,-2.1578,-1.9996,-1.942,0.0,0.0,0.0,-1.8262,-1.9796,-1.9834,-2.3049,-2.4328,-2.4031,-2.3722,-2.3574,-2.3326,-1.9606,-1.8673,-2.0066,-1.6122,-1.4285,-1.4413,-1.5586,-1.5628,-1.4432,-1.4327,-1.4429,-1.444,-1.2628,-1.1528,-1.1305,-1.0912,-1.085,-1.1108,-1.085,-1.0717,-1.0717,-1.0717,-1.0649,-1.0493,-1.0351,-1.0148,-0.9869,-0.9747,-1.0155,-1.1143,-1.0076,-1.0708,-1.3446,-1.3831,-1.4681,-1.6384,-1.8372,-1.9332,-1.9118,-1.9853,-2.0227,-2.004,-2.0468,-2.0428,-1.9712,-1.9867,-2.0227,-2.0722,-2.0748,-2.0842,-2.1082,-2.1109,-2.1109,-2.1109,-2.1109,-2.1096,-2.1109,-2.1109,-2.1109,-2.1109,-2.1109,-2.1109,-2.1109,-2.1109,-2.1109,-2.1109,-2.1109,-2.0975,-2.0681,-2.0521,-2.0294,-1.9853,-1.9706,-1.9626,-1.9439,-1.943,-1.943,-1.943,-1.943,-1.943,-1.943,-1.943,-1.943,-1.943,-1.943,-1.943,-1.943,-1.943,-1.9265,-1.8985,-1.8861,-1.8838,-1.8611,-1.8865,-1.9172,-2.8234,-2.8052,-2.6066,-2.5989,-2.6742,-2.0487,-1.7504,-1.7264,-1.8454,-1.7955,-1.6385,-2.0174,-2.1857,-2.18,-2.2023,-2.2085,-2.19,-2.0241,-1.9403,0.0,-1.6917,-1.5852,-1.5975,-1.3428,-1.2189,-1.2255,-1.2395,-1.3103,-1.4273,-1.4201,-1.4787,-1.5885,-1.4203,-1.3086,-1.2856,-1.1446,-1.1439,-1.2865,-1.1497,-1.0717,-1.0717,-1.0717,-1.0649,-1.0493,-1.0358,-1.0202,-1.0087,-1.006,-1.0088,-1.0169,-1.0177,-1.0984,-1.2708,-1.4,-1.5375,-1.702,-1.877,-1.972,-1.9693,-2.0267,-2.0708,-2.0909,-2.1002,-2.0882,-2.0535,-2.0762,-2.0962,-2.1042,-2.1029,-2.1056,-2.1109,-2.1109,-2.1109,-2.1109,-2.1109,-2.1109,-2.1109,-2.1109,-2.1109,-2.1109,-2.1109,-2.1109,-2.1109,-2.1109,-2.1109,-2.1109,-2.1042,-2.0895,-2.0401,-2.008,-1.98,-1.9519,-1.9484,-1.947,-1.943,-1.943,-1.943,-1.943,-1.943,-1.943,-1.943,-1.9403,-1.939,-1.9417,-1.9377,-1.9377,-1.939,-1.943,-1.9185,-1.8931,-1.8795,-1.8771,-1.849,-1.8531,-1.8611,-2.8234,-2.8039,-2.6858,-2.5347,-2.364,-1.894,-1.6808,-1.6975,-2.022,-2.0382,-1.8732,-2.1309,-2.2428,-2.2353,-2.314,-2.3403,-2.319,-2.2273,-2.1754,-2.1452,-1.9338,-1.7693,-1.647,-1.4252,-1.2713,-1.178,-1.2711,-1.4085,-1.575,-1.5626,-1.6382,-1.7781,-1.4987,-1.3343,-1.3202,-1.1563,-1.1115,-1.1828,-1.1115,-1.0717,-1.0717,-1.0717,-1.0683,-1.0616,-1.0473,-1.0365,-1.0297,-1.0279,-1.0608,-1.1408,-1.0735,-1.1807,-1.5053,-1.5156,-1.6215,-1.8633,-1.9745,-2.0267,-2.0281,-2.0668,-2.0975,-2.1096,-2.1109,-2.1056,-2.0922,-2.1029,-2.1109,-2.1109,-2.1109,-2.1109,-2.1109,-2.1109,-2.1109,-2.1109,-2.1109,-2.1109,-2.1109,-2.1109,-2.1109,-2.1109,-2.1109,-2.1109,-2.1109,-2.1109,-2.1109,-2.1082,-2.0869,-2.0481,-2.0067,-1.976,-1.9591,-1.9457,-1.943,-1.943,-1.943,-1.943,-1.943,-1.943,-1.943,-1.943,-1.9403,-1.9265,-1.9145,-1.9105,-1.9011,-1.8905,-1.8905,-1.8891,-1.8758,-1.8531,-1.8395,-1.8275,-1.809,-1.7996,-1.8063,-2.8234,-2.811,-2.7231,-2.4449,-2.0536,-1.8831,-1.8109,-1.8435,-2.1673,-2.2384,-2.1574,-2.2776,-2.2955,-2.2508,-2.4212,-2.485,-2.4649,-2.4636,-2.4402,-2.3964,-2.1896,-1.9742,-1.7643,-1.5435,-1.3381,-1.19,-1.3095,-1.4716,-1.6375,-1.6619,-1.7573,-1.8691,-1.601,-1.4297,-1.384,-1.215,-1.1439,-1.1762,-1.1108,-1.0717,-1.0717,-1.0717,-1.0717,-1.0711,-1.0609,-1.0541,-1.0534,-1.0439,-1.0941,-1.2075,-1.1445,-1.2902,-1.6783,-1.6471,-1.7343,-2.0012,-2.0641,-2.0775,-2.0788,-2.0975,-2.1109,-2.1109,-2.1109,-2.1109,-2.1109,-2.1109,-2.1109,-2.1109,-2.1109,-2.1109,-2.1109,-2.1109,-2.1109,-2.1109,-2.1109,-2.1109,-2.1109,-2.1109,-2.1109,-2.1109,-2.1109,-2.1109,-2.1109,-2.1109,-2.1082,-2.0949,-2.0561,-2.0134,-1.984,-1.9546,-1.9444,-1.943,-1.943,-1.943,-1.943,-1.943,-1.943,-1.943,-1.943,-1.9377,-1.9252,-1.9052,-1.8891,-1.8838,-1.8664,-1.8571,-1.8517,-1.8517,-1.8397,-1.8129,-1.8062,-1.7929,-1.7716,-1.7635,-1.7662,-2.8234,-2.783,-2.5685,-2.2833,-2.0488,-2.1783,-2.2327,-2.2407,-2.298,-2.4056,-2.5192,-2.5293,-2.4124,-2.2704,-2.4006,-2.4663,-2.4636,-2.4636,-2.4476,-2.3951,-2.1896,-1.9742,-1.7714,-1.5506,-1.3452,-1.1828,-1.19,-1.3031,-1.4832,-1.5922,-1.7132,-1.8436,-1.8139,-1.7023,-1.5589,-1.384,-1.3774,-1.5265,-1.2281,-1.0717,-1.0717,-1.0717,-1.0717,-1.0717,-1.0704,-1.0697,-1.069,-1.0683,-1.0743,-1.1007,-1.2227,-1.3908,-1.5907,-1.7396,-1.9015,-2.0826,-2.1042,-2.1069,-2.1069,-2.1096,-2.1109,-2.1109,-2.1109,-2.1109,-2.1109,-2.1109,-2.1109,-2.1109,-2.1109,-2.1109,-2.1109,-2.1109,-2.1109,-2.1109,-2.1109,-2.1109,-2.1109,-2.1109,-2.1109,-2.1109,-2.1109,-2.1109,-2.1109,-2.1082,-2.0989,-2.0735,-2.0414,-2.008,-1.9786,-1.9604,-1.943,-1.943,-1.943,-1.943,-1.943,-1.943,-1.943,-1.943,-1.943,-1.9279,-1.9118,-1.8971,-1.8851,-1.8637,-1.8464,-1.841,-1.8424,-1.8477,-1.8343,-1.805,-1.7956,-1.7929,-1.7675,-1.7582,-1.7622,-2.8234,-2.8012,-2.662,-2.4432,-2.2162,-2.2774,-2.314,-2.322,-2.4522,-2.5412,-2.5854,-2.5638,-2.4877,-2.3985,-2.4438,-2.4636,-2.4636,-2.4636,-2.4382,-2.3896,-2.3008,-2.141,-1.9093,-1.7017,-1.507,-1.3238,-1.2187,-1.2531,-1.4373,-1.5834,-1.6691,-1.6807,-1.5978,-1.507,-1.4232,-1.261,-1.261,-1.4232,-1.2931,-1.2215,-1.2091,-1.124,-1.0717,-1.0717,-1.0717,-1.0717,-1.0717,-1.0717,-1.0717,-1.0717,-1.1372,-1.2997,-1.5784,-1.656,-1.8244,-2.0779,-2.1109,-2.1109,-2.1109,-2.1109,-2.1109,-2.1109,-2.1109,-2.1109,-2.1109,-2.1109,-2.1109,-2.1109,-2.1109,-2.1109,-2.1109,-2.1109,-2.1109,-2.1109,-2.1109,-2.1109,-2.1109,-2.1109,-2.1109,-2.1109,-2.1109,-2.1109,-2.1082,-2.0962,-2.0735,-2.0454,-2.016,-1.9893,-1.9599,-1.9497,-1.9444,-1.943,-1.943,-1.943,-1.943,-1.943,-1.943,-1.943,-1.943,-1.9279,-1.9172,-1.8838,-1.8624,-1.849,-1.821,-1.8009,-1.7929,-1.7956,-1.7889,-1.7782,-1.7756,-1.7716,-1.7609,-1.7582,-1.7582,-2.8167,-2.7936,-2.7388,-2.5941,-2.4044,-2.4031,-2.4031,-2.4179,-2.5661,-2.6106,-2.5825,-2.5531,-2.5224,-2.4957,-2.473,-2.4636,-2.4636,-2.4636,-2.4329,-2.3821,-2.3781,-2.2518,-2.0098,-1.81,-1.6192,-1.4361,-1.2466,-1.2487,-1.4201,-1.5257,-1.5825,-1.5714,-1.507,-1.4484,-1.397,-1.3062,-1.3447,-1.4623,-1.4297,-1.4036,-1.3774,-1.2347,-1.1174,-1.0784,-1.0717,-1.0717,-1.0717,-1.1174,-1.1439,-1.1439,-1.2281,-1.397,-1.6366,-1.7076,-1.8448,-2.0716,-2.1109,-2.1109,-2.1109,-2.1109,-2.1109,-2.1109,-2.1109,-2.1109,-2.1109,-2.1109,-2.1109,-2.1109,-2.1109,-2.1109,-2.1109,-2.1109,-2.1109,-2.1109,-2.1109,-2.1109,-2.1109,-2.1109,-2.1109,-2.1109,-2.1109,-2.1109,-2.1069,-2.0869,-2.0588,-2.0294,-2.0,-1.9693,-1.9511,-1.943,-1.943,-1.943,-1.943,-1.943,-1.943,-1.943,-1.943,-1.9332,-1.9319,-1.9185,-1.9189,-1.8664,-1.829,-1.809,-1.7769,-1.7649,-1.7716,-1.7649,-1.7609,-1.7595,-1.7595,-1.7595,-1.7582,-1.7582,-1.7582,-2.806,-2.7642,-2.7081,-2.6587,-2.6228,-2.6149,-2.6215,-2.6017,-2.6106,-2.5825,-2.5518,-2.5251,-2.4943,-2.4676,-2.4649,-2.4636,-2.4636,-2.4636,-2.4243,-2.3665,-2.3768,-2.2505,-2.0074,-1.8089,-1.6263,-1.4645,-1.2817,-1.2455,-1.3736,-1.3951,-1.462,-1.5814,-1.7076,-1.7205,-1.6043,-1.6818,-1.8052,-1.7731,-1.6496,-1.5784,-1.5589,-1.4101,-1.2413,-1.1042,-1.0717,-1.0717,-1.085,-1.2281,-1.3128,-1.3128,-1.5978,-1.7988,-1.8448,-1.9877,-2.0779,-2.1046,-2.1109,-2.1109,-2.1109,-2.1109,-2.1109,-2.1109,-2.1109,-2.1109,-2.1109,-2.1109,-2.1109,-2.1109,-2.1109,-2.1109,-2.1109,-2.1109,-2.1109,-2.1109,-2.1109,-2.1109,-2.1109,-2.1109,-2.1109,-2.1109,-2.1109,-2.1109,-2.1096,-2.0855,-2.0548,-2.0254,-1.9973,-1.9679,-1.9511,-1.943,-1.943,-1.943,-1.943,-1.943,-1.943,-1.943,-1.943,-1.9279,-1.9105,-1.8891,-1.8571,-1.8263,-1.7996,-1.7782,-1.7675,-1.7609,-1.7595,-1.7582,-1.7595,-1.7582,-1.7582,-1.7582,-1.7582,-1.7582,-1.7582,-2.7575,-2.7121,-2.6907,-2.6653,-2.64,-2.64,-2.6279,-2.6106,-2.6077,-2.5678,-2.5277,-2.5117,-2.4917,-2.4636,-2.4636,-2.4636,-2.4636,-2.4636,-2.3645,-2.2253,-2.3255,-2.2505,-2.0237,-1.9356,-1.8089,-1.6122,-1.429,-1.2919,-1.2283,-1.3199,-1.3957,-1.4417,-1.5978,-1.6496,-1.6108,-1.6496,-1.7334,-1.8308,-1.7859,-1.7602,-1.7345,-1.5848,-1.4101,-1.2413,-1.124,-1.0717,-1.0717,-1.2347,-1.3325,-1.3325,-1.5589,-1.7334,-1.8512,-2.0132,-2.1109,-2.1109,-2.1109,-2.1109,-2.1109,-2.1109,-2.1109,-2.1109,-2.1109,-2.1109,-2.1109,-2.1109,-2.1109,-2.1109,-2.1109,-2.1109,-2.1109,-2.1109,-2.1109,-2.1109,-2.1109,-2.1109,-2.1109,-2.1109,-2.1109,-2.1109,-2.1109,-2.1109,-2.1002,-2.0695,-2.0361,-2.0214,-1.9826,-1.9533,-1.947,-1.943,-1.943,-1.943,-1.943,-1.943,-1.943,-1.943,-1.9377,-1.9132,-1.8945,-1.8784,-1.8517,-1.821,-1.7929,-1.7849,-1.7716,-1.7595,-1.7582,-1.7582,-1.7582,-1.7582,-1.7582,-1.7582,-1.7582,-1.7582,-1.7582,-2.7188,-2.6841,-2.672,-2.6573,-2.64,-2.64,-2.6226,-2.6037,-2.5852,-2.5531,-2.513,-2.4983,-2.4823,-2.4589,-2.4636,-2.4179,-2.3796,-2.424,-2.3572,-2.2025,-2.3184,-2.28,-2.1188,-2.0409,-1.9077,-1.7168,-1.5211,-1.3418,-1.2406,-1.3747,-1.4348,-1.4306,-1.5848,-1.6754,-1.6818,-1.728,-1.8244,-1.9152,-1.9343,-1.91,-1.8436,-1.6818,-1.507,-1.3325,-1.163,-1.0717,-1.0717,-1.2347,-1.3652,-1.4297,-1.5784,-1.7538,-1.9215,-2.0462,-2.1109,-2.1109,-2.1109,-2.1109,-2.1109,-2.1109,-2.1109,-2.1109,-2.1109,-2.1109,-2.1109,-2.1109,-2.1109,-2.1109,-2.1109,-2.1109,-2.1109,-2.1109,-2.1109,-2.1109,-2.1109,-2.1109,-2.1109,-2.1109,-2.1109,-2.1109,-2.1109,-2.1069,-2.0935,-2.046,-2.0241,-2.012,-1.9666,-1.9444,-1.943,-1.943,-1.943,-1.943,-1.943,-1.943,-1.943,-1.943,-1.9239,-1.9052,-1.8691,-1.8557,-1.8397,-1.8103,-1.7929,-1.7822,-1.7782,-1.7649,-1.7582,-1.7582,-1.7582,-1.7582,-1.7582,-1.7582,-1.7582,-1.7582,-1.7582,-2.6827,-2.676,-2.6507,-2.6413,-2.64,-2.64,-2.6226,-2.5905,-2.5651,-2.5358,-2.501,-2.4621,-2.4293,-2.4401,-2.3944,-2.3264,-2.2124,-2.319,-2.3413,-2.2696,-2.3327,-2.3082,-2.2035,-2.0963,-1.9217,-1.7168,-1.5016,-1.393,-1.3669,-1.5242,-1.609,-1.6213,-1.7667,-1.85,-1.85,-1.9865,-2.0843,-2.0843,-2.0843,-2.0195,-1.8576,-1.6883,-1.5135,-1.3521,-1.1696,-1.0717,-1.0784,-1.2479,-1.4232,-1.5719,-1.7538,-1.9279,-2.0589,-2.1046,-2.1109,-2.1109,-2.1109,-2.1109,-2.1109,-2.1109,-2.1109,-2.1109,-2.1109,-2.1109,-2.1109,-2.1109,-2.1109,-2.1109,-2.1109,-2.1109,-2.1109,-2.1109,-2.1109,-2.1109,-2.1109,-2.1109,-2.1109,-2.1109,-2.1109,-2.1109,-2.1096,-2.0989,-2.0722,-2.0428,-2.016,-1.988,-1.9573,-1.943,-1.943,-1.943,-1.943,-1.943,-1.943,-1.943,-1.943,-1.9403,-1.9158,-1.8945,-1.8517,-1.8237,-1.8076,-1.7836,-1.7756,-1.7702,-1.7702,-1.7582,-1.7582,-1.7582,-1.7582,-1.7582,-1.7582,-1.7582,-1.7582,-1.7582,-1.7582,-2.6707,-2.652,-2.6426,-2.64,-2.64,-2.64,-2.6119,-2.5665,-2.5545,-2.5237,-2.4512,-2.3154,-2.2509,-2.2211,-2.1141,-2.0155,-1.9629,-2.0144,-1.9531,-1.855,-2.0466,-2.0781,-1.9715,-2.1101,-2.0328,-1.7277,-1.5016,-1.3922,-1.4343,-1.6558,-1.7848,-1.8033,-1.9419,-2.0259,-2.0195,-2.0843,-2.1109,-2.1109,-2.1109,-2.0779,-2.0068,-1.7409,-1.5589,-1.4884,-1.2281,-1.0717,-1.085,-1.3521,-1.5265,-1.5913,-1.8704,-2.0526,-2.0969,-2.1109,-2.1109,-2.1109,-2.1109,-2.1109,-2.1109,-2.1109,-2.1109,-2.1109,-2.1109,-2.1109,-2.1109,-2.1109,-2.1109,-2.1109,-2.1109,-2.1109,-2.1109,-2.1109,-2.1109,-2.1109,-2.1109,-2.1109,-2.1109,-2.1109,-2.1109,-2.1109,-2.1109,-2.0975,-2.0708,-2.0401,-2.012,-1.9826,-1.9546,-1.943,-1.943,-1.943,-1.943,-1.943,-1.943,-1.9417,-1.9417,-1.9279,-1.9078,-1.8851,-1.8464,-1.805,-1.7849,-1.7716,-1.7622,-1.7582,-1.7582,-1.7582,-1.7582,-1.7582,-1.7582,-1.7582,-1.7582,-1.7582,-1.7582,-1.7582,-1.7582,-2.656,-2.64,-2.64,-2.64,-2.64,-2.64,-2.6052,-2.5558,-2.5518,-2.5184,-2.4258,-2.2509,-2.1601,-2.1216,-1.9478,-1.8194,-1.7502,-1.7435,-1.6534,-1.5827,-1.8934,-1.969,-1.8633,-2.0617,-2.034,-1.7557,-1.5775,-1.494,-1.4946,-1.7355,-1.8965,-1.9584,-2.0589,-2.1046,-2.1109,-2.1109,-2.1109,-2.1032,-2.0462,-2.0132,-1.9419,-1.6754,-1.4939,-1.4558,-1.215,-1.1181,-1.1762,-1.4428,-1.5913,-1.6496,-1.9215,-2.0969,-2.1109,-2.1109,-2.1109,-2.1109,-2.1109,-2.1109,-2.1109,-2.1109,-2.1109,-2.1109,-2.1109,-2.1109,-2.1109,-2.1109,-2.1109,-2.1109,-2.1109,-2.1109,-2.1109,-2.1109,-2.1109,-2.1109,-2.1109,-2.1109,-2.1109,-2.1109,-2.1109,-2.1109,-2.1109,-2.0909,-2.0575,-2.0374,-1.9993,-1.972,-1.9479,-1.943,-1.943,-1.943,-1.943,-1.943,-1.943,-1.9417,-1.9359,-1.9212,-1.8998,-1.8744,-1.8464,-1.805,-1.7742,-1.7662,-1.7582,-1.7582,-1.7582,-1.7582,-1.7582,-1.7582,-1.7582,-1.7582,-1.7582,-1.7582,-1.7582,-1.7582,-1.7582,-2.64,-2.64,-2.64,-2.64,-2.64,-2.64,-2.6052,-2.5571,-2.5518,-2.5184,-2.4271,-2.2509,-2.1452,-2.0991,-1.9025,-1.7132,-1.5582,-1.5211,-1.5259,-1.5901,-1.8446,-2.0,-2.0388,-2.0479,-1.9286,-1.7428,-1.7015,-1.6724,-1.6233,-1.8149,-1.9625,-2.0819,-2.0982,-2.1109,-2.1109,-2.1109,-2.0982,-2.0526,-1.9483,-1.896,-1.8308,-1.5459,-1.3578,-1.3447,-1.2025,-1.1696,-1.3062,-1.5135,-1.6302,-1.6689,-1.9546,-2.1109,-2.1109,-2.1109,-2.1109,-2.1109,-2.1109,-2.1109,-2.1109,-2.1109,-2.1109,-2.1109,-2.1109,-2.1109,-2.1109,-2.1109,-2.1109,-2.1109,-2.1109,-2.1109,-2.1109,-2.1109,-2.1109,-2.1109,-2.1109,-2.1109,-2.1109,-2.1109,-2.1109,-2.1109,-2.1082,-2.0895,-2.0313,-2.0193,-1.996,-1.9573,-1.9386,-1.943,-1.943,-1.943,-1.943,-1.943,-1.943,-1.9417,-1.9417,-1.939,-1.9118,-1.8824,-1.8475,-1.8102,-1.7702,-1.7662,-1.7582,-1.7582,-1.7582,-1.7582,-1.7582,-1.7582,-1.7582,-1.7582,-1.7582,-1.7582,-1.7252,-1.6935,-1.6882,-2.64,-2.64,-2.64,-2.64,-2.64,-2.64,-2.6052,-2.5545,-2.5504,-2.5006,-2.4271,-2.2509,-2.0767,-1.9252,-1.736,-1.5234,-1.3907,-1.3398,-1.3904,-1.5129,-1.7145,-1.9874,-2.137,-2.0686,-1.9077,-1.7568,-1.8142,-1.802,-1.6773,-1.9172,-2.076,-2.1046,-2.1109,-2.1109,-2.1109,-2.1109,-2.0386,-1.9546,-2.0132,-1.8896,-1.6689,-1.5719,-1.4558,-1.3325,-1.2865,-1.2873,-1.3587,-1.6237,-1.8448,-1.9674,-2.0462,-2.1109,-2.1109,-2.1109,-2.1109,-2.1109,-2.1109,-2.1109,-2.1109,-2.1109,-2.1109,-2.1109,-2.1109,-2.1109,-2.1109,-2.1109,-2.1109,-2.1109,-2.1109,-2.1109,-2.1109,-2.1109,-2.1109,-2.1109,-2.1109,-2.1109,-2.1109,-2.1109,-2.1109,-2.1109,-2.1109,-2.0815,-2.0414,-2.0201,-2.0,-1.9533,-1.943,-1.943,-1.943,-1.943,-1.943,-1.943,-1.943,-1.943,-1.943,-1.943,-1.9225,-1.8931,-1.8582,-1.8152,-1.7862,-1.7623,-1.7649,-1.7582,-1.7582,-1.7582,-1.7582,-1.7582,-1.7582,-1.7265,-1.6605,-1.6062,-1.5636,-1.5263,-1.537,-2.64,-2.64,-2.64,-2.64,-2.6201,-2.5359,-2.514,-2.5225,-2.4418,-2.4298,-2.4022,-2.2509,-2.0466,-1.8572,-1.736,-1.5693,-1.3992,-1.4374,-1.5759,-1.7448,-1.9222,-2.1041,-2.2255,-2.1596,-1.9843,-1.7588,-1.9001,-1.8391,-1.7219,-1.9255,-2.0592,-2.1049,-2.1109,-2.1109,-2.1109,-2.1046,-2.0259,-1.8896,-1.8832,-1.7538,-1.5014,-1.4819,-1.4362,-1.3643,-1.3905,-1.4623,-1.5719,-1.818,-2.0132,-2.0843,-2.1109,-2.1109,-2.1109,-2.1109,-2.1109,-2.1109,-2.1109,-2.1109,-2.1109,-2.1109,-2.1109,-2.1109,-2.1109,-2.1109,-2.1109,-2.1109,-2.1109,-2.1109,-2.1109,-2.1109,-2.1109,-2.1109,-2.1109,-2.1109,-2.1109,-2.1109,-2.1109,-2.1109,-2.1109,-2.1109,-2.1069,-2.0882,-2.0321,-2.0241,-1.9933,-1.9604,-1.943,-1.943,-1.943,-1.943,-1.943,-1.943,-1.943,-1.943,-1.943,-1.943,-1.8687,-1.8358,-1.7922,-1.764,-1.728,-1.7117,-1.7278,-1.7252,-1.7424,-1.7529,-1.7424,-1.7094,-1.6552,-1.6009,-1.5198,-1.4609,-1.418,-1.3965,-1.4019,-2.64,-2.64,-2.64,-2.64,-2.6017,-2.3987,-2.3807,-2.4546,-2.3035,-2.2928,-2.3612,-2.2583,-2.0841,-1.8648,-1.8723,-1.7663,-1.5514,-1.6657,-1.855,-2.0081,-2.1583,-2.2735,-2.2735,-2.2722,-2.0756,-1.8508,-1.9495,-1.8729,-1.773,-1.863,-1.9883,-2.058,-2.0832,-2.1109,-2.1109,-2.1109,-2.0132,-1.8704,-1.7988,-1.6237,-1.4428,-1.4232,-1.4362,-1.3643,-1.5394,-1.6947,-1.8448,-2.0132,-2.1032,-2.1109,-2.1109,-2.1109,-2.1109,-2.1109,-2.1109,-2.1109,-2.1109,-2.1109,-2.1109,-2.1109,-2.1109,-2.1109,-2.1109,-2.1109,-2.1109,-2.1109,-2.1109,-2.1109,-2.1109,-2.1109,-2.1109,-2.1109,-2.1109,-2.1109,-2.1109,-2.1109,-2.1109,-2.1109,-2.1109,-2.1096,-2.1096,-2.0775,-2.0441,-2.016,-1.9973,-1.9551,-1.943,-1.943,-1.943,-1.943,-1.943,-1.943,-1.943,-1.943,-1.943,-1.943,-1.8358,-1.7535,-1.6964,-1.6537,-1.6049,-1.6004,-1.6471,-1.6711,-1.6882,-1.6935,-1.6935,-1.6446,-1.553,-1.477,-1.3965,-1.3426,-1.2994,-1.2832,-1.2832,-2.64,-2.64,-2.64,-2.64,-2.6017,-2.3896,-2.3002,-2.306,-2.2312,-2.1813,-2.2396,-2.3339,-2.1751,-1.8723,-2.0005,-1.9025,-1.6326,-1.7517,-1.8752,-2.0285,-2.2112,-2.2791,-2.2859,-2.2859,-2.1596,-2.019,-2.1321,-2.0218,-1.829,-1.9413,-2.0611,-1.9557,-2.0489,-2.1109,-2.1109,-2.1046,-2.0259,-1.896,-1.9215,-1.7345,-1.4688,-1.5848,-1.5978,-1.4362,-1.6431,-1.8704,-2.0132,-2.0919,-2.1109,-2.1109,-2.1109,-2.1109,-2.1109,-2.1109,-2.1109,-2.1109,-2.1109,-2.1109,-2.1109,-2.1109,-2.1109,-2.1109,-2.1109,-2.1109,-2.1109,-2.1109,-2.1109,-2.1109,-2.1109,-2.1109,-2.1109,-2.1109,-2.1109,-2.1109,-2.1109,-2.1109,-2.1109,-2.1109,-2.1109,-2.1069,-2.0909,-2.0628,-2.0281,-2.0027,-1.9773,-1.9511,-1.943,-1.943,-1.943,-1.943,-1.943,-1.943,-1.943,-1.9301,-1.859,-1.8131,-1.6739,-1.6183,-1.5784,-1.5467,-1.4961,-1.5476,-1.6115,-1.634,-1.6287,-1.6287,-1.6009,-1.4824,-1.375,-1.321,-1.2724,-1.2136,-1.1755,-1.1647,-1.2299,-2.64,-2.64,-2.64,-2.5819,-2.4539,-2.2336,-2.1156,-2.0669,-1.949,-1.9443,-2.0478,-2.2273,-2.144,-1.9025,-2.144,-2.1216,-1.9372,-1.9954,-2.0911,-2.1641,-2.2516,-2.2859,-2.2859,-2.2722,-2.1953,-2.0686,-2.1941,-2.0872,-1.9447,-1.974,-2.0413,-1.9955,-2.0016,-2.0335,-2.0982,-2.1109,-2.0132,-1.896,-1.9279,-1.7988,-1.5589,-1.6947,-1.8576,-1.7269,-1.8768,-2.0259,-2.0982,-2.1046,-2.1109,-2.1109,-2.1109,-2.1109,-2.1109,-2.1109,-2.1109,-2.1109,-2.1109,-2.1109,-2.1109,-2.1109,-2.1109,-2.1109,-2.1109,-2.1109,-2.1109,-2.1109,-2.1109,-2.1109,-2.1109,-2.1109,-2.1109,-2.1109,-2.1109,-2.1109,-2.1109,-2.1109,-2.1109,-2.1109,-2.1109,-2.1056,-2.0869,-2.0575,-2.0267,-1.9973,-1.9693,-1.9484,-1.943,-1.943,-1.943,-1.943,-1.943,-1.943,-1.943,-1.901,-1.7923,-1.6646,-1.4834,-1.4436,-1.4334,-1.42,-1.3974,-1.4911,-1.6062,-1.5796,-1.5358,-1.5037,-1.4609,-1.3318,-1.229,-1.2028,-1.1538,-1.0891,-1.0836,-1.1592,-1.2354,-2.607,-2.6386,-2.607,-2.4815,-2.276,-2.0211,-1.8906,-1.8417,-1.6454,-1.6846,-1.8411,-2.0466,-2.0692,-1.9779,-2.2732,-2.3313,-2.2546,-2.262,-2.2907,-2.2706,-2.2722,-2.2859,-2.2859,-2.2722,-2.2297,-2.0825,-2.2091,-2.1457,-1.9995,-1.9496,-1.9724,-2.0266,-1.9426,-1.9367,-2.0386,-2.0982,-2.0462,-1.9355,-1.9291,-1.8512,-1.6947,-1.8116,-1.9546,-2.0259,-2.0589,-2.0843,-2.1046,-2.1109,-2.1109,-2.1109,-2.1109,-2.1109,-2.1109,-2.1109,-2.1109,-2.1109,-2.1109,-2.1109,-2.1109,-2.1109,-2.1109,-2.1109,-2.1109,-2.1109,-2.1109,-2.1109,-2.1109,-2.1109,-2.1109,-2.1109,-2.1109,-2.1109,-2.1109,-2.1109,-2.1109,-2.1109,-2.1109,-2.1109,-2.1109,-2.1069,-2.0855,-2.0561,-2.0267,-1.9987,-1.9693,-1.9511,-1.9457,-1.943,-1.943,-1.943,-1.943,-1.943,-1.943,-1.8706,-1.763,-1.6163,-1.4172,-1.3808,-1.3601,-1.3846,-1.3821,-1.475,-1.5624,-1.4716,-1.4234,-1.3804,-1.2994,-1.1755,-1.1055,-1.0891,-1.057,-1.0029,-1.057,-1.1592,-1.2453,-2.4681,-2.6228,-2.4442,-2.3341,-2.2303,-1.8552,-1.6704,-1.6458,-1.5786,-1.5693,-1.6523,-1.9854,-2.053,-2.0155,-2.2806,-2.4017,-2.3406,-2.3453,-2.3233,-2.2913,-2.2859,-2.2859,-2.2859,-2.2859,-2.2585,-2.2585,-2.2791,-2.1833,-2.0493,-1.9669,-1.9052,-1.805,-1.8281,-1.8844,-1.9355,-2.0259,-2.0982,-2.0399,-2.0322,-1.9546,-1.8832,-1.9483,-2.0526,-2.1109,-2.1109,-2.1109,-2.1109,-2.1109,-2.1109,-2.1109,-2.1109,-2.1109,-2.1109,-2.1109,-2.1109,-2.1109,-2.1109,-2.1109,-2.1109,-2.1109,-2.1109,-2.1109,-2.1109,-2.1109,-2.1109,-2.1109,-2.1109,-2.1109,-2.1109,-2.1109,-2.1109,-2.1109,-2.1109,-2.1109,-2.1109,-2.1109,-2.1109,-2.0906,-2.0843,-2.0703,-2.0579,-2.0561,-2.0267,-1.996,-1.9639,-1.9497,-1.9444,-1.943,-1.943,-1.943,-1.943,-1.943,-1.943,-1.846,-1.7325,-1.5751,-1.4173,-1.4097,-1.4148,-1.4844,-1.4898,-1.5106,-1.5037,-1.3911,-1.2832,-1.2073,-1.1156,-1.0241,-0.9911,-0.9809,-0.9533,-0.932,-1.0241,-1.1265,-1.2724,-2.5409,-2.6122,-2.3964,-2.2304,-2.078,-1.7641,-1.5363,-1.4493,-1.5094,-1.554,-1.6675,-1.9553,-2.1141,-2.1141,-2.3116,-2.4243,-2.3808,-2.346,-2.3153,-2.2926,-2.2859,-2.2859,-2.2859,-2.2859,-2.2859,-2.2859,-2.2791,-2.2435,-2.1465,-2.0007,-1.8965,-1.8416,-1.8434,-1.8512,-1.8896,-2.0259,-2.0969,-2.1109,-2.1046,-2.0716,-1.9877,-2.0779,-2.1032,-2.1109,-2.1109,-2.1109,-2.1109,-2.1109,-2.1109,-2.1109,-2.1109,-2.1109,-2.1109,-2.1109,-2.1109,-2.1109,-2.1109,-2.1109,-2.1109,-2.1109,-2.1109,-2.1109,-2.1109,-2.1109,-2.1109,-2.1109,-2.1032,-2.1109,-2.1109,-2.1109,-2.1109,-2.1109,-2.1109,-2.1109,-2.1109,-2.1109,-2.0906,-2.0259,-2.0068,-2.0081,-1.9998,-2.0047,-2.0241,-1.992,-1.9586,-1.9497,-1.9372,-1.9359,-1.9359,-1.8952,-1.8706,-1.8473,-1.8052,-1.6503,-1.5725,-1.4994,-1.4025,-1.4079,-1.4848,-1.5532,-1.5085,-1.484,-1.3879,-1.267,-1.1647,-1.0726,-1.0076,-0.9423,-0.9099,-0.9044,-0.9533,-0.9966,-1.0241,-1.1046,-1.2561,-2.5082,-2.4819,-2.254,-2.058,-1.8749,-1.6338,-1.4329,-1.3276,-1.4692,-1.554,-1.6066,-1.9629,-2.1601,-2.21,-2.3248,-2.4155,-2.3674,-2.3354,-2.3073,-2.2913,-2.2859,-2.2859,-2.2859,-2.2435,-2.216,-2.1953,-2.2091,-2.2545,-2.2102,-2.0453,-1.9487,-1.8998,-1.87,-1.85,-1.8832,-2.0195,-2.0843,-2.1109,-2.1109,-2.1109,-2.1109,-2.1109,-2.1109,-2.1109,-2.1109,-2.1109,-2.1109,-2.1109,-2.1109,-2.1109,-2.1109,-2.1109,-2.1109,-2.1109,-2.1109,-2.1109,-2.1109,-2.1109,-2.1109,-2.1109,-2.1109,-2.1109,-2.1109,-2.1109,-2.0906,-2.0716,-2.0589,-2.0982,-2.0589,-2.0716,-2.0982,-2.1109,-2.1109,-2.1109,-2.1109,-2.0969,-2.0652,-2.0132,-1.9419,-1.9373,-1.941,-1.9269,-1.9216,-1.9947,-1.9626,-1.9063,-1.8939,-1.9068,-1.8881,-1.776,-1.7337,-1.6973,-1.6149,-1.4302,-1.3646,-1.3944,-1.3532,-1.3732,-1.5161,-1.6513,-1.5263,-1.406,-1.291,-1.1864,-1.0836,-0.9966,-0.9265,-0.894,-0.894,-0.921,-1.0076,-1.0296,-0.9911,-1.0891,-1.2507,-2.048,-2.031,-1.8027,-1.6739,-1.6286,-1.4367,-1.3113,-1.3071,-1.502,-1.5463,-1.6294,-1.9704,-2.1751,-2.2176,-2.3207,-2.3656,-2.3394,-2.3113,-2.2939,-2.2873,-2.2859,-2.2859,-2.2585,-2.1113,-2.0894,-2.0686,-2.0548,-2.1239,-2.1568,-2.0288,-1.9357,-1.9066,-1.8894,-1.85,-1.8704,-2.0259,-2.1032,-2.1109,-2.1109,-2.1109,-2.1109,-2.1109,-2.1109,-2.1109,-2.1109,-2.1109,-2.1109,-2.1109,-2.1109,-2.1109,-2.1109,-2.1109,-2.1109,-2.1109,-2.1109,-2.1109,-2.1109,-2.1109,-2.1046,-2.0843,-2.0969,-2.0969,-2.1109,-2.1109,-2.0779,-1.9877,-1.961,-2.0982,-1.9737,-1.9546,-2.0462,-2.0906,-2.1046,-2.1109,-2.1109,-2.1109,-2.0843,-1.9674,-1.9024,-1.8546,-1.8474,-1.8123,-1.7834,-1.8914,-1.962,-1.9011,-1.8519,-1.8648,-1.8227,-1.7044,-1.5736,-1.5311,-1.4955,-1.3228,-1.3048,-1.3168,-1.3867,-1.3908,-1.5284,-1.6919,-1.5254,-1.3607,-1.2401,-1.1319,-1.0241,-0.9533,-0.9154,-0.894,-0.894,-0.9265,-0.9864,-0.9644,-0.9099,-1.0562,-1.2344,-1.9416,-1.9429,-1.828,-1.7747,-1.7585,-1.6481,-1.6,-1.6389,-1.8042,-1.894,-1.9478,-2.19,-2.3189,-2.3194,-2.3713,-2.3621,-2.3313,-2.3006,-2.2928,-2.2859,-2.2859,-2.2859,-2.2448,-2.1113,-2.0132,-1.9704,-1.9161,-1.9244,-2.0019,-2.0772,-2.0413,-1.9214,-1.9567,-1.9419,-1.896,-2.0259,-2.0906,-2.1109,-2.1109,-2.1109,-2.1109,-2.1109,-2.1109,-2.1109,-2.1109,-2.1109,-2.1109,-2.1109,-2.1109,-2.1109,-2.1109,-2.1109,-2.1109,-2.1109,-2.1109,-2.1046,-2.0068,-2.0132,-2.0779,-2.0195,-2.0322,-2.0906,-2.1109,-2.1109,-2.0716,-1.9546,-1.864,-1.9483,-1.8052,-1.7988,-1.9152,-1.961,-2.0322,-2.0652,-2.0716,-2.0716,-2.0386,-1.9419,-1.8489,-1.8012,-1.7592,-1.7366,-1.714,-1.7682,-1.8856,-1.9351,-1.8654,-1.8227,-1.7455,-1.6138,-1.4718,-1.3407,-1.3048,-1.2389,-1.2868,-1.3347,-1.4837,-1.5179,-1.5363,-1.6242,-1.4787,-1.3321,-1.1927,-1.068,-0.9588,-0.9099,-0.894,-0.943,-0.9864,-0.9754,-0.9588,-0.9533,-0.9533,-1.0186,-1.1864,-1.8038,-1.7726,-1.8039,-1.8125,-1.8192,-1.8415,-1.8497,-1.8799,-2.0542,-2.1527,-2.2136,-2.3561,-2.4376,-2.4115,-2.3848,-2.3554,-2.3193,-2.2966,-2.2886,-2.2859,-2.2859,-2.2859,-2.2297,-2.1113,-1.9773,-1.9426,-1.8089,-1.7957,-1.8914,-1.9966,-2.0323,-1.9545,-2.0438,-2.0335,-1.9877,-2.0322,-2.1109,-2.1109,-2.1109,-2.1109,-2.1109,-2.1109,-2.1109,-2.1109,-2.1109,-2.1109,-2.1109,-2.1109,-2.1109,-2.1109,-2.1109,-2.1109,-2.1109,-2.1109,-2.1109,-2.0589,-1.9291,-1.9024,-1.9801,-1.9928,-1.9674,-2.0449,-2.1109,-2.1109,-2.0792,-1.9355,-1.8244,-1.8576,-1.6431,-1.6431,-1.7334,-1.7859,-1.8244,-1.9088,-1.9865,-2.0005,-1.9941,-1.9152,-1.85,-1.807,-1.7637,-1.7152,-1.6981,-1.6836,-1.7673,-1.9148,-1.8933,-1.7948,-1.6492,-1.4896,-1.3467,-1.1976,-1.1675,-1.1675,-1.2689,-1.3586,-1.5192,-1.6272,-1.6458,-1.5739,-1.446,-1.2748,-1.1126,-0.9964,-0.8995,-0.894,-0.894,-0.9919,-1.0836,-1.057,-1.0296,-1.0186,-1.0351,-1.0781,-1.1538,-1.4951,-1.3141,-1.5113,-1.5948,-1.6177,-1.7815,-1.8723,-1.9252,-2.0916,-2.1751,-2.2124,-2.3523,-2.4302,-2.3915,-2.3728,-2.342,-2.2913,-2.2941,-2.2928,-2.2859,-2.2859,-2.2859,-2.2297,-2.1032,-1.9356,-1.8089,-1.7388,-1.7176,-1.7491,-1.9145,-2.0079,-2.0884,-2.0972,-2.0996,-2.0843,-2.0843,-2.1109,-2.1109,-2.1109,-2.1109,-2.1109,-2.1109,-2.1109,-2.1109,-2.1109,-2.1109,-2.1109,-2.1109,-2.1109,-2.1109,-2.0779,-2.1046,-2.1046,-2.0779,-2.0716,-2.0526,-1.8448,-1.864,-1.9865,-1.9483,-1.9546,-2.0449,-2.1109,-2.1109,-2.0982,-1.7988,-1.7141,-1.7859,-1.5784,-1.5135,-1.5784,-1.6237,-1.7269,-1.8308,-1.9419,-1.9419,-1.9483,-1.9343,-1.8704,-1.8244,-1.7821,-1.742,-1.6768,-1.664,-1.7032,-1.8495,-1.7528,-1.655,-1.4718,-1.3168,-1.1916,-1.0778,-1.0482,-1.0959,-1.2397,-1.3825,-1.5784,-1.6657,-1.6875,-1.5761,-1.4385,-1.2581,-1.0762,-0.9688,-0.894,-0.894,-0.9099,-1.0131,-1.0836,-1.1,-1.0945,-1.0726,-1.068,-1.0945,-1.181,-1.5146,-1.456,-1.6523,-1.7436,-1.7663,-2.0916,-2.2285,-2.236,-2.3116,-2.3426,-2.3413,-2.4056,-2.4155,-2.3808,-2.3541,-2.3273,-2.2899,-2.2859,-2.2859,-2.2859,-2.2859,-2.2859,-2.2229,-2.1183,-1.9704,-1.8787,-1.7938,-1.7833,-1.8686,-1.9002,-2.0059,-2.0928,-2.1216,-2.1122,-2.1109,-2.1109,-2.1109,-2.1109,-2.1109,-2.1109,-2.1109,-2.1109,-2.1109,-2.1109,-2.1109,-2.1109,-2.1109,-2.1109,-2.1109,-2.0779,-2.0068,-2.0195,-2.0526,-2.0005,-2.0132,-2.0652,-1.8436,-1.8896,-1.9865,-1.896,-1.818,-2.0513,-2.1109,-2.1032,-2.0779,-1.8704,-1.7216,-1.6689,-1.5654,-1.4809,-1.5524,-1.6818,-1.8116,-1.8896,-1.9088,-1.8896,-1.9024,-1.9088,-1.9279,-1.896,-1.8465,-1.7978,-1.7245,-1.6501,-1.7024,-1.7601,-1.6332,-1.5015,-1.3467,-1.1916,-1.0838,-1.0422,-1.024,-1.1314,-1.2749,-1.4599,-1.6433,-1.6751,-1.6994,-1.5495,-1.3898,-1.2618,-1.0986,-0.978,-0.894,-0.894,-0.932,-1.0296,-1.0672,-1.0562,-1.0781,-1.1055,-1.1055,-1.1164,-1.2191,-1.4935,-1.5693,-1.7739,-1.895,-1.993,-2.3116,-2.4636,-2.4636,-2.4562,-2.4636,-2.4609,-2.4329,-2.4048,-2.3754,-2.346,-2.3166,-2.2939,-2.2859,-2.2859,-2.2859,-2.2859,-2.2859,-2.2435,-2.1734,-2.0756,-1.9993,-1.9136,-1.8816,-1.953,-1.9317,-2.029,-2.1098,-2.1309,-2.1149,-2.1109,-2.1109,-2.1109,-2.1109,-2.1109,-2.1109,-2.1109,-2.1109,-2.1109,-2.1109,-2.1109,-2.1109,-2.1109,-2.1032,-2.0652,-2.0068,-1.9355,-1.896,-1.9024,-1.9152,-1.9279,-1.9483,-1.9546,-1.9419,-1.9737,-1.896,-1.7602,-1.8896,-1.9928,-2.0068,-1.9941,-1.8768,-1.6947,-1.6108,-1.5135,-1.4493,-1.4623,-1.4819,-1.5848,-1.6237,-1.7795,-1.7988,-1.8768,-1.9152,-1.9546,-1.9737,-1.9294,-1.8828,-1.6316,-1.5381,-1.5278,-1.5611,-1.475,-1.3825,-1.3108,-1.1615,-1.0301,-1.0179,-1.0422,-1.1856,-1.3526,-1.4183,-1.4767,-1.5467,-1.5408,-1.4549,-1.3173,-1.1973,-1.0892,-0.963,-0.9015,-0.896,-0.921,-0.9754,-0.9911,-0.9911,-1.0562,-1.1483,-1.1374,-1.1592,-1.2778,-1.3868,-1.5693,-1.7815,-1.9779,-2.1676,-2.3722,-2.4636,-2.4636,-2.4636,-2.4636,-2.4583,-2.4315,-2.4035,-2.3741,-2.342,-2.3113,-2.2926,-2.2859,-2.2859,-2.2859,-2.2859,-2.2859,-2.2859,-2.2366,-2.1665,-2.0479,-2.0051,-2.0178,-2.0281,-1.9927,-2.0709,-2.1306,-2.1403,-2.1109,-2.1109,-2.1109,-2.1109,-2.1109,-2.1109,-2.1109,-2.1109,-2.1109,-2.1109,-2.1109,-2.1109,-2.1109,-2.1109,-2.1109,-2.0589,-1.961,-1.896,-1.8372,-1.7731,-1.8372,-1.8704,-1.9024,-1.896,-1.9483,-2.0589,-1.9164,-1.7988,-1.7269,-1.8448,-1.85,-1.8244,-1.7141,-1.5978,-1.5265,-1.3774,-1.2084,-1.1439,-1.1828,-1.3709,-1.5135,-1.6947,-1.7859,-1.8768,-1.961,-2.0132,-2.0322,-2.0334,-1.9676,-1.6447,-1.4118,-1.3625,-1.3375,-1.2877,-1.2509,-1.2329,-1.1374,-0.9997,-1.0179,-1.0604,-1.1555,-1.2749,-1.2689,-1.3108,-1.3875,-1.4173,-1.3683,-1.2705,-1.1479,-1.041,-0.9384,-0.9042,-0.8947,-0.894,-0.8989,-0.9265,-0.9699,-1.1265,-1.2028,-1.1864,-1.2191,-1.3372,-1.5693,-1.7739,-1.9779,-2.1751,-2.3574,-2.4253,-2.4636,-2.4636,-2.4636,-2.4636,-2.4529,-2.4155,-2.3888,-2.3647,-2.3273,-2.2979,-2.2899,-2.2859,-2.2859,-2.2859,-2.2859,-2.2859,-2.2859,-2.2791,-2.2516,-2.216,-2.1953,-2.1803,-2.1996,-2.1175,-2.1224,-2.1765,-2.1403,-2.1136,-2.1109,-2.1109,-2.1109,-2.1109,-2.1109,-2.1109,-2.1109,-2.1109,-2.1109,-2.1109,-2.1109,-2.1109,-2.1109,-2.1109,-2.0589,-1.9674,-1.9088,-1.8244,-1.8116,-1.8896,-1.8832,-1.9674,-2.0068,-1.9801,-1.9291,-1.7859,-1.7269,-1.7141,-1.6883,-1.6818,-1.656,-1.6366,-1.5394,-1.4744,-1.4036,-1.3325,-1.4362,-1.5589,-1.7012,-1.7538,-1.8576,-1.8768,-1.9419,-2.0272,-2.0919,-2.0856,-2.0816,-1.8961,-1.6218,-1.3058,-1.2068,-1.2053,-1.1736,-1.2037,-1.1976,-1.0959,-0.9822,-1.0301,-1.0778,-1.1495,-1.2037,-1.2037,-1.2457,-1.3287,-1.3787,-1.376,-1.2601,-1.0996,-1.0314,-0.9475,-0.9167,-0.894,-0.894,-0.894,-0.9044,-0.9754,-1.0945,-1.2245,-1.2615,-1.3102,-1.4126,-1.6074,-1.8648,-2.0005,-2.2124,-2.4327,-2.4636,-2.4636,-2.4636,-2.4562,-2.4583,-2.4396,-2.3968,-2.3701,-2.3487,-2.314,-2.2859,-2.2859,-2.2859,-2.2859,-2.2859,-2.2859,-2.2859,-2.2859,-2.2859,-2.2791,-2.2859,-2.2846,-2.2764,-2.2523,-2.2151,-2.1871,-2.1512,-2.1309,-2.1149,-2.1109,-2.1109,-2.1109,-2.1109,-2.1109,-2.1109,-2.1109,-2.1109,-2.1109,-2.1109,-2.1109,-2.1109,-2.1109,-2.1032,-2.0843,-2.0068,-1.9024,-1.7988,-1.8244,-1.8308,-1.8116,-1.9024,-2.0449,-2.0195,-1.9483,-1.7152,-1.6818,-1.7152,-1.5913,-1.5144,-1.5014,-1.4884,-1.4428,-1.4101,-1.4558,-1.4874,-1.5394,-1.6947,-1.8052,-1.8372,-1.8512,-1.864,-1.961,-2.0526,-2.0462,-2.0526,-2.0218,-1.8179,-1.5866,-1.2847,-1.0433,-1.0572,-1.0725,-1.114,-1.1495,-1.0596,-0.9822,-1.0179,-1.0422,-1.0778,-1.1253,-1.1495,-1.1976,-1.2757,-1.2842,-1.2797,-1.1913,-1.0303,-0.9961,-0.9624,-0.9293,-0.9016,-0.894,-0.8933,-0.9044,-0.9375,-1.0029,-1.1437,-1.294,-1.3965,-1.4824,-1.4935,-1.8345,-1.8638,-2.1043,-2.4227,-2.4556,-2.4496,-2.4449,-2.4536,-2.4449,-2.4168,-2.3861,-2.3594,-2.3327,-2.3006,-2.2873,-2.2859,-2.2859,-2.2859,-2.2859,-2.2859,-2.2859,-2.2859,-2.2859,-2.2859,-2.2859,-2.2832,-2.2726,-2.2432,-2.2058,-2.1643,-2.1296,-2.1162,-2.1109,-2.1109,-2.1109,-2.1109,-2.1109,-2.1109,-2.1109,-2.1109,-2.1109,-2.1109,-2.1109,-2.1109,-2.1109,-2.1109,-2.1046,-2.0322,-1.9152,-1.7602,-1.5848,-1.507,-1.5265,-1.5719,-1.7012,-1.9546,-2.0449,-2.0322,-1.7731,-1.6237,-1.6172,-1.4297,-1.3587,-1.3259,-1.3259,-1.3193,-1.3325,-1.3774,-1.3905,-1.4297,-1.5784,-1.7269,-1.7409,-1.7538,-1.832,-1.9546,-1.9941,-1.9674,-1.9523,-1.9374,-1.7801,-1.5319,-1.2455,-0.9992,-0.9971,-1.0179,-1.024,-1.0536,-1.0422,-0.9822,-0.9822,-0.9997,-0.9883,-1.0301,-1.0778,-1.0899,-1.1434,-1.102,-1.0801,-1.0046,-0.9971,-0.9968,-0.9724,-0.9349,-0.9252,-0.9548,-0.9375,-0.9051,-0.943,-1.0186,-1.1273,-1.2994,-1.4395,-1.5423,-1.6151,-1.8638,-1.9905,-2.1933,-2.407,-2.4115,-2.3378,-2.2435,-2.3572,-2.4168,-2.3875,-2.3581,-2.3407,-2.33,-2.3006,-2.2886,-2.2859,-2.2859,-2.2859,-2.2859,-2.2859,-2.2859,-2.2859,-2.2859,-2.2859,-2.2859,-2.2887,-2.2672,-2.2352,-2.1964,-2.1523,-2.1176,-2.1109,-2.1109,-2.1109,-2.1109,-2.1109,-2.1109,-2.1109,-2.1109,-2.1109,-2.1109,-2.1109,-2.1109,-2.1109,-2.1109,-2.1109,-2.1109,-2.0589,-2.0132,-1.9801,-1.9024,-1.9152,-1.8308,-1.7795,-1.7988,-1.9801,-2.0969,-2.0526,-1.7859,-1.5784,-1.507,-1.3193,-1.1762,-1.1439,-1.1762,-1.215,-1.2865,-1.3643,-1.4166,-1.5589,-1.7141,-1.7988,-1.818,-1.8116,-1.818,-1.9024,-1.8384,-1.8104,-1.7655,-1.7525,-1.6404,-1.4028,-1.2335,-1.0261,-0.995,-0.9822,-0.9883,-0.9822,-0.9822,-0.9822,-0.9822,-0.9822,-0.9822,-0.9822,-1.0179,-1.0058,-0.9937,-0.9802,-0.9747,-0.9685,-0.9783,-0.9983,-0.9929,-0.9642,-1.0004,-1.057,-1.0186,-0.9533,-1.0241,-1.0945,-1.1919,-1.2994,-1.4415,-1.5837,-1.5772,-1.8289,-1.9422,-2.1061,-2.2743,-2.3549,-2.2722,-2.145,-2.3091,-2.3875,-2.3594,-2.342,-2.326,-2.3113,-2.2939,-2.2859,-2.2859,-2.2859,-2.2859,-2.2859,-2.2859,-2.2859,-2.2859,-2.2859,-2.2859,-2.2832,-2.2699,-2.2498,-2.2178,-2.171,-2.1243,-2.1136,-2.1109,-2.1109,-2.1109,-2.1109,-2.1109,-2.1109,-2.1109,-2.1109,-2.1109,-2.1109,-2.1109,-2.1109,-2.1109,-2.1109,-2.1109,-2.1109,-2.1109,-2.0843,-2.0716,-1.961,-1.896,-1.728,-1.7012,-1.7076,-1.7988,-1.8628,-1.818,-1.6366,-1.52,-1.4232,-1.2479,-1.124,-1.0784,-1.1049,-1.196,-1.2931,-1.4036,-1.5265,-1.728,-1.9024,-1.9279,-1.9546,-1.8896,-1.8256,-1.7602,-1.67,-1.6177,-1.563,-1.4896,-1.4023,-1.2646,-1.1347,-1.0543,-1.024,-1.024,-1.0475,-1.0179,-0.9822,-0.9822,-0.9822,-0.9822,-0.9822,-0.9822,-0.9808,-0.9781,-0.9761,-0.9713,-0.9646,-0.9537,-0.9569,-0.9681,-0.989,-0.9987,-1.0374,-1.0781,-1.0562,-1.0241,-1.1055,-1.2136,-1.3372,-1.4073,-1.4518,-1.5899,-1.4416,-1.7988,-1.8249,-1.9687,-2.1055,-2.2924,-2.2512,-2.0816,-2.2834,-2.3541,-2.3313,-2.3287,-2.3126,-2.2953,-2.2873,-2.2859,-2.2859,-2.2859,-2.2859,-2.2859,-2.2859,-2.2859,-2.2859,-2.2859,-2.2819,-2.2726,-2.2565,-2.2325,-2.1897,-2.147,-2.1176,-2.1109,-2.1109,-2.1109,-2.1109,-2.1109,-2.1109,-2.1109,-2.1109,-2.1109,-2.1109,-2.1109,-2.1109,-2.1109,-2.1109,-2.1109,-2.1109,-2.1109,-2.1109,-2.0526,-1.9737,-1.8308,-1.6431,-1.5719,-1.5719,-1.5459,-1.6302,-1.7012,-1.6883,-1.5524,-1.4809,-1.3709,-1.2091,-1.1505,-1.1439,-1.085,-1.163,-1.3193,-1.4362,-1.5978,-1.7923,-1.9483,-2.0195,-1.9546,-1.864,-1.7538,-1.6237,-1.5206,-1.407,-1.3598,-1.3215,-1.244,-1.2612,-1.1434,-1.0778,-1.0536,-1.0717,-1.108,-1.0415,-0.9883,-0.9822,-0.9822,-0.9822,-0.9822,-0.9822,-0.9802,-0.9741,-0.9693,-0.9646,-0.9517,-0.9395,-0.9417,-0.9427,-1.0224,-1.119,-1.0633,-1.0617,-1.0945,-1.1592,-1.2344,-1.348,-1.4877,-1.5447,-1.5486,-1.5974,-1.4408,-1.8103,-2.0912,-2.2224,-2.238,-2.2865,-2.2839,-2.2332,-2.2826,-2.306,-2.2993,-2.2979,-2.2953,-2.2886,-2.2859,-2.2859,-2.2859,-2.2859,-2.2859,-2.2859,-2.2859,-2.2859,-2.2846,-2.2819,-2.2739,-2.2565,-2.2378,-2.2111,-2.167,-2.1309,-2.1109,-2.1109,-2.1109,-2.1109,-2.1109,-2.1109,-2.1109,-2.1109,-2.1109,-2.1109,-2.1109,-2.1109,-2.1109,-2.1109,-2.1109,-2.1109,-2.1109,-2.1109,-2.1109,-2.0906,-2.0779,-1.8896,-1.6172,-1.6689,-1.5848,-1.4679,-1.5014,-1.6043,-1.6366,-1.5719,-1.5265,-1.5265,-1.4428,-1.3259,-1.2347,-1.1306,-1.1571,-1.3193,-1.4754,-1.6496,-1.8116,-1.9546,-2.0399,-1.9291,-1.818,-1.6625,-1.5014,-1.357,-1.2202,-1.1782,-1.1494,-1.1695,-1.1999,-1.1976,-1.1253,-1.1193,-1.1615,-1.1615,-1.0482,-0.9822,-0.9822,-0.9822,-0.9822,-0.9822,-0.9822,-0.9788,-0.9727,-0.9652,-0.9591,-0.9435,-0.9252,-0.9792,-1.0327,-1.17,-1.2516,-1.181,-1.1755,-1.2724,-1.3372,-1.375,-1.4556,-1.5849,-1.6464,-1.6612,-1.6795,-1.4099,-1.7878,-2.1538,-2.302,-2.2886,-2.2859,-2.2859,-2.2859,-2.2859,-2.2859,-2.2859,-2.2859,-2.2859,-2.2859,-2.2859,-2.2859,-2.2859,-2.2859,-2.2859,-2.2859,-2.2859,-2.2859,-2.2832,-2.2739,-2.2592,-2.2418,-2.2098,-2.1764,-2.1403,-2.1243,-2.1109,-2.1109,-2.1109,-2.1109,-2.1109,-2.1109,-2.1109,-2.1109,-2.1046,-2.1046,-2.1046,-2.1109,-2.1109,-2.1109,-2.1109,-2.1109,-2.1109,-2.1109,-2.1109,-2.0716,-2.0259,-1.8576,-1.6366,-1.5654,-1.4558,-1.3456,-1.3652,-1.5135,-1.5654,-1.5784,-1.5459,-1.5329,-1.4101,-1.1894,-1.1696,-1.085,-1.1571,-1.3062,-1.3652,-1.52,-1.6883,-1.8372,-1.8384,-1.7602,-1.6754,-1.5654,-1.3774,-1.1964,-1.1207,-1.1004,-1.0999,-1.1255,-1.1943,-1.3287,-1.2569,-1.1916,-1.2329,-1.1796,-1.0717,-0.9822,-0.9822,-0.9822,-0.9822,-0.9822,-0.9822,-0.9781,-0.972,-0.9639,-0.953,-0.9334,-0.9257,-1.035,-1.1383,-1.1919,-1.2462,-1.2724,-1.294,-1.3911,-1.4449,-1.4716,-1.5636,-1.6658,-1.7108,-1.7382,-1.7184,-1.452,-1.7879,-2.1459,-2.2859,-2.2859,-2.2859,-2.2859,-2.2859,-2.2859,-2.2859,-2.2859,-2.2859,-2.2859,-2.2859,-2.2859,-2.2859,-2.2859,-2.2859,-2.2859,-2.2859,-2.2859,-2.2792,-2.2672,-2.2565,-2.2392,-2.2098,-2.175,-2.147,-2.1162,-2.1109,-2.1109,-2.1109,-2.1109,-2.1109,-2.1109,-2.1109,-2.1109,-2.0906,-2.0843,-2.0843,-2.0906,-2.1109,-2.1109,-2.1109,-2.1109,-2.1109,-2.1109,-2.0843,-2.0843,-2.0005,-1.9024,-1.7538,-1.6043,-1.4809,-1.3382,-1.2479,-1.2931,-1.3643,-1.384,-1.4297,-1.4166,-1.3578,-1.1828,-1.1115,-1.1108,-1.1174,-1.1894,-1.2281,-1.2865,-1.3905,-1.5589,-1.6754,-1.656,-1.5913,-1.52,-1.4418,-1.2471,-1.0756,-1.063,-1.0424,-1.0629,-1.0959,-1.1906,-1.3375,-1.3526,-1.2868,-1.2389,-1.1675,-1.0959,-1.0179,-0.9822,-0.9822,-0.9822,-0.9822,-0.9822,-0.9774,-0.972,-0.9551,-0.9422,-0.9218,-0.9217,-0.9853,-1.046,-1.1,-1.1538,-1.294,-1.4019,-1.4931,-1.5358,-1.5743,-1.6393,-1.7147,-1.7279,-1.7448,-1.7107,-1.7458,-1.9773,-2.1953,-2.2859,-2.2859,-2.2859,-2.2859,-2.2859,-2.2859,-2.2859,-2.2859,-2.2859,-2.2859,-2.2859,-2.2859,-2.2859,-2.2859,-2.2859,-2.2859,-2.2859,-2.2819,-2.2686,-2.2525,-2.2352,-2.2111,-2.1764,-2.143,-2.1203,-2.1109,-2.1109,-2.1109,-2.1109,-2.1109,-2.1109,-2.1109,-2.1109,-2.1046,-2.0843,-2.0259,-2.0005,-2.0906,-2.1109,-2.1109,-2.1109,-2.1109,-2.1109,-2.0779,-1.9674,-1.9228,-1.8448,-1.7538,-1.656,-1.5524,-1.4362,-1.3128,-1.2668,-1.3128,-1.3193,-1.3447,-1.4166,-1.4362,-1.4428,-1.3128,-1.215,-1.1828,-1.1115,-1.1439,-1.1372,-1.2025,-1.2873,-1.4297,-1.5524,-1.5654,-1.4166,-1.3128,-1.2413,-1.1108,-1.0688,-1.0603,-1.0438,-1.0426,-1.0721,-1.1096,-1.2217,-1.2988,-1.2689,-1.3108,-1.2217,-1.0482,-1.0058,-0.9822,-0.9822,-0.9822,-0.9822,-0.9822,-0.9781,-0.9707,-0.9517,-0.9327,-0.9157,-0.9028,-0.8967,-0.9541,-1.0726,-1.2453,-1.4126,-1.5091,-1.5743,-1.6446,-1.6882,-1.7147,-1.7529,-1.7555,-1.7252,-1.6728]}]]